Darstellungsparameter: Aktuell verwendete Einstellungen:
Skalierung der Graphiken ... ?
xyx+y,   Skalierungsfaktor:      Skalierung: Modus: x, Faktor: 1
Darstellungszeitraum ... ?
Vom - - bis: - -   Zeitraum: 29.07.2015 - 28.07.2020
Min/Max/Avg-Anzeige ... ?
Zeige MMA aktuell
Zeige MMA Monat
Zeige MMA alles
Zeige --A aktuell
Zeige --A Monat
Zeige --A alles
Keine MMA-Anzeige
MMA:
Average (ber die Originaldaten)
MMA-Basis: 23.02.2003 - 03.08.2020
Quicknavigation für Darstellung... ?
Tage:      1T, 2T, 3T, 5T -1T -2T -3T -5T +1T +2T +3T +5T
Wochen: 1W, 2W, 3W -1W -2W -3W +1W +2W +3W
Monate: 1M, 3M, 6M -1M -3M -6M +1M +3M +6M
Jahre:    1J, 3J, 5J, 10J -1J -3J -5J -10J +1J +3J +5J +10J
Nutze für die Darstellung ... ?
Originaldaten oder ...
Mittelwerte Minima Maxima auf...
Stundenbasis Tagesbasis Wochenbasis
Monatsbasis Jahresbasis      Datenbasis: Mittelwerte auf Stundenbasis
Darstellen als:
Statistik (Auto) Statistik J:M      Darstellung:
Zur Graphik,    zurück zur Übersicht aller Sensoren.
 
Tabellarische Datenbersicht: ?
 
Sensor: Nr:Datum:Temp:Abs-Feuchte:Windchill:Wind:
Aussen-T/F 1 29-07-2015 03:00:00 14.24 C 9.13 g/m*3 14.24 C 1.6 km/h
2 29-07-2015 05:00:00 12.43333 C 9.09 g/m*3 12.43 C 1.06667 km/h
3 29-07-2015 07:00:00 13.6 C 11.77 g/m*3 13.6 C 8.85 km/h
4 29-07-2015 08:00:00 14.4 C 9.35 g/m*3 14.4 C 10.35 km/h
5 29-07-2015 09:00:00 15.51667 C 9.09 g/m*3 15.52 C 15.16667 km/h
6 29-07-2015 10:00:00 16.95 C 8.7 g/m*3 16.95 C 14.625 km/h
7 29-07-2015 11:00:00 18.475 C 7.95 g/m*3 18.48 C 15.43333 km/h
8 29-07-2015 12:00:00 19.675 C 7.28 g/m*3 19.68 C 14.23333 km/h
9 29-07-2015 13:00:00 20.11667 C 7.4 g/m*3 20.12 C 16.23333 km/h
10 29-07-2015 14:00:00 20.69167 C 7.33 g/m*3 20.69 C 17.7 km/h
11 29-07-2015 15:00:00 21.31667 C 7.12 g/m*3 21.32 C 15.83333 km/h
12 29-07-2015 16:00:00 21.3 C 7.15 g/m*3 21.3 C 17.96667 km/h
13 29-07-2015 17:00:00 20.55833 C 7.65 g/m*3 20.56 C 16.76667 km/h
14 29-07-2015 18:00:00 18.5 C 9.56 g/m*3 18.5 C 10.05833 km/h
15 29-07-2015 19:00:00 19.075 C 8.62 g/m*3 19.08 C 10.73333 km/h
16 29-07-2015 20:00:00 18.60833 C 8.43 g/m*3 18.61 C 8.2 km/h
17 29-07-2015 21:00:00 16.71667 C 8.49 g/m*3 16.72 C 4.01667 km/h
18 29-07-2015 22:00:00 15.25833 C 8.24 g/m*3 15.26 C 2.53333 km/h
19 29-07-2015 23:00:00 13.65 C 8.37 g/m*3 13.65 C 0.53333 km/h
20 30-07-2015 00:00:00 12.24167 C 8.27 g/m*3 12.24 C 0.13333 km/h
21 30-07-2015 01:00:00 11.425 C 8.16 g/m*3 11.43 C 0.26667 km/h
22 30-07-2015 02:00:00 10.975 C 8.17 g/m*3 10.98 C 2.95 km/h
23 30-07-2015 03:00:00 10.44167 C 8.12 g/m*3 10.44 C 1.33333 km/h
24 30-07-2015 04:00:00 10.2 C 8.11 g/m*3 10.2 C 3.2 km/h
25 30-07-2015 05:00:00 10.13333 C 8.15 g/m*3 9.35 C 7.125 km/h
Sensor: Nr:Datum:Temp:Abs-Feuchte:Windchill:Wind:
Aussen-T/F 26 30-07-2015 06:00:00 9.89167 C 8.1 g/m*3 9.89 C 3.2 km/h
27 30-07-2015 07:00:00 10.775 C 8.39 g/m*3 10.49 C 5.5 km/h
28 30-07-2015 08:00:00 12.26667 C 8.73 g/m*3 12.27 C 7.10833 km/h
29 30-07-2015 09:00:00 13.41667 C 8.94 g/m*3 13.42 C 6.425 km/h
30 30-07-2015 10:00:00 15.63333 C 9.28 g/m*3 15.63 C 6.69167 km/h
31 30-07-2015 11:00:00 18.25833 C 9.23 g/m*3 18.26 C 6.96667 km/h
32 30-07-2015 12:00:00 18.975 C 9.09 g/m*3 18.98 C 5.21667 km/h
33 30-07-2015 13:00:00 18.94167 C 9.5 g/m*3 18.94 C 7.11667 km/h
34 30-07-2015 14:00:00 20.34167 C 9.24 g/m*3 20.34 C 9.26667 km/h
35 30-07-2015 15:00:00 17.9 C 9.72 g/m*3 17.9 C 8.6 km/h
36 30-07-2015 16:00:00 16.125 C 10.16 g/m*3 16.13 C 4.95833 km/h
37 30-07-2015 17:00:00 15.05 C 9.75 g/m*3 15.05 C 4.69167 km/h
38 30-07-2015 18:00:00 15.56667 C 9.79 g/m*3 15.57 C 1.73333 km/h
39 30-07-2015 19:00:00 15.85 C 9.92 g/m*3 15.85 C 2.8 km/h
40 30-07-2015 20:00:00 15.48 C 10.59 g/m*3 15.48 C 1.92 km/h
41 31-07-2015 00:00:00 11.15714 C 9.5 g/m*3 11.16 C 1.14286 km/h
42 31-07-2015 01:00:00 10.74286 C 9.26 g/m*3 10.74 C 0 km/h
43 31-07-2015 03:00:00 10.35 C 9.13 g/m*3 10.35 C 0 km/h
44 31-07-2015 04:00:00 10.55833 C 9.25 g/m*3 10.56 C 0.13333 km/h
45 31-07-2015 05:00:00 10.7 C 9.33 g/m*3 10.7 C 0 km/h
46 31-07-2015 07:00:00 10.79091 C 9.38 g/m*3 10.79 C 0 km/h
47 31-07-2015 08:00:00 11.96667 C 9.86 g/m*3 11.97 C 2 km/h
48 31-07-2015 09:00:00 13.53333 C 9.93 g/m*3 13.53 C 5.20833 km/h
49 31-07-2015 10:00:00 15.05 C 9.69 g/m*3 15.05 C 6.85833 km/h
50 31-07-2015 11:00:00 17.075 C 9.37 g/m*3 17.08 C 7.39167 km/h
Sensor: Nr:Datum:Temp:Abs-Feuchte:Windchill:Wind:
Aussen-T/F 51 31-07-2015 12:00:00 18.68333 C 9.25 g/m*3 18.68 C 7.65833 km/h
52 31-07-2015 13:00:00 20.1 C 8.82 g/m*3 20.1 C 7.24167 km/h
53 31-07-2015 14:00:00 21.425 C 8.32 g/m*3 21.43 C 10.49167 km/h
54 31-07-2015 15:00:00 22.5 C 8.01 g/m*3 22.5 C 9.68333 km/h
55 31-07-2015 16:00:00 22.525 C 7.93 g/m*3 22.53 C 9.15 km/h
56 31-07-2015 17:00:00 23.28333 C 7.89 g/m*3 23.28 C 8.73333 km/h
57 31-07-2015 18:00:00 23.70833 C 7.85 g/m*3 23.71 C 9.15 km/h
58 31-07-2015 19:00:00 22.525 C 7.92 g/m*3 22.53 C 10.49167 km/h
59 31-07-2015 20:00:00 20.63333 C 8.19 g/m*3 20.63 C 4.825 km/h
60 31-07-2015 21:00:00 16.63333 C 8.27 g/m*3 16.63 C 0.53333 km/h
61 31-07-2015 22:00:00 14.91667 C 8.8 g/m*3 14.92 C 0.8 km/h
62 31-07-2015 23:00:00 13.79167 C 8.52 g/m*3 13.79 C 0 km/h
63 01-08-2015 00:00:00 13.20833 C 8.53 g/m*3 13.21 C 0 km/h
64 01-08-2015 01:00:00 13.1 C 8.57 g/m*3 13.1 C 0 km/h
65 01-08-2015 02:00:00 12.85 C 8.46 g/m*3 12.85 C 0 km/h
66 01-08-2015 03:00:00 12.75833 C 8.3 g/m*3 12.76 C 0 km/h
67 01-08-2015 04:00:00 12.66667 C 8.37 g/m*3 12.67 C 0 km/h
68 01-08-2015 05:00:00 12.68333 C 8.43 g/m*3 12.68 C 0 km/h
69 01-08-2015 06:00:00 12.21667 C 8.43 g/m*3 12.22 C 0 km/h
70 01-08-2015 07:00:00 12.79167 C 9.04 g/m*3 12.79 C 0 km/h
71 01-08-2015 08:00:00 14.34167 C 9.25 g/m*3 14.34 C 0.13333 km/h
72 01-08-2015 09:00:00 15.43333 C 9.28 g/m*3 15.43 C 1.46667 km/h
73 01-08-2015 10:00:00 17.15833 C 9.4 g/m*3 17.16 C 3.6 km/h
74 01-08-2015 11:00:00 20.44167 C 9.65 g/m*3 20.44 C 5.35 km/h
75 01-08-2015 12:00:00 23.1 C 9.66 g/m*3 23.1 C 6.025 km/h
Sensor: Nr:Datum:Temp:Abs-Feuchte:Windchill:Wind:
Aussen-T/F 76 01-08-2015 13:00:00 25.25833 C 9.46 g/m*3 25.26 C 8.06667 km/h
77 01-08-2015 14:00:00 26.96667 C 9.5 g/m*3 26.97 C 8.875 km/h
78 01-08-2015 15:00:00 28.00833 C 9.43 g/m*3 28.01 C 8.625 km/h
79 01-08-2015 16:00:00 28.125 C 9.22 g/m*3 28.13 C 6.98333 km/h
80 01-08-2015 17:00:00 27.60833 C 9.32 g/m*3 27.61 C 5.89167 km/h
81 01-08-2015 18:00:00 26.31667 C 10.1 g/m*3 26.32 C 6.03333 km/h
82 01-08-2015 19:00:00 26.99167 C 9.69 g/m*3 26.99 C 9.80833 km/h
83 01-08-2015 20:00:00 23.00833 C 10.25 g/m*3 23.01 C 2.675 km/h
84 01-08-2015 21:00:00 20.3 C 10.39 g/m*3 20.3 C 0.8 km/h
85 01-08-2015 22:00:00 18.6 C 10.27 g/m*3 18.6 C 1.06667 km/h
86 01-08-2015 23:00:00 17.85 C 10.12 g/m*3 17.85 C 1.06667 km/h
87 02-08-2015 00:00:00 17.325 C 10.13 g/m*3 17.33 C 0.93333 km/h
88 02-08-2015 01:00:00 16.28333 C 9.99 g/m*3 16.28 C 0.26667 km/h
89 02-08-2015 02:00:00 15.575 C 9.89 g/m*3 15.58 C 0.8 km/h
90 02-08-2015 03:00:00 14.49167 C 9.85 g/m*3 14.49 C 0.53333 km/h
91 02-08-2015 04:00:00 13.5 C 9.74 g/m*3 13.5 C 0 km/h
92 02-08-2015 05:00:00 12.525 C 9.55 g/m*3 12.53 C 0 km/h
93 02-08-2015 06:00:00 12.025 C 9.46 g/m*3 12.03 C 0 km/h
94 02-08-2015 07:00:00 12.33333 C 9.68 g/m*3 12.33 C 0.13333 km/h
95 02-08-2015 08:00:00 13.51667 C 10.26 g/m*3 13.52 C 0 km/h
96 02-08-2015 09:00:00 15.48333 C 10.85 g/m*3 15.48 C 0 km/h
97 02-08-2015 10:00:00 17.90833 C 11.22 g/m*3 17.91 C 1.73333 km/h
98 02-08-2015 11:00:00 22.45 C 11.49 g/m*3 22.45 C 2.66667 km/h
99 02-08-2015 12:00:00 25.24167 C 11.45 g/m*3 25.24 C 5.88333 km/h
100 02-08-2015 13:00:00 27.275 C 11.21 g/m*3 27.28 C 7.375 km/h
Sensor: Nr:Datum:Temp:Abs-Feuchte:Windchill:Wind:
Aussen-T/F 101 02-08-2015 14:00:00 28.58333 C 11.02 g/m*3 28.58 C 7.11667 km/h
102 02-08-2015 15:00:00 29.575 C 10.72 g/m*3 29.58 C 7.525 km/h
103 02-08-2015 16:00:00 30.74167 C 10.39 g/m*3 30.74 C 10.225 km/h
104 02-08-2015 17:00:00 30.49167 C 10.38 g/m*3 30.49 C 9.26667 km/h
105 02-08-2015 18:00:00 29.90833 C 10.36 g/m*3 29.91 C 7.10833 km/h
106 02-08-2015 19:00:00 28.9 C 10.71 g/m*3 28.9 C 6.725 km/h
107 02-08-2015 20:00:00 25.39167 C 12.45 g/m*3 25.39 C 0.26667 km/h
108 02-08-2015 21:00:00 21.51667 C 10.68 g/m*3 21.52 C 1.6 km/h
109 02-08-2015 22:00:00 20.38333 C 10.18 g/m*3 20.38 C 0.93333 km/h
110 02-08-2015 23:00:00 18.90833 C 10.55 g/m*3 18.91 C 0 km/h
111 03-08-2015 00:00:00 17.80833 C 10.45 g/m*3 17.81 C 0.13333 km/h
112 03-08-2015 01:00:00 16.69167 C 10.33 g/m*3 16.69 C 0 km/h
113 03-08-2015 02:00:00 15.60833 C 10.27 g/m*3 15.61 C 0 km/h
114 03-08-2015 03:00:00 14.875 C 10.13 g/m*3 14.88 C 0 km/h
115 03-08-2015 04:00:00 14.225 C 10 g/m*3 14.23 C 0 km/h
116 03-08-2015 05:00:00 13.70833 C 9.94 g/m*3 13.71 C 0 km/h
117 03-08-2015 06:00:00 13.41667 C 9.91 g/m*3 13.42 C 0 km/h
118 03-08-2015 07:00:00 13.61667 C 10.2 g/m*3 13.62 C 0 km/h
119 03-08-2015 08:00:00 14.88333 C 10.79 g/m*3 14.88 C 0 km/h
120 03-08-2015 09:00:00 17.125 C 11.48 g/m*3 17.13 C 0 km/h
121 03-08-2015 10:00:00 19.575 C 12.46 g/m*3 19.58 C 0 km/h
122 03-08-2015 11:00:00 25.125 C 12.29 g/m*3 25.13 C 2.275 km/h
123 03-08-2015 12:00:00 30.45 C 10.64 g/m*3 30.45 C 7.8 km/h
124 03-08-2015 13:00:00 31.95 C 10.66 g/m*3 31.95 C 8.31667 km/h
125 03-08-2015 14:00:00 33.08333 C 10.13 g/m*3 33.08 C 8.98333 km/h
Sensor: Nr:Datum:Temp:Abs-Feuchte:Windchill:Wind:
Aussen-T/F 126 03-08-2015 15:00:00 33.99167 C 9.97 g/m*3 33.99 C 8.86667 km/h
127 03-08-2015 16:00:00 35.05 C 10.54 g/m*3 35.05 C 6.29167 km/h
128 03-08-2015 17:00:00 35.63333 C 10.04 g/m*3 35.63 C 7.93333 km/h
129 03-08-2015 18:00:00 34.86667 C 9.98 g/m*3 34.87 C 6.175 km/h
130 03-08-2015 19:00:00 29.35833 C 12.25 g/m*3 29.36 C 0.8 km/h
131 03-08-2015 20:00:00 25.85833 C 11.63 g/m*3 25.86 C 1.06667 km/h
132 03-08-2015 21:00:00 23.81 C 11.49 g/m*3 23.81 C 0.16 km/h
133 03-08-2015 22:00:00 23.28571 C 11.7 g/m*3 23.29 C 0.91429 km/h
134 03-08-2015 23:00:00 22.75833 C 11.84 g/m*3 22.76 C 0.66667 km/h
135 04-08-2015 00:00:00 21.81667 C 12.1 g/m*3 21.82 C 0 km/h
136 04-08-2015 01:00:00 19.275 C 12.01 g/m*3 19.27 C 0 km/h
137 04-08-2015 02:00:00 18.09167 C 11.66 g/m*3 18.09 C 0 km/h
138 04-08-2015 03:00:00 17.3 C 11.44 g/m*3 17.3 C 0 km/h
139 04-08-2015 04:00:00 16.74167 C 11.37 g/m*3 16.74 C 0 km/h
140 04-08-2015 05:00:00 16.24167 C 11.39 g/m*3 16.24 C 0 km/h
141 04-08-2015 06:00:00 16.075 C 11.55 g/m*3 16.08 C 0 km/h
142 04-08-2015 07:00:00 17.00833 C 12.11 g/m*3 17.01 C 0 km/h
143 04-08-2015 08:00:00 19.69167 C 12.76 g/m*3 19.69 C 0.8 km/h
144 04-08-2015 09:00:00 21.90833 C 13.43 g/m*3 21.91 C 1.60833 km/h
145 04-08-2015 10:00:00 23.99167 C 13.16 g/m*3 23.99 C 6.3 km/h
146 04-08-2015 11:00:00 24.10833 C 13.17 g/m*3 24.11 C 11.275 km/h
147 04-08-2015 12:00:00 21.38333 C 14.92 g/m*3 21.38 C 3.225 km/h
148 04-08-2015 13:00:00 19.75833 C 15.59 g/m*3 19.76 C 0.53333 km/h
149 04-08-2015 14:00:00 20.55 C 16.02 g/m*3 20.55 C 3.60833 km/h
150 04-08-2015 15:00:00 21.60833 C 16.32 g/m*3 21.61 C 6.31667 km/h
Sensor: Nr:Datum:Temp:Abs-Feuchte:Windchill:Wind:
Aussen-T/F 151 04-08-2015 16:00:00 21.08333 C 16.69 g/m*3 21.08 C 0.13333 km/h
152 04-08-2015 17:00:00 18.89167 C 14.44 g/m*3 18.89 C 9.55 km/h
153 04-08-2015 18:00:00 18.24167 C 13.95 g/m*3 18.24 C 6.16667 km/h
154 04-08-2015 19:00:00 18.6 C 14.1 g/m*3 18.6 C 1.6 km/h
155 04-08-2015 20:00:00 18.15833 C 14.08 g/m*3 18.16 C 0 km/h
156 04-08-2015 21:00:00 16.35 C 12.89 g/m*3 16.35 C 0.26667 km/h
157 04-08-2015 22:00:00 15.31667 C 12.3 g/m*3 15.32 C 0 km/h
158 04-08-2015 23:00:00 14.6 C 11.88 g/m*3 14.6 C 0 km/h
159 05-08-2015 00:00:00 14.00833 C 11.48 g/m*3 14.01 C 0 km/h
160 05-08-2015 01:00:00 13.61667 C 11.31 g/m*3 13.62 C 0 km/h
161 05-08-2015 02:00:00 14.03333 C 11.61 g/m*3 14.03 C 0 km/h
162 05-08-2015 03:00:00 14.1 C 11.65 g/m*3 14.1 C 0 km/h
163 05-08-2015 04:00:00 13.98333 C 11.6 g/m*3 13.98 C 0 km/h
164 05-08-2015 05:00:00 13.725 C 11.46 g/m*3 13.73 C 0 km/h
165 05-08-2015 06:00:00 13.70833 C 11.49 g/m*3 13.71 C 0 km/h
166 05-08-2015 07:00:00 13.83333 C 11.58 g/m*3 13.83 C 0 km/h
167 05-08-2015 08:00:00 14.24167 C 11.87 g/m*3 14.24 C 0 km/h
168 05-08-2015 09:00:00 15.15 C 12.5 g/m*3 15.15 C 0 km/h
169 05-08-2015 10:00:00 16.24167 C 13.01 g/m*3 16.24 C 0 km/h
170 05-08-2015 11:00:00 20.79167 C 14.33 g/m*3 20.79 C 5.75 km/h
171 05-08-2015 12:00:00 23.39167 C 13.19 g/m*3 23.39 C 6.55 km/h
172 05-08-2015 13:00:00 25.08333 C 12.45 g/m*3 25.08 C 7.38333 km/h
173 05-08-2015 14:00:00 26.90833 C 11.91 g/m*3 26.91 C 10.35 km/h
174 05-08-2015 15:00:00 28.10833 C 11.69 g/m*3 28.11 C 9 km/h
175 05-08-2015 16:00:00 28.33333 C 11.22 g/m*3 28.33 C 7.51667 km/h
Sensor: Nr:Datum:Temp:Abs-Feuchte:Windchill:Wind:
Aussen-T/F 176 05-08-2015 17:00:00 29.3 C 11.43 g/m*3 29.3 C 9.15 km/h
177 05-08-2015 18:00:00 28.875 C 12.08 g/m*3 28.88 C 4.00833 km/h
178 05-08-2015 19:00:00 25.675 C 14.44 g/m*3 25.68 C 1.33333 km/h
179 05-08-2015 20:00:00 22.34167 C 14.12 g/m*3 22.34 C 0.8 km/h
180 05-08-2015 21:00:00 20.625 C 13.43 g/m*3 20.63 C 1.46667 km/h
181 05-08-2015 22:00:00 19.88333 C 13.22 g/m*3 19.88 C 0.26667 km/h
182 05-08-2015 23:00:00 19.05 C 12.9 g/m*3 19.05 C 0 km/h
183 06-08-2015 00:00:00 17.99167 C 12.49 g/m*3 17.99 C 0 km/h
184 06-08-2015 01:00:00 17.13333 C 12.2 g/m*3 17.13 C 0 km/h
185 06-08-2015 02:00:00 16.39167 C 11.97 g/m*3 16.39 C 0 km/h
186 06-08-2015 03:00:00 15.525 C 11.8 g/m*3 15.53 C 0 km/h
187 06-08-2015 04:00:00 15.13333 C 11.77 g/m*3 15.13 C 0 km/h
188 06-08-2015 05:00:00 14.75 C 11.58 g/m*3 14.75 C 0 km/h
189 06-08-2015 06:00:00 14.54167 C 11.58 g/m*3 14.54 C 0 km/h
190 06-08-2015 07:00:00 14.95833 C 11.91 g/m*3 14.96 C 0 km/h
191 06-08-2015 08:00:00 15.975 C 12.6 g/m*3 15.98 C 0 km/h
192 06-08-2015 09:00:00 18.40833 C 13.56 g/m*3 18.41 C 0 km/h
193 06-08-2015 10:00:00 21.30833 C 14.06 g/m*3 21.31 C 0.13333 km/h
194 06-08-2015 11:00:00 23.80833 C 14.49 g/m*3 23.81 C 0 km/h
195 06-08-2015 12:00:00 26.89167 C 16.12 g/m*3 26.89 C 0.80833 km/h
196 06-08-2015 13:00:00 32.78333 C 14.55 g/m*3 32.78 C 6.575 km/h
197 06-08-2015 14:00:00 33.65 C 14.8 g/m*3 33.65 C 5.88333 km/h
198 06-08-2015 15:00:00 34.525 C 14.43 g/m*3 34.53 C 8.31667 km/h
199 06-08-2015 16:00:00 36.50833 C 11.97 g/m*3 36.51 C 11.95833 km/h
200 06-08-2015 17:00:00 36.79167 C 11.38 g/m*3 36.79 C 11.15833 km/h
Sensor: Nr:Datum:Temp:Abs-Feuchte:Windchill:Wind:
Aussen-T/F 201 06-08-2015 18:00:00 35.85833 C 11.68 g/m*3 35.86 C 7.53333 km/h
202 06-08-2015 19:00:00 30.63333 C 14.51 g/m*3 30.63 C 1.6 km/h
203 06-08-2015 20:00:00 27.80833 C 15.18 g/m*3 27.81 C 0.53333 km/h
204 06-08-2015 21:00:00 25.73333 C 14.45 g/m*3 25.73 C 0.53333 km/h
205 06-08-2015 22:00:00 24.93333 C 14.72 g/m*3 24.93 C 0 km/h
206 06-08-2015 23:00:00 23.95833 C 14.65 g/m*3 23.96 C 0 km/h
207 07-08-2015 00:00:00 22.475 C 14.26 g/m*3 22.48 C 0 km/h
208 07-08-2015 01:00:00 21 C 13.91 g/m*3 21 C 0 km/h
209 07-08-2015 02:00:00 19.91667 C 13.39 g/m*3 19.92 C 0 km/h
210 07-08-2015 03:00:00 19.4 C 12.6 g/m*3 19.4 C 0 km/h
211 07-08-2015 04:00:00 19.76667 C 12.53 g/m*3 19.77 C 0 km/h
212 07-08-2015 05:00:00 19.5 C 13.19 g/m*3 19.5 C 0 km/h
213 07-08-2015 06:00:00 19.65 C 13.74 g/m*3 19.65 C 0.26667 km/h
214 07-08-2015 07:00:00 20.7 C 14.48 g/m*3 20.7 C 1.33333 km/h
215 07-08-2015 08:00:00 21.21667 C 14.89 g/m*3 21.22 C 3.48333 km/h
216 07-08-2015 09:00:00 21.85833 C 15.05 g/m*3 21.86 C 2.66667 km/h
217 07-08-2015 10:00:00 24.18333 C 15.52 g/m*3 24.18 C 3.46667 km/h
218 07-08-2015 11:00:00 28.125 C 15.93 g/m*3 28.13 C 8.05833 km/h
219 07-08-2015 12:00:00 31.19167 C 15.55 g/m*3 31.19 C 8.475 km/h
220 07-08-2015 13:00:00 33.36667 C 15.48 g/m*3 33.37 C 8.46667 km/h
221 07-08-2015 14:00:00 35.46667 C 15.09 g/m*3 35.47 C 8.325 km/h
222 07-08-2015 15:00:00 36.75833 C 15.22 g/m*3 36.76 C 9.00833 km/h
223 07-08-2015 16:00:00 36.91667 C 15.35 g/m*3 36.92 C 9.01667 km/h
224 07-08-2015 17:00:00 36.725 C 16.53 g/m*3 36.73 C 11.43333 km/h
225 07-08-2015 18:00:00 35.075 C 17.2 g/m*3 35.08 C 12.23333 km/h
Sensor: Nr:Datum:Temp:Abs-Feuchte:Windchill:Wind:
Aussen-T/F 226 07-08-2015 19:00:00 33.09167 C 16.84 g/m*3 33.09 C 10.63333 km/h
227 07-08-2015 20:00:00 30.54167 C 15.79 g/m*3 30.54 C 7.53333 km/h
228 07-08-2015 21:00:00 27.775 C 16.14 g/m*3 27.78 C 2.54167 km/h
229 07-08-2015 22:00:00 26.53333 C 16.15 g/m*3 26.53 C 5.625 km/h
230 07-08-2015 23:00:00 25.4 C 16.3 g/m*3 25.4 C 4.15 km/h
231 08-08-2015 00:00:00 24.25833 C 16.89 g/m*3 24.26 C 6.025 km/h
232 08-08-2015 01:00:00 22.19167 C 16.6 g/m*3 22.19 C 0 km/h
233 08-08-2015 02:00:00 22.775 C 16.66 g/m*3 22.78 C 8.325 km/h
234 08-08-2015 03:00:00 23.25 C 16.51 g/m*3 23.25 C 2.675 km/h
235 08-08-2015 04:00:00 22.66667 C 16.2 g/m*3 22.67 C 0 km/h
236 08-08-2015 05:00:00 22.19167 C 16.06 g/m*3 22.19 C 6.96667 km/h
237 08-08-2015 06:00:00 21.03333 C 15.91 g/m*3 21.03 C 1.20833 km/h
238 08-08-2015 07:00:00 21.03333 C 16.52 g/m*3 21.03 C 1.33333 km/h
239 08-08-2015 08:00:00 21.98333 C 17.13 g/m*3 21.98 C 2.53333 km/h
240 08-08-2015 09:00:00 22.75 C 17.1 g/m*3 22.75 C 6.45 km/h
241 08-08-2015 10:00:00 23.4 C 16.93 g/m*3 23.4 C 10.48333 km/h
242 08-08-2015 11:00:00 24.29167 C 16.85 g/m*3 24.29 C 10.225 km/h
243 08-08-2015 12:00:00 24.20833 C 16.6 g/m*3 24.21 C 12.76667 km/h
244 08-08-2015 13:00:00 24.5 C 16.6 g/m*3 24.5 C 14.63333 km/h
245 08-08-2015 14:00:00 23.18333 C 15.99 g/m*3 23.18 C 15.43333 km/h
246 08-08-2015 15:00:00 22.76667 C 15.94 g/m*3 22.77 C 14.76667 km/h
247 08-08-2015 16:00:00 23.34167 C 16.03 g/m*3 23.34 C 13.03333 km/h
248 08-08-2015 17:00:00 24.90833 C 16.24 g/m*3 24.91 C 11.7 km/h
249 08-08-2015 18:00:00 24.54167 C 15.72 g/m*3 24.54 C 13.43333 km/h
250 08-08-2015 19:00:00 23.60833 C 15.55 g/m*3 23.61 C 10.09167 km/h
Sensor: Nr:Datum:Temp:Abs-Feuchte:Windchill:Wind:
Aussen-T/F 251 08-08-2015 20:00:00 22.33333 C 14.95 g/m*3 22.33 C 9.68333 km/h
252 08-08-2015 21:00:00 21.31667 C 14.58 g/m*3 21.32 C 6.56667 km/h
253 08-08-2015 22:00:00 20.51667 C 14.38 g/m*3 20.52 C 2.8 km/h
254 08-08-2015 23:00:00 20.63333 C 14.53 g/m*3 20.63 C 2.4 km/h
255 09-08-2015 00:00:00 20.35833 C 14.49 g/m*3 20.36 C 1.2 km/h
256 09-08-2015 01:00:00 19.88333 C 14.58 g/m*3 19.88 C 1.33333 km/h
257 09-08-2015 02:00:00 19.54167 C 14.47 g/m*3 19.54 C 0.93333 km/h
258 09-08-2015 03:00:00 19.03333 C 14.19 g/m*3 19.03 C 0.66667 km/h
259 09-08-2015 04:00:00 17.9 C 13.75 g/m*3 17.9 C 0 km/h
260 09-08-2015 05:00:00 17.50833 C 13.61 g/m*3 17.51 C 0 km/h
261 09-08-2015 06:00:00 17.63333 C 13.76 g/m*3 17.63 C 1.06667 km/h
262 09-08-2015 07:00:00 18.6 C 13.93 g/m*3 18.6 C 3.73333 km/h
263 09-08-2015 08:00:00 19.28333 C 13.93 g/m*3 19.28 C 1.06667 km/h
264 09-08-2015 09:00:00 19.91667 C 14.15 g/m*3 19.92 C 2.13333 km/h
265 09-08-2015 10:00:00 20.875 C 14.47 g/m*3 20.88 C 1.73333 km/h
266 09-08-2015 11:00:00 22.19167 C 15.01 g/m*3 22.19 C 4.28333 km/h
267 09-08-2015 12:00:00 23.40833 C 15.36 g/m*3 23.41 C 8.475 km/h
268 09-08-2015 13:00:00 24.7 C 16.01 g/m*3 24.7 C 9.825 km/h
269 09-08-2015 14:00:00 25.675 C 16.32 g/m*3 25.68 C 8.86667 km/h
270 09-08-2015 15:00:00 25.66667 C 16.35 g/m*3 25.67 C 8.35 km/h
271 09-08-2015 16:00:00 25.41667 C 16.38 g/m*3 25.42 C 9.13333 km/h
272 09-08-2015 17:00:00 26.23333 C 16.69 g/m*3 26.23 C 10.1 km/h
273 09-08-2015 18:00:00 27.3 C 16.68 g/m*3 27.3 C 10.1 km/h
274 09-08-2015 19:00:00 26.1 C 16.26 g/m*3 26.1 C 7.79167 km/h
275 09-08-2015 20:00:00 24.94167 C 15.66 g/m*3 24.94 C 6.15833 km/h
Sensor: Nr:Datum:Temp:Abs-Feuchte:Windchill:Wind:
Aussen-T/F 276 09-08-2015 21:00:00 23.01667 C 14.97 g/m*3 23.02 C 4.69167 km/h
277 09-08-2015 22:00:00 21.66667 C 14.53 g/m*3 21.67 C 2.13333 km/h
278 09-08-2015 23:00:00 20.85833 C 14.29 g/m*3 20.86 C 1.33333 km/h
279 10-08-2015 00:00:00 20.58333 C 14.2 g/m*3 20.58 C 2.13333 km/h
280 10-08-2015 01:00:00 20.4 C 14.14 g/m*3 20.4 C 1.6 km/h
281 10-08-2015 02:00:00 20.425 C 14 g/m*3 20.43 C 4.41667 km/h
282 10-08-2015 03:00:00 20.01667 C 14.14 g/m*3 20.02 C 0.53333 km/h
283 10-08-2015 04:00:00 19.25833 C 14.3 g/m*3 19.26 C 1.06667 km/h
284 10-08-2015 05:00:00 17.93333 C 14.15 g/m*3 17.93 C 3.20833 km/h
285 10-08-2015 06:00:00 17.48333 C 14.04 g/m*3 17.48 C 0.93333 km/h
286 10-08-2015 07:00:00 17.49167 C 14.17 g/m*3 17.49 C 0.13333 km/h
287 10-08-2015 08:00:00 17.98333 C 14.63 g/m*3 17.98 C 0.4 km/h
288 10-08-2015 09:00:00 18.35833 C 14.75 g/m*3 18.36 C 2.28333 km/h
289 10-08-2015 10:00:00 18.95833 C 14.71 g/m*3 18.96 C 4.56667 km/h
290 10-08-2015 11:00:00 20.84167 C 15.35 g/m*3 20.84 C 9.56667 km/h
291 10-08-2015 12:00:00 22.20833 C 15.24 g/m*3 22.21 C 11.7 km/h
292 10-08-2015 13:00:00 22.98333 C 15.16 g/m*3 22.98 C 14.5 km/h
293 10-08-2015 14:00:00 23.88333 C 15.18 g/m*3 23.88 C 14.1 km/h
294 10-08-2015 15:00:00 23.74167 C 14.94 g/m*3 23.74 C 12.63333 km/h
295 10-08-2015 16:00:00 22.575 C 14.49 g/m*3 22.58 C 13.83333 km/h
296 10-08-2015 17:00:00 21.09167 C 14.21 g/m*3 21.09 C 12.5 km/h
297 10-08-2015 18:00:00 19.81667 C 12.95 g/m*3 19.82 C 8.45833 km/h
298 10-08-2015 19:00:00 18.925 C 12.93 g/m*3 18.93 C 6.575 km/h
299 10-08-2015 20:00:00 17.84167 C 13.01 g/m*3 17.84 C 7.25833 km/h
300 10-08-2015 21:00:00 17.23333 C 12.78 g/m*3 17.23 C 7.65 km/h
Sensor: Nr:Datum:Temp:Abs-Feuchte:Windchill:Wind:
Aussen-T/F 301 10-08-2015 22:00:00 17.20833 C 12.89 g/m*3 17.21 C 5.08333 km/h
302 10-08-2015 23:00:00 17.225 C 12.97 g/m*3 17.23 C 2.4 km/h
303 11-08-2015 00:00:00 17.50833 C 13.16 g/m*3 17.51 C 0.8 km/h
304 11-08-2015 01:00:00 17.575 C 13.18 g/m*3 17.58 C 1.2 km/h
305 11-08-2015 02:00:00 17.425 C 13.06 g/m*3 17.43 C 1.73333 km/h
306 11-08-2015 03:00:00 17.40833 C 13.02 g/m*3 17.41 C 2.80833 km/h
307 11-08-2015 04:00:00 17.38333 C 13.14 g/m*3 17.38 C 0.13333 km/h
308 11-08-2015 05:00:00 17.36667 C 13.13 g/m*3 17.37 C 0.4 km/h
309 11-08-2015 06:00:00 17.15833 C 12.88 g/m*3 17.16 C 2.66667 km/h
310 11-08-2015 07:00:00 17.58333 C 13.14 g/m*3 17.58 C 0.13333 km/h
311 11-08-2015 08:00:00 18.175 C 13.45 g/m*3 18.18 C 1.06667 km/h
312 11-08-2015 09:00:00 19.11667 C 13.63 g/m*3 19.12 C 2.93333 km/h
313 11-08-2015 10:00:00 20.875 C 13.79 g/m*3 20.88 C 3.33333 km/h
314 11-08-2015 11:00:00 22.875 C 13.88 g/m*3 22.88 C 6.43333 km/h
315 11-08-2015 12:00:00 25.04167 C 14.54 g/m*3 25.04 C 9.95 km/h
316 11-08-2015 13:00:00 26.11667 C 14.89 g/m*3 26.12 C 10.48333 km/h
317 11-08-2015 14:00:00 27.475 C 13.8 g/m*3 27.48 C 12.09167 km/h
318 11-08-2015 15:00:00 27.24167 C 14.04 g/m*3 27.24 C 10.89167 km/h
319 11-08-2015 16:00:00 27.56667 C 15.31 g/m*3 27.57 C 11.96667 km/h
320 11-08-2015 17:00:00 28.24167 C 15.75 g/m*3 28.24 C 9.29167 km/h
321 11-08-2015 18:00:00 27.76667 C 15.73 g/m*3 27.77 C 10.49167 km/h
322 11-08-2015 19:00:00 25.9 C 15.23 g/m*3 25.9 C 9.14167 km/h
323 11-08-2015 20:00:00 24.4 C 15.21 g/m*3 24.4 C 4.29167 km/h
324 11-08-2015 21:00:00 23.15833 C 15.31 g/m*3 23.16 C 2.53333 km/h
325 11-08-2015 22:00:00 22.18333 C 15.09 g/m*3 22.18 C 1.2 km/h
Sensor: Nr:Datum:Temp:Abs-Feuchte:Windchill:Wind:
Aussen-T/F 326 11-08-2015 23:00:00 20.53333 C 14.75 g/m*3 20.53 C 0.13333 km/h
327 12-08-2015 00:00:00 20.46667 C 14.84 g/m*3 20.47 C 0 km/h
328 12-08-2015 01:00:00 19.975 C 14.48 g/m*3 19.98 C 0 km/h
329 12-08-2015 02:00:00 19.075 C 14.19 g/m*3 19.08 C 0 km/h
330 12-08-2015 03:00:00 18.35833 C 13.98 g/m*3 18.36 C 0 km/h
331 12-08-2015 04:00:00 17.73333 C 13.78 g/m*3 17.73 C 0 km/h
332 12-08-2015 05:00:00 17.325 C 13.62 g/m*3 17.33 C 0 km/h
333 12-08-2015 06:00:00 17.11667 C 13.59 g/m*3 17.12 C 0 km/h
334 12-08-2015 07:00:00 17.50833 C 14 g/m*3 17.51 C 0 km/h
335 12-08-2015 08:00:00 18.96667 C 14.87 g/m*3 18.97 C 0 km/h
336 12-08-2015 09:00:00 20.35 C 15.17 g/m*3 20.35 C 0.66667 km/h
337 12-08-2015 10:00:00 21.40833 C 15.47 g/m*3 21.41 C 0.53333 km/h
338 12-08-2015 11:00:00 22.44167 C 15.79 g/m*3 22.44 C 3.2 km/h
339 12-08-2015 12:00:00 24.125 C 16.1 g/m*3 24.13 C 4.94167 km/h
340 12-08-2015 13:00:00 25.79167 C 16.56 g/m*3 25.79 C 4.80833 km/h
341 12-08-2015 14:00:00 27.55 C 16.98 g/m*3 27.55 C 5.60833 km/h
342 12-08-2015 15:00:00 29.425 C 17.17 g/m*3 29.43 C 6.56667 km/h
343 12-08-2015 16:00:00 30.48333 C 17.04 g/m*3 30.48 C 8.05833 km/h
344 12-08-2015 17:00:00 30.53333 C 16.96 g/m*3 30.53 C 7.1 km/h
345 12-08-2015 18:00:00 29.84167 C 17.31 g/m*3 29.84 C 8.06667 km/h
346 12-08-2015 19:00:00 29.425 C 17.54 g/m*3 29.43 C 8.08333 km/h
347 12-08-2015 20:00:00 27.05 C 17.46 g/m*3 27.05 C 5.35 km/h
348 12-08-2015 21:00:00 24.30833 C 17.25 g/m*3 24.31 C 1.075 km/h
349 12-08-2015 22:00:00 23.06667 C 17.09 g/m*3 23.07 C 0.93333 km/h
350 12-08-2015 23:00:00 22.05 C 16.82 g/m*3 22.05 C 0 km/h
Sensor: Nr:Datum:Temp:Abs-Feuchte:Windchill:Wind:
Aussen-T/F 351 13-08-2015 00:00:00 21.225 C 16.55 g/m*3 21.23 C 0 km/h
352 13-08-2015 01:00:00 20.525 C 16.11 g/m*3 20.53 C 0 km/h
353 13-08-2015 02:00:00 19.60833 C 15.5 g/m*3 19.61 C 0 km/h
354 13-08-2015 03:00:00 19.00833 C 15 g/m*3 19.01 C 0 km/h
355 13-08-2015 04:00:00 18.51667 C 14.58 g/m*3 18.52 C 0 km/h
356 13-08-2015 05:00:00 18 C 14.22 g/m*3 18 C 0.13333 km/h
357 13-08-2015 06:00:00 17.8 C 14.12 g/m*3 17.8 C 0 km/h
358 13-08-2015 07:00:00 17.93333 C 14.19 g/m*3 17.93 C 0 km/h
359 13-08-2015 08:00:00 18.775 C 14.73 g/m*3 18.77 C 0 km/h
360 13-08-2015 09:00:00 20.425 C 15.35 g/m*3 20.43 C 0.53333 km/h
361 13-08-2015 10:00:00 23.025 C 15.68 g/m*3 23.03 C 3.46667 km/h
362 13-08-2015 11:00:00 26.025 C 16.19 g/m*3 26.03 C 5.75833 km/h
363 13-08-2015 12:00:00 28.85833 C 16.46 g/m*3 28.86 C 7.26667 km/h
364 13-08-2015 13:00:00 31.575 C 16.47 g/m*3 31.58 C 7.66667 km/h
365 13-08-2015 14:00:00 33.35833 C 16.2 g/m*3 33.36 C 10.225 km/h
366 13-08-2015 15:00:00 33.89167 C 15.76 g/m*3 33.89 C 8.60833 km/h
367 13-08-2015 16:00:00 33.28333 C 16.17 g/m*3 33.28 C 7.79167 km/h
368 13-08-2015 17:00:00 34.26667 C 16.11 g/m*3 34.27 C 14.76667 km/h
369 13-08-2015 18:00:00 34.50833 C 15.57 g/m*3 34.51 C 10.48333 km/h
370 13-08-2015 19:00:00 31.68333 C 17.07 g/m*3 31.68 C 2.55 km/h
371 13-08-2015 20:00:00 27.34167 C 16.76 g/m*3 27.34 C 0.93333 km/h
372 13-08-2015 21:00:00 26.50833 C 16.84 g/m*3 26.51 C 0.8 km/h
373 13-08-2015 22:00:00 26.75 C 16.69 g/m*3 26.75 C 3.625 km/h
374 13-08-2015 23:00:00 24.85833 C 16.69 g/m*3 24.86 C 0.13333 km/h
375 14-08-2015 00:00:00 25.09167 C 15.87 g/m*3 25.09 C 10.18333 km/h
Sensor: Nr:Datum:Temp:Abs-Feuchte:Windchill:Wind:
Aussen-T/F 376 14-08-2015 01:00:00 23.96667 C 15.18 g/m*3 23.97 C 17.175 km/h
377 14-08-2015 02:00:00 22.31667 C 15.73 g/m*3 22.32 C 9.4 km/h
378 14-08-2015 03:00:00 21.95 C 15.59 g/m*3 21.95 C 2.95 km/h
379 14-08-2015 04:00:00 21.13333 C 15.61 g/m*3 21.13 C 0.4 km/h
380 14-08-2015 05:00:00 20.09167 C 15.52 g/m*3 20.09 C 0.13333 km/h
381 14-08-2015 06:00:00 19.775 C 15.35 g/m*3 19.77 C 0.93333 km/h
382 14-08-2015 07:00:00 19.96667 C 15.52 g/m*3 19.97 C 0.13333 km/h
383 14-08-2015 08:00:00 20.98333 C 15.94 g/m*3 20.98 C 3.075 km/h
384 14-08-2015 09:00:00 22.225 C 15.58 g/m*3 22.23 C 9.26667 km/h
385 14-08-2015 10:00:00 22.61667 C 15.37 g/m*3 22.62 C 13.56667 km/h
386 14-08-2015 11:00:00 22.95833 C 15.55 g/m*3 22.96 C 9.00833 km/h
387 14-08-2015 12:00:00 25.19167 C 15.47 g/m*3 25.19 C 9.55833 km/h
388 14-08-2015 13:00:00 26.61667 C 15.24 g/m*3 26.62 C 12.76667 km/h
389 14-08-2015 14:00:00 27.44167 C 14.88 g/m*3 27.44 C 12.1 km/h
390 14-08-2015 15:00:00 28.14167 C 14.73 g/m*3 28.14 C 9.55 km/h
391 14-08-2015 16:00:00 28.61667 C 14.32 g/m*3 28.62 C 10.475 km/h
392 14-08-2015 17:00:00 28.95 C 14.25 g/m*3 28.95 C 10.9 km/h
393 14-08-2015 18:00:00 28.98333 C 13.77 g/m*3 28.98 C 11.025 km/h
394 14-08-2015 19:00:00 28.475 C 13.44 g/m*3 28.48 C 6.98333 km/h
395 14-08-2015 20:00:00 26.975 C 13.71 g/m*3 26.98 C 1.6 km/h
396 14-08-2015 21:00:00 23.675 C 13.95 g/m*3 23.68 C 0.13333 km/h
397 14-08-2015 22:00:00 22.26667 C 13.76 g/m*3 22.27 C 0 km/h
398 14-08-2015 23:00:00 21.76667 C 13.6 g/m*3 21.77 C 0.66667 km/h
399 15-08-2015 00:00:00 21.44167 C 13.64 g/m*3 21.44 C 2.14167 km/h
400 15-08-2015 01:00:00 21.04167 C 13.57 g/m*3 21.04 C 1.86667 km/h
Sensor: Nr:Datum:Temp:Abs-Feuchte:Windchill:Wind:
Aussen-T/F 401 15-08-2015 02:00:00 20.11667 C 13.11 g/m*3 20.12 C 1.33333 km/h
402 15-08-2015 03:00:00 19.23333 C 12.82 g/m*3 19.23 C 1.6 km/h
403 15-08-2015 04:00:00 18.40833 C 12.81 g/m*3 18.41 C 0.26667 km/h
404 15-08-2015 05:00:00 18.30833 C 12.92 g/m*3 18.31 C 2.13333 km/h
405 15-08-2015 06:00:00 17.95 C 12.98 g/m*3 17.95 C 0 km/h
406 15-08-2015 07:00:00 17.28333 C 12.89 g/m*3 17.28 C 0 km/h
407 15-08-2015 08:00:00 17.69167 C 13.13 g/m*3 17.69 C 0.26667 km/h
408 15-08-2015 09:00:00 19.35 C 13.71 g/m*3 19.35 C 2.4 km/h
409 15-08-2015 10:00:00 21.63333 C 13.24 g/m*3 21.63 C 5.60833 km/h
410 15-08-2015 11:00:00 22.9 C 12.93 g/m*3 22.9 C 7.90833 km/h
411 15-08-2015 12:00:00 22.85833 C 13.05 g/m*3 22.86 C 10.475 km/h
412 15-08-2015 13:00:00 23.775 C 13 g/m*3 23.78 C 13.56667 km/h
413 15-08-2015 14:00:00 23.71667 C 13.18 g/m*3 23.72 C 14.63333 km/h
414 15-08-2015 15:00:00 23.30833 C 12.81 g/m*3 23.31 C 11.53333 km/h
415 15-08-2015 16:00:00 23.84167 C 12.36 g/m*3 23.84 C 10.88333 km/h
416 15-08-2015 17:00:00 23.78333 C 12.48 g/m*3 23.78 C 8.19167 km/h
417 15-08-2015 18:00:00 23.44167 C 13.03 g/m*3 23.44 C 8.19167 km/h
418 15-08-2015 19:00:00 22.6 C 13.07 g/m*3 22.6 C 5.61667 km/h
419 15-08-2015 20:00:00 21.1 C 13.11 g/m*3 21.1 C 9.275 km/h
420 15-08-2015 21:00:00 19.75 C 13.14 g/m*3 19.75 C 2.4 km/h
421 15-08-2015 22:00:00 19.075 C 13.04 g/m*3 19.08 C 4.29167 km/h
422 15-08-2015 23:00:00 18.10833 C 12.71 g/m*3 18.11 C 8.74167 km/h
423 16-08-2015 00:00:00 17.68333 C 12.36 g/m*3 17.68 C 7.64167 km/h
424 16-08-2015 01:00:00 17.30833 C 12.29 g/m*3 17.31 C 7.23333 km/h
425 16-08-2015 02:00:00 17.13333 C 12.2 g/m*3 17.13 C 7.79167 km/h
Sensor: Nr:Datum:Temp:Abs-Feuchte:Windchill:Wind:
Aussen-T/F 426 16-08-2015 03:00:00 17.05833 C 12.2 g/m*3 17.06 C 6.83333 km/h
427 16-08-2015 04:00:00 16.88333 C 12.21 g/m*3 16.88 C 8.60833 km/h
428 16-08-2015 05:00:00 16.81667 C 12.16 g/m*3 16.82 C 9.41667 km/h
429 16-08-2015 06:00:00 16.45833 C 12.23 g/m*3 16.46 C 9.15 km/h
430 16-08-2015 07:00:00 15.93333 C 12.41 g/m*3 15.93 C 3.86667 km/h
431 16-08-2015 08:00:00 15.71667 C 12.38 g/m*3 15.72 C 6.175 km/h
432 16-08-2015 09:00:00 15.7 C 12.34 g/m*3 15.7 C 5.49167 km/h
433 16-08-2015 10:00:00 15.76667 C 12.39 g/m*3 15.77 C 7.25 km/h
434 16-08-2015 11:00:00 15.86667 C 12.37 g/m*3 15.87 C 7.375 km/h
435 16-08-2015 12:00:00 15.80833 C 12.26 g/m*3 15.81 C 7.24167 km/h
436 16-08-2015 13:00:00 15.90833 C 12.13 g/m*3 15.91 C 8.04167 km/h
437 16-08-2015 14:00:00 15.725 C 12.12 g/m*3 15.73 C 6.43333 km/h
438 16-08-2015 15:00:00 15.79167 C 12.28 g/m*3 15.79 C 5.9 km/h
439 16-08-2015 16:00:00 15.79167 C 12.47 g/m*3 15.79 C 3.60833 km/h
440 16-08-2015 17:00:00 15.375 C 12.2 g/m*3 15.38 C 4.41667 km/h
441 16-08-2015 18:00:00 15.25 C 12.14 g/m*3 15.25 C 3.88333 km/h
442 16-08-2015 19:00:00 15.075 C 11.98 g/m*3 15.08 C 4.15833 km/h
443 16-08-2015 20:00:00 14.59167 C 11.57 g/m*3 14.59 C 4.55 km/h
444 16-08-2015 21:00:00 14.34167 C 11.49 g/m*3 14.34 C 4.95833 km/h
445 16-08-2015 22:00:00 14.275 C 11.49 g/m*3 14.28 C 2.4 km/h
446 16-08-2015 23:00:00 14.33333 C 11.53 g/m*3 14.33 C 4.15 km/h
447 17-08-2015 00:00:00 14.43333 C 11.49 g/m*3 14.43 C 6.04167 km/h
448 17-08-2015 01:00:00 14.425 C 11.42 g/m*3 14.43 C 6.15833 km/h
449 17-08-2015 02:00:00 14.375 C 11.34 g/m*3 14.38 C 6.43333 km/h
450 17-08-2015 03:00:00 14.3 C 11.22 g/m*3 14.3 C 5.76667 km/h
Sensor: Nr:Datum:Temp:Abs-Feuchte:Windchill:Wind:
Aussen-T/F 451 17-08-2015 04:00:00 14.3 C 11.11 g/m*3 14.3 C 7.525 km/h
452 17-08-2015 05:00:00 14.25833 C 11.03 g/m*3 14.26 C 7.1 km/h
453 17-08-2015 06:00:00 14.125 C 10.94 g/m*3 14.13 C 7.525 km/h
454 17-08-2015 07:00:00 14.18333 C 10.98 g/m*3 14.18 C 3.875 km/h
455 17-08-2015 08:00:00 14.26667 C 10.99 g/m*3 14.27 C 6.15833 km/h
456 17-08-2015 09:00:00 14.6 C 11.24 g/m*3 14.6 C 4.26667 km/h
457 17-08-2015 10:00:00 14.78333 C 11.51 g/m*3 14.78 C 4.84167 km/h
458 17-08-2015 11:00:00 15.80833 C 11.56 g/m*3 15.81 C 7.25 km/h
459 17-08-2015 12:00:00 16.05833 C 11.63 g/m*3 16.06 C 8.2 km/h
460 17-08-2015 13:00:00 15.90833 C 11.65 g/m*3 15.91 C 7.79167 km/h
461 17-08-2015 14:00:00 15.86667 C 11.78 g/m*3 15.87 C 4.425 km/h
462 17-08-2015 15:00:00 15.85 C 11.8 g/m*3 15.85 C 5.49167 km/h
463 17-08-2015 16:00:00 15.50833 C 11.87 g/m*3 15.51 C 4.00833 km/h
464 17-08-2015 17:00:00 15.35833 C 11.9 g/m*3 15.36 C 0.8 km/h
465 17-08-2015 18:00:00 14.95833 C 11.79 g/m*3 14.96 C 0.8 km/h
466 17-08-2015 19:00:00 14.6 C 11.75 g/m*3 14.6 C 0.26667 km/h
467 17-08-2015 20:00:00 14.325 C 11.63 g/m*3 14.33 C 0 km/h
468 17-08-2015 21:00:00 14.24167 C 11.63 g/m*3 14.24 C 0 km/h
469 17-08-2015 22:00:00 14.2 C 11.64 g/m*3 14.2 C 0.13333 km/h
470 17-08-2015 23:00:00 14.2 C 11.68 g/m*3 14.2 C 0 km/h
471 18-08-2015 00:00:00 14.075 C 11.63 g/m*3 14.08 C 0 km/h
472 18-08-2015 01:00:00 13.91667 C 11.52 g/m*3 13.92 C 0 km/h
473 18-08-2015 02:00:00 13.84167 C 11.42 g/m*3 13.84 C 0 km/h
474 18-08-2015 03:00:00 13.625 C 11.2 g/m*3 13.63 C 0 km/h
475 18-08-2015 04:00:00 13.66667 C 11.06 g/m*3 13.67 C 0 km/h
Sensor: Nr:Datum:Temp:Abs-Feuchte:Windchill:Wind:
Aussen-T/F 476 18-08-2015 05:00:00 13.54167 C 11.08 g/m*3 13.54 C 0 km/h
477 18-08-2015 06:00:00 13.56667 C 10.99 g/m*3 13.57 C 1.06667 km/h
478 18-08-2015 07:00:00 13.73333 C 10.95 g/m*3 13.73 C 1.33333 km/h
479 18-08-2015 08:00:00 14.24167 C 10.66 g/m*3 14.24 C 4.14167 km/h
480 18-08-2015 09:00:00 15.05 C 10.74 g/m*3 15.05 C 5.89167 km/h
481 18-08-2015 10:00:00 15.81667 C 10.82 g/m*3 15.82 C 7.925 km/h
482 18-08-2015 11:00:00 16.91667 C 10.94 g/m*3 16.92 C 7.11667 km/h
483 18-08-2015 12:00:00 18.55 C 10.94 g/m*3 18.55 C 9.41667 km/h
484 18-08-2015 13:00:00 19.35 C 10.83 g/m*3 19.35 C 8.34167 km/h
485 18-08-2015 14:00:00 18.875 C 10.58 g/m*3 18.88 C 6.975 km/h
486 18-08-2015 15:00:00 17.95833 C 10.64 g/m*3 17.96 C 3.86667 km/h
487 18-08-2015 16:00:00 18.90833 C 10.81 g/m*3 18.91 C 3.46667 km/h
488 18-08-2015 17:00:00 18.15 C 11.74 g/m*3 18.15 C 0.26667 km/h
489 18-08-2015 18:00:00 17.90833 C 11.75 g/m*3 17.91 C 0.4 km/h
490 18-08-2015 19:00:00 18.21667 C 11.76 g/m*3 18.22 C 1.2 km/h
491 18-08-2015 20:00:00 16.61667 C 11.97 g/m*3 16.62 C 0 km/h
492 18-08-2015 21:00:00 15.51667 C 11.5 g/m*3 15.52 C 0 km/h
493 18-08-2015 22:00:00 14.95833 C 11.02 g/m*3 14.96 C 0.13333 km/h
494 18-08-2015 23:00:00 14.75 C 10.92 g/m*3 14.75 C 0 km/h
495 19-08-2015 00:00:00 14.05833 C 10.47 g/m*3 14.06 C 0 km/h
496 19-08-2015 01:00:00 12.81667 C 9.91 g/m*3 12.82 C 0 km/h
497 19-08-2015 02:00:00 11.93333 C 9.63 g/m*3 11.93 C 0 km/h
498 19-08-2015 03:00:00 11.23333 C 9.39 g/m*3 11.23 C 0 km/h
499 19-08-2015 04:00:00 10.75 C 9.23 g/m*3 10.75 C 0 km/h
500 19-08-2015 05:00:00 10.3 C 9.03 g/m*3 10.3 C 0.13333 km/h
Sensor: Nr:Datum:Temp:Abs-Feuchte:Windchill:Wind:
Aussen-T/F 501 19-08-2015 06:00:00 10.175 C 9.03 g/m*3 10.18 C 0.53333 km/h
502 19-08-2015 07:00:00 10.25 C 9.13 g/m*3 10.25 C 1.2 km/h
503 19-08-2015 08:00:00 10.86667 C 9.52 g/m*3 10.87 C 2.93333 km/h
504 19-08-2015 09:00:00 11.69167 C 9.92 g/m*3 11.69 C 1.46667 km/h
505 19-08-2015 10:00:00 13.48333 C 10.34 g/m*3 13.48 C 2 km/h
506 19-08-2015 11:00:00 15.85833 C 11.1 g/m*3 15.86 C 2.53333 km/h
507 19-08-2015 12:00:00 18.56667 C 10.91 g/m*3 18.57 C 6.3 km/h
508 19-08-2015 13:00:00 21.025 C 10.27 g/m*3 21.03 C 6.70833 km/h
509 19-08-2015 14:00:00 22.3 C 9.56 g/m*3 22.3 C 7.65833 km/h
510 19-08-2015 15:00:00 22.80833 C 9.4 g/m*3 22.81 C 8.325 km/h
511 19-08-2015 16:00:00 21.60833 C 9.66 g/m*3 21.61 C 7.8 km/h
512 19-08-2015 17:00:00 21.275 C 9.85 g/m*3 21.28 C 4 km/h
513 19-08-2015 18:00:00 21.16667 C 10.19 g/m*3 21.17 C 4.13333 km/h
514 19-08-2015 19:00:00 19.13333 C 11.92 g/m*3 19.13 C 0.26667 km/h
515 19-08-2015 20:00:00 17.38333 C 11.66 g/m*3 17.38 C 0 km/h
516 19-08-2015 21:00:00 16.575 C 11.4 g/m*3 16.58 C 0 km/h
517 19-08-2015 22:00:00 16.15833 C 11.34 g/m*3 16.16 C 0 km/h
518 19-08-2015 23:00:00 15.74167 C 11.32 g/m*3 15.74 C 0 km/h
519 20-08-2015 00:00:00 15.01667 C 10.79 g/m*3 15.02 C 0 km/h
520 20-08-2015 01:00:00 14.28333 C 10.52 g/m*3 14.28 C 0 km/h
521 20-08-2015 02:00:00 14.26667 C 10.64 g/m*3 14.27 C 0 km/h
522 20-08-2015 03:00:00 14.225 C 10.67 g/m*3 14.23 C 0 km/h
523 20-08-2015 04:00:00 14.05 C 10.71 g/m*3 14.05 C 0 km/h
524 20-08-2015 05:00:00 13.70833 C 10.64 g/m*3 13.71 C 0 km/h
525 20-08-2015 06:00:00 13.44167 C 10.49 g/m*3 13.44 C 0.13333 km/h
Sensor: Nr:Datum:Temp:Abs-Feuchte:Windchill:Wind:
Aussen-T/F 526 20-08-2015 07:00:00 13.60833 C 10.64 g/m*3 13.61 C 0.66667 km/h
527 20-08-2015 08:00:00 14.1 C 10.79 g/m*3 14.1 C 4.94167 km/h
528 20-08-2015 09:00:00 14.89167 C 10.92 g/m*3 14.89 C 3.46667 km/h
529 20-08-2015 10:00:00 16.08333 C 11.15 g/m*3 16.08 C 0.4 km/h
530 20-08-2015 11:00:00 18.45 C 12.12 g/m*3 18.45 C 1.2 km/h
531 20-08-2015 12:00:00 21.61667 C 11.09 g/m*3 21.62 C 4.26667 km/h
532 20-08-2015 13:00:00 24.83333 C 10.45 g/m*3 24.83 C 5.475 km/h
533 20-08-2015 14:00:00 25.51667 C 9.95 g/m*3 25.52 C 7.11667 km/h
534 20-08-2015 15:00:00 25.4 C 10.04 g/m*3 25.4 C 4.29167 km/h
535 20-08-2015 16:00:00 24.35833 C 11.08 g/m*3 24.36 C 3.75 km/h
536 20-08-2015 17:00:00 22.61667 C 12.48 g/m*3 22.62 C 1.2 km/h
537 20-08-2015 18:00:00 22.7 C 12.16 g/m*3 22.7 C 2.4 km/h
538 20-08-2015 19:00:00 21.15833 C 13 g/m*3 21.16 C 0.93333 km/h
539 20-08-2015 20:00:00 19.38333 C 12.45 g/m*3 19.38 C 0 km/h
540 20-08-2015 21:00:00 18.06667 C 11.9 g/m*3 18.07 C 0 km/h
541 20-08-2015 22:00:00 16.69167 C 11.2 g/m*3 16.69 C 0 km/h
542 20-08-2015 23:00:00 16.025 C 10.92 g/m*3 16.02 C 0 km/h
543 21-08-2015 00:00:00 15.225 C 10.51 g/m*3 15.23 C 0.26667 km/h
544 21-08-2015 01:00:00 14.53333 C 10.31 g/m*3 14.53 C 0 km/h
545 21-08-2015 02:00:00 13.78333 C 10.24 g/m*3 13.78 C 0 km/h
546 21-08-2015 03:00:00 13.19167 C 10.16 g/m*3 13.19 C 0 km/h
547 21-08-2015 04:00:00 12.65833 C 10.06 g/m*3 12.66 C 0 km/h
548 21-08-2015 05:00:00 12.225 C 9.97 g/m*3 12.23 C 0 km/h
549 21-08-2015 06:00:00 11.89167 C 9.91 g/m*3 11.89 C 0 km/h
550 21-08-2015 07:00:00 11.94167 C 9.99 g/m*3 11.94 C 0 km/h
Sensor: Nr:Datum:Temp:Abs-Feuchte:Windchill:Wind:
Aussen-T/F 551 21-08-2015 08:00:00 12.65 C 10.52 g/m*3 12.65 C 0 km/h
552 21-08-2015 09:00:00 14.16667 C 11.34 g/m*3 14.17 C 0 km/h
553 21-08-2015 10:00:00 16.525 C 12.35 g/m*3 16.52 C 0.4 km/h
554 21-08-2015 11:00:00 20.01667 C 12.71 g/m*3 20.02 C 6.05 km/h
555 21-08-2015 12:00:00 22.65833 C 12.3 g/m*3 22.66 C 6.44167 km/h
556 21-08-2015 13:00:00 25.625 C 11.64 g/m*3 25.63 C 7.925 km/h
557 21-08-2015 14:00:00 26.76667 C 10.54 g/m*3 26.77 C 7.50833 km/h
558 21-08-2015 15:00:00 27.16667 C 10.24 g/m*3 27.17 C 6.15833 km/h
559 21-08-2015 16:00:00 27.54167 C 10.74 g/m*3 27.54 C 8.60833 km/h
560 21-08-2015 17:00:00 27.64167 C 10.53 g/m*3 27.64 C 10.49167 km/h
561 21-08-2015 18:00:00 27.55833 C 10.35 g/m*3 27.56 C 6.175 km/h
562 21-08-2015 19:00:00 25.50833 C 11.37 g/m*3 25.51 C 2.66667 km/h
563 21-08-2015 20:00:00 20.84167 C 11.03 g/m*3 20.84 C 1.73333 km/h
564 21-08-2015 21:00:00 18.70833 C 10.29 g/m*3 18.71 C 1.33333 km/h
565 21-08-2015 22:00:00 17.61667 C 10.5 g/m*3 17.62 C 0.26667 km/h
566 21-08-2015 23:00:00 16.14167 C 10.17 g/m*3 16.14 C 0 km/h
567 22-08-2015 00:00:00 14.95833 C 9.9 g/m*3 14.96 C 0 km/h
568 22-08-2015 01:00:00 14.075 C 9.7 g/m*3 14.08 C 0 km/h
569 22-08-2015 02:00:00 13.51667 C 9.59 g/m*3 13.52 C 0 km/h
570 22-08-2015 03:00:00 12.84167 C 9.44 g/m*3 12.84 C 0 km/h
571 22-08-2015 04:00:00 12.21667 C 9.37 g/m*3 12.22 C 0 km/h
572 22-08-2015 05:00:00 11.725 C 9.29 g/m*3 11.73 C 0 km/h
573 22-08-2015 06:00:00 11.25 C 9.23 g/m*3 11.25 C 0 km/h
574 22-08-2015 07:00:00 11.30833 C 9.41 g/m*3 11.31 C 0 km/h
575 22-08-2015 08:00:00 12.05 C 9.84 g/m*3 12.05 C 0 km/h
Sensor: Nr:Datum:Temp:Abs-Feuchte:Windchill:Wind:
Aussen-T/F 576 22-08-2015 09:00:00 13.60833 C 10.6 g/m*3 13.61 C 0.13333 km/h
577 22-08-2015 10:00:00 15.96667 C 11.59 g/m*3 15.97 C 0.26667 km/h
578 22-08-2015 11:00:00 19.54167 C 12 g/m*3 19.54 C 3.61667 km/h
579 22-08-2015 12:00:00 24.08333 C 11.09 g/m*3 24.08 C 7.80833 km/h
580 22-08-2015 13:00:00 26.74167 C 10.42 g/m*3 26.74 C 7.24167 km/h
581 22-08-2015 14:00:00 27.35 C 9.75 g/m*3 27.35 C 9.94167 km/h
582 22-08-2015 15:00:00 28.61667 C 9.19 g/m*3 28.62 C 8.6 km/h
583 22-08-2015 16:00:00 29.2 C 8.78 g/m*3 29.2 C 9.425 km/h
584 22-08-2015 17:00:00 27.95833 C 8.55 g/m*3 27.96 C 8.33333 km/h
585 22-08-2015 18:00:00 27.95 C 8.7 g/m*3 27.95 C 6.71667 km/h
586 22-08-2015 19:00:00 26.48333 C 9.42 g/m*3 26.48 C 2.8 km/h
587 22-08-2015 20:00:00 21.70833 C 10.02 g/m*3 21.71 C 1.2 km/h
588 22-08-2015 21:00:00 19.6 C 9.14 g/m*3 19.6 C 1.6 km/h
589 22-08-2015 22:00:00 18.33333 C 9.28 g/m*3 18.33 C 0.13333 km/h
590 22-08-2015 23:00:00 17.49167 C 9.39 g/m*3 17.49 C 0 km/h
591 23-08-2015 00:00:00 16.75833 C 9.64 g/m*3 16.76 C 0 km/h
592 23-08-2015 01:00:00 16.15833 C 9.61 g/m*3 16.16 C 0 km/h
593 23-08-2015 02:00:00 15.7 C 9.62 g/m*3 15.7 C 0 km/h
594 23-08-2015 03:00:00 15.09167 C 9.52 g/m*3 15.09 C 0 km/h
595 23-08-2015 04:00:00 14.71667 C 9.38 g/m*3 14.72 C 0 km/h
596 23-08-2015 05:00:00 14.30833 C 9.3 g/m*3 14.31 C 0 km/h
597 23-08-2015 06:00:00 13.90833 C 9.25 g/m*3 13.91 C 0 km/h
598 23-08-2015 07:00:00 13.81667 C 9.41 g/m*3 13.82 C 0 km/h
599 23-08-2015 08:00:00 14.125 C 9.82 g/m*3 14.13 C 0 km/h
600 23-08-2015 09:00:00 15.50833 C 10.27 g/m*3 15.51 C 0 km/h
Sensor: Nr:Datum:Temp:Abs-Feuchte:Windchill:Wind:
Aussen-T/F 601 23-08-2015 10:00:00 18.23333 C 10.68 g/m*3 18.23 C 3.06667 km/h
602 23-08-2015 11:00:00 22.325 C 9.95 g/m*3 22.33 C 8.6 km/h
603 23-08-2015 12:00:00 25.65 C 8.42 g/m*3 25.65 C 12.36667 km/h
604 23-08-2015 13:00:00 27.54167 C 8.26 g/m*3 27.54 C 10.21667 km/h
605 23-08-2015 14:00:00 28.61667 C 8.3 g/m*3 28.62 C 10.49167 km/h
606 23-08-2015 15:00:00 27.85833 C 8.48 g/m*3 27.86 C 9.95 km/h
607 23-08-2015 16:00:00 27.25833 C 8.88 g/m*3 27.26 C 8.875 km/h
608 23-08-2015 17:00:00 27 C 9.05 g/m*3 27 C 6.44167 km/h
609 23-08-2015 18:00:00 25.63333 C 10.06 g/m*3 25.63 C 4.01667 km/h
610 23-08-2015 19:00:00 23.05833 C 13.04 g/m*3 23.06 C 10.20833 km/h
611 23-08-2015 20:00:00 20.275 C 14.09 g/m*3 20.27 C 4.96667 km/h
612 23-08-2015 21:00:00 18.39167 C 14.44 g/m*3 18.39 C 0 km/h
613 23-08-2015 22:00:00 17.95 C 14.43 g/m*3 17.95 C 0.13333 km/h
614 23-08-2015 23:00:00 17.65 C 14.29 g/m*3 17.65 C 0 km/h
615 24-08-2015 00:00:00 17.48333 C 14.27 g/m*3 17.48 C 0 km/h
616 24-08-2015 01:00:00 17.29167 C 14.14 g/m*3 17.29 C 0 km/h
617 24-08-2015 02:00:00 17.05 C 13.93 g/m*3 17.05 C 0.53333 km/h
618 24-08-2015 03:00:00 16.88333 C 13.79 g/m*3 16.88 C 0 km/h
619 24-08-2015 04:00:00 16.85 C 13.77 g/m*3 16.85 C 1.2 km/h
620 24-08-2015 05:00:00 16.33333 C 13.35 g/m*3 16.33 C 0.4 km/h
621 24-08-2015 06:00:00 15.63333 C 12.79 g/m*3 15.63 C 0 km/h
622 24-08-2015 07:00:00 15.30833 C 12.61 g/m*3 15.31 C 0 km/h
623 24-08-2015 08:00:00 16.43333 C 13.57 g/m*3 16.43 C 0.26667 km/h
624 24-08-2015 09:00:00 17.35 C 14.17 g/m*3 17.35 C 0.4 km/h
625 24-08-2015 10:00:00 18.96667 C 14.5 g/m*3 18.97 C 3.88333 km/h
Sensor: Nr:Datum:Temp:Abs-Feuchte:Windchill:Wind:
Aussen-T/F 626 24-08-2015 11:00:00 20.825 C 14.91 g/m*3 20.83 C 7.79167 km/h
627 24-08-2015 12:00:00 22.275 C 15.13 g/m*3 22.28 C 4.93333 km/h
628 24-08-2015 13:00:00 21.75 C 16.05 g/m*3 21.75 C 5.475 km/h
629 24-08-2015 14:00:00 21.35833 C 15.69 g/m*3 21.36 C 4.00833 km/h
630 24-08-2015 15:00:00 21.91667 C 15.42 g/m*3 21.92 C 5.74167 km/h
631 24-08-2015 16:00:00 23.75 C 14.43 g/m*3 23.75 C 8.86667 km/h
632 24-08-2015 17:00:00 24.14167 C 12.67 g/m*3 24.14 C 11.53333 km/h
633 24-08-2015 18:00:00 23.75833 C 12.82 g/m*3 23.76 C 10.61667 km/h
634 24-08-2015 19:00:00 22.20833 C 12.21 g/m*3 22.21 C 9.25833 km/h
635 24-08-2015 20:00:00 20.15 C 11.67 g/m*3 20.15 C 6.43333 km/h
636 24-08-2015 21:00:00 19.01667 C 11.66 g/m*3 19.02 C 5.49167 km/h
637 24-08-2015 22:00:00 18.76667 C 11.97 g/m*3 18.77 C 6.83333 km/h
638 24-08-2015 23:00:00 15.825 C 11.34 g/m*3 15.83 C 3.34167 km/h
639 25-08-2015 00:00:00 14.93333 C 10.65 g/m*3 14.93 C 5.08333 km/h
640 25-08-2015 01:00:00 16.01667 C 10.08 g/m*3 16.02 C 9.40833 km/h
641 25-08-2015 02:00:00 16.65833 C 9.32 g/m*3 16.66 C 15.7 km/h
642 25-08-2015 03:00:00 16.075 C 9.28 g/m*3 16.08 C 17.16667 km/h
643 25-08-2015 04:00:00 14.625 C 10.09 g/m*3 14.63 C 16.1 km/h
644 25-08-2015 05:00:00 14.55833 C 10.3 g/m*3 14.56 C 20.50833 km/h
645 25-08-2015 06:00:00 14.60833 C 10.42 g/m*3 14.61 C 18.775 km/h
646 25-08-2015 07:00:00 14.68333 C 10.54 g/m*3 14.68 C 13.96667 km/h
647 25-08-2015 08:00:00 15.175 C 10.69 g/m*3 15.18 C 15.56667 km/h
648 25-08-2015 09:00:00 16.08333 C 10.84 g/m*3 16.08 C 14.63333 km/h
649 25-08-2015 10:00:00 16.525 C 10.83 g/m*3 16.52 C 16.76667 km/h
650 25-08-2015 11:00:00 16.9 C 10.76 g/m*3 16.9 C 16.5 km/h
Sensor: Nr:Datum:Temp:Abs-Feuchte:Windchill:Wind:
Aussen-T/F 651 25-08-2015 12:00:00 17.64167 C 10.74 g/m*3 17.64 C 18.24167 km/h
652 25-08-2015 13:00:00 18.44167 C 10.63 g/m*3 18.44 C 16.1 km/h
653 25-08-2015 14:00:00 19.95833 C 10.3 g/m*3 19.96 C 15.83333 km/h
654 25-08-2015 15:00:00 21.06667 C 9.55 g/m*3 21.07 C 13.7 km/h
655 25-08-2015 16:00:00 21.48333 C 8.81 g/m*3 21.48 C 14.76667 km/h
656 25-08-2015 17:00:00 22.63333 C 8.3 g/m*3 22.63 C 16.36667 km/h
657 25-08-2015 18:00:00 21.79167 C 7.91 g/m*3 21.79 C 13.95833 km/h
658 25-08-2015 19:00:00 20.26667 C 8.45 g/m*3 20.27 C 4.41667 km/h
659 25-08-2015 20:00:00 17.91667 C 9.9 g/m*3 17.92 C 0.13333 km/h
660 25-08-2015 21:00:00 16.53333 C 9.91 g/m*3 16.53 C 0 km/h
661 25-08-2015 22:00:00 16.74167 C 9.97 g/m*3 16.74 C 0.8 km/h
662 25-08-2015 23:00:00 16.45833 C 10.19 g/m*3 16.46 C 0.66667 km/h
663 26-08-2015 00:00:00 15.59167 C 9.54 g/m*3 15.59 C 0.80833 km/h
664 26-08-2015 01:00:00 14.725 C 9.64 g/m*3 14.73 C 0.26667 km/h
665 26-08-2015 02:00:00 14.55 C 9.78 g/m*3 14.55 C 0.4 km/h
666 26-08-2015 03:00:00 14.36667 C 9.9 g/m*3 14.37 C 0.4 km/h
667 26-08-2015 04:00:00 14.525 C 10.19 g/m*3 14.53 C 0 km/h
668 26-08-2015 05:00:00 15.075 C 10.54 g/m*3 15.08 C 0 km/h
669 26-08-2015 06:00:00 15.25833 C 10.58 g/m*3 15.26 C 0.4 km/h
670 26-08-2015 07:00:00 15.875 C 10.71 g/m*3 15.88 C 1.73333 km/h
671 26-08-2015 08:00:00 16.29167 C 11.12 g/m*3 16.29 C 2 km/h
672 26-08-2015 09:00:00 16.89167 C 11.66 g/m*3 16.89 C 0 km/h
673 26-08-2015 10:00:00 18.725 C 12.12 g/m*3 18.73 C 2.66667 km/h
674 26-08-2015 11:00:00 22.15 C 12.45 g/m*3 22.15 C 7.39167 km/h
675 26-08-2015 12:00:00 24.26667 C 12.3 g/m*3 24.27 C 11.43333 km/h
Sensor: Nr:Datum:Temp:Abs-Feuchte:Windchill:Wind:
Aussen-T/F 676 26-08-2015 13:00:00 26.25833 C 12.21 g/m*3 26.26 C 9.41667 km/h
677 26-08-2015 14:00:00 28.00833 C 11.88 g/m*3 28.01 C 13.56667 km/h
678 26-08-2015 15:00:00 28.84167 C 11.53 g/m*3 28.84 C 11.28333 km/h
679 26-08-2015 16:00:00 29.725 C 11.4 g/m*3 29.73 C 12.89167 km/h
680 26-08-2015 17:00:00 29.60833 C 11.38 g/m*3 29.61 C 8.725 km/h
681 26-08-2015 18:00:00 28.98333 C 11.48 g/m*3 28.98 C 6.15833 km/h
682 26-08-2015 19:00:00 25.85 C 12.61 g/m*3 25.85 C 2.80833 km/h
683 26-08-2015 20:00:00 21.89167 C 12.44 g/m*3 21.89 C 1.06667 km/h
684 26-08-2015 21:00:00 20.53333 C 12.21 g/m*3 20.53 C 0.4 km/h
685 26-08-2015 22:00:00 19.81667 C 12.04 g/m*3 19.82 C 0 km/h
686 26-08-2015 23:00:00 19.34167 C 11.85 g/m*3 19.34 C 0 km/h
687 27-08-2015 00:00:00 18.99167 C 11.74 g/m*3 18.99 C 0 km/h
688 27-08-2015 01:00:00 18.925 C 11.79 g/m*3 18.93 C 0.8 km/h
689 27-08-2015 02:00:00 18.73333 C 11.79 g/m*3 18.73 C 0.4 km/h
690 27-08-2015 03:00:00 18.9 C 12 g/m*3 18.9 C 0 km/h
691 27-08-2015 04:00:00 19.04167 C 12.24 g/m*3 19.04 C 0.26667 km/h
692 27-08-2015 05:00:00 19.00833 C 12.32 g/m*3 19.01 C 1.2 km/h
693 27-08-2015 06:00:00 20.58333 C 12.49 g/m*3 20.58 C 4.95833 km/h
694 27-08-2015 07:00:00 21.63333 C 12.62 g/m*3 21.63 C 4.425 km/h
695 27-08-2015 08:00:00 21.175 C 12.77 g/m*3 21.18 C 5.9 km/h
696 27-08-2015 09:00:00 20.18333 C 12.85 g/m*3 20.18 C 5.89167 km/h
697 27-08-2015 10:00:00 17.45833 C 13.41 g/m*3 17.46 C 0.66667 km/h
698 27-08-2015 11:00:00 17.375 C 13.85 g/m*3 17.38 C 0 km/h
699 27-08-2015 12:00:00 17.96667 C 14.36 g/m*3 17.97 C 1.33333 km/h
700 27-08-2015 13:00:00 19.09167 C 14.73 g/m*3 19.09 C 2.53333 km/h
Sensor: Nr:Datum:Temp:Abs-Feuchte:Windchill:Wind:
Aussen-T/F 701 27-08-2015 14:00:00 19.98333 C 15.15 g/m*3 19.98 C 0.8 km/h
702 27-08-2015 15:00:00 19.94167 C 15.24 g/m*3 19.94 C 1.33333 km/h
703 27-08-2015 16:00:00 20.475 C 15.31 g/m*3 20.48 C 1.86667 km/h
704 27-08-2015 17:00:00 20.38333 C 15.21 g/m*3 20.38 C 5.49167 km/h
705 27-08-2015 18:00:00 18.14167 C 13.89 g/m*3 18.14 C 5.625 km/h
706 27-08-2015 19:00:00 16.375 C 12.88 g/m*3 16.38 C 3.89167 km/h
707 27-08-2015 20:00:00 15.88333 C 12.8 g/m*3 15.88 C 0 km/h
708 27-08-2015 21:00:00 15.85 C 12.83 g/m*3 15.85 C 0.4 km/h
709 27-08-2015 22:00:00 15.45 C 12.52 g/m*3 15.45 C 2.275 km/h
710 27-08-2015 23:00:00 14.96667 C 12.16 g/m*3 14.97 C 1.2 km/h
711 28-08-2015 00:00:00 14.49167 C 11.82 g/m*3 14.49 C 2.53333 km/h
712 28-08-2015 01:00:00 14.225 C 11.69 g/m*3 14.23 C 0.4 km/h
713 28-08-2015 02:00:00 14.10833 C 11.66 g/m*3 14.11 C 0.4 km/h
714 28-08-2015 03:00:00 13.93333 C 11.53 g/m*3 13.93 C 0.93333 km/h
715 28-08-2015 04:00:00 13.89167 C 11.5 g/m*3 13.89 C 0 km/h
716 28-08-2015 05:00:00 13.84167 C 11.57 g/m*3 13.84 C 0 km/h
717 28-08-2015 06:00:00 13.89167 C 11.62 g/m*3 13.89 C 0 km/h
718 28-08-2015 07:00:00 14.025 C 11.72 g/m*3 14.03 C 0 km/h
719 28-08-2015 08:00:00 14.35833 C 11.96 g/m*3 14.36 C 0 km/h
720 28-08-2015 09:00:00 14.975 C 12.4 g/m*3 14.98 C 0.8 km/h
721 28-08-2015 10:00:00 15.71667 C 12.6 g/m*3 15.72 C 1.46667 km/h
722 28-08-2015 11:00:00 16.93333 C 12.61 g/m*3 16.93 C 1.6 km/h
723 28-08-2015 12:00:00 18.14167 C 12.64 g/m*3 18.14 C 2.26667 km/h
724 28-08-2015 13:00:00 18.825 C 12.84 g/m*3 18.83 C 2.93333 km/h
725 28-08-2015 14:00:00 19.10833 C 12.94 g/m*3 19.11 C 2.93333 km/h
Sensor: Nr:Datum:Temp:Abs-Feuchte:Windchill:Wind:
Aussen-T/F 726 28-08-2015 15:00:00 19.94167 C 13.13 g/m*3 19.94 C 3.2 km/h
727 28-08-2015 16:00:00 20.63333 C 13.76 g/m*3 20.63 C 2.8 km/h
728 28-08-2015 17:00:00 21.30833 C 13.68 g/m*3 21.31 C 3.06667 km/h
729 28-08-2015 18:00:00 22.05 C 13.74 g/m*3 22.05 C 3.33333 km/h
730 28-08-2015 19:00:00 18.66667 C 14.09 g/m*3 18.67 C 0 km/h
731 28-08-2015 20:00:00 17.075 C 13.38 g/m*3 17.08 C 0 km/h
732 28-08-2015 21:00:00 16.675 C 13.2 g/m*3 16.68 C 0 km/h
733 28-08-2015 22:00:00 15.95 C 12.71 g/m*3 15.95 C 0 km/h
734 28-08-2015 23:00:00 14.98333 C 12.04 g/m*3 14.98 C 0 km/h
735 29-08-2015 00:00:00 14.225 C 11.57 g/m*3 14.23 C 0 km/h
736 29-08-2015 01:00:00 13.625 C 11.21 g/m*3 13.63 C 0 km/h
737 29-08-2015 02:00:00 13.24167 C 11.05 g/m*3 13.24 C 0 km/h
738 29-08-2015 03:00:00 13.54167 C 11.3 g/m*3 13.54 C 0 km/h
739 29-08-2015 04:00:00 13.75 C 11.47 g/m*3 13.75 C 0.53333 km/h
740 29-08-2015 05:00:00 13.68333 C 11.45 g/m*3 13.68 C 0 km/h
741 29-08-2015 06:00:00 13.90833 C 11.63 g/m*3 13.91 C 0 km/h
742 29-08-2015 07:00:00 14.24167 C 11.87 g/m*3 14.24 C 0 km/h
743 29-08-2015 08:00:00 14.725 C 12.23 g/m*3 14.73 C 0.13333 km/h
744 29-08-2015 09:00:00 15.2 C 12.59 g/m*3 15.2 C 0 km/h
745 29-08-2015 10:00:00 17.475 C 13.77 g/m*3 17.48 C 3.6 km/h
746 29-08-2015 11:00:00 18.525 C 14.45 g/m*3 18.52 C 1.73333 km/h
747 29-08-2015 12:00:00 21.6 C 15.77 g/m*3 21.6 C 4 km/h
748 29-08-2015 13:00:00 25.70833 C 16.77 g/m*3 25.71 C 3.33333 km/h
749 29-08-2015 14:00:00 26.58333 C 17.35 g/m*3 26.58 C 4 km/h
750 29-08-2015 15:00:00 25.94167 C 18.26 g/m*3 25.94 C 1.46667 km/h
Sensor: Nr:Datum:Temp:Abs-Feuchte:Windchill:Wind:
Aussen-T/F 751 29-08-2015 16:00:00 25.69167 C 18.74 g/m*3 25.69 C 2.13333 km/h
752 29-08-2015 17:00:00 27.7 C 18.75 g/m*3 27.7 C 3.06667 km/h
753 29-08-2015 18:00:00 26.15833 C 19.16 g/m*3 26.16 C 1.6 km/h
754 29-08-2015 19:00:00 23.8 C 18.19 g/m*3 23.8 C 0.8 km/h
755 29-08-2015 20:00:00 22.09167 C 17.38 g/m*3 22.09 C 1.6 km/h
756 29-08-2015 21:00:00 21.25 C 16.9 g/m*3 21.25 C 0.26667 km/h
757 29-08-2015 22:00:00 20.66667 C 16.63 g/m*3 20.67 C 0 km/h
758 29-08-2015 23:00:00 20.15 C 16.3 g/m*3 20.15 C 0 km/h
759 30-08-2015 00:00:00 19.59167 C 15.9 g/m*3 19.59 C 0 km/h
760 30-08-2015 01:00:00 19.15833 C 15.63 g/m*3 19.16 C 0 km/h
761 30-08-2015 02:00:00 18.79167 C 15.33 g/m*3 18.79 C 0 km/h
762 30-08-2015 03:00:00 18.31667 C 15 g/m*3 18.32 C 0 km/h
763 30-08-2015 04:00:00 17.9 C 14.66 g/m*3 17.9 C 0 km/h
764 30-08-2015 05:00:00 17.675 C 14.48 g/m*3 17.68 C 0 km/h
765 30-08-2015 06:00:00 17.50833 C 14.42 g/m*3 17.51 C 0 km/h
766 30-08-2015 07:00:00 17.4 C 14.35 g/m*3 17.4 C 0 km/h
767 30-08-2015 08:00:00 18.075 C 14.97 g/m*3 18.08 C 0 km/h
768 30-08-2015 09:00:00 18.61667 C 15.45 g/m*3 18.62 C 0.13333 km/h
769 30-08-2015 10:00:00 19.825 C 16.59 g/m*3 19.83 C 0 km/h
770 30-08-2015 11:00:00 21.55 C 18.27 g/m*3 21.55 C 0.13333 km/h
771 30-08-2015 12:00:00 23.63333 C 19.52 g/m*3 23.63 C 0 km/h
772 30-08-2015 13:00:00 29.09167 C 18.81 g/m*3 29.09 C 7.65 km/h
773 30-08-2015 14:00:00 32.28333 C 16.54 g/m*3 32.28 C 9.95 km/h
774 30-08-2015 15:00:00 32.66667 C 16.79 g/m*3 32.67 C 10.35833 km/h
775 30-08-2015 16:00:00 32.8 C 17.88 g/m*3 32.8 C 8.05 km/h
Sensor: Nr:Datum:Temp:Abs-Feuchte:Windchill:Wind:
Aussen-T/F 776 30-08-2015 17:00:00 31.55 C 17.83 g/m*3 31.55 C 7.11667 km/h
777 30-08-2015 18:00:00 29.675 C 18.72 g/m*3 29.68 C 3.20833 km/h
778 30-08-2015 19:00:00 26.89167 C 18.55 g/m*3 26.89 C 2.53333 km/h
779 30-08-2015 20:00:00 24.7 C 18.09 g/m*3 24.7 C 2.53333 km/h
780 30-08-2015 21:00:00 23.375 C 17.55 g/m*3 23.38 C 0.4 km/h
781 30-08-2015 22:00:00 22.425 C 17.2 g/m*3 22.43 C 0 km/h
782 30-08-2015 23:00:00 21.475 C 16.77 g/m*3 21.48 C 0 km/h
783 31-08-2015 00:00:00 20.64167 C 16.37 g/m*3 20.64 C 0 km/h
784 31-08-2015 01:00:00 20 C 16.14 g/m*3 20 C 0 km/h
785 31-08-2015 02:00:00 19.775 C 16.09 g/m*3 19.77 C 0.4 km/h
786 31-08-2015 03:00:00 19.61667 C 15.95 g/m*3 19.62 C 0 km/h
787 31-08-2015 04:00:00 19.04167 C 15.56 g/m*3 19.04 C 0 km/h
788 31-08-2015 05:00:00 18.54167 C 15.12 g/m*3 18.54 C 0 km/h
789 31-08-2015 06:00:00 17.94167 C 14.66 g/m*3 17.94 C 0.53333 km/h
790 31-08-2015 07:00:00 17.98333 C 14.73 g/m*3 17.98 C 0.8 km/h
791 31-08-2015 08:00:00 18.475 C 15.27 g/m*3 18.48 C 1.6 km/h
792 31-08-2015 09:00:00 18.79167 C 15.52 g/m*3 18.79 C 0 km/h
793 31-08-2015 10:00:00 20.425 C 15.72 g/m*3 20.43 C 3.35 km/h
794 31-08-2015 11:00:00 25.76667 C 13.26 g/m*3 25.77 C 10.35 km/h
795 31-08-2015 12:00:00 28.29167 C 12.96 g/m*3 28.29 C 11.15833 km/h
796 31-08-2015 13:00:00 31.25833 C 12.6 g/m*3 31.26 C 11.3 km/h
797 31-08-2015 14:00:00 32.46667 C 12.4 g/m*3 32.47 C 11.56667 km/h
798 31-08-2015 15:00:00 33.14167 C 11.6 g/m*3 33.14 C 10.23333 km/h
799 31-08-2015 16:00:00 33.775 C 11.4 g/m*3 33.78 C 10.625 km/h
800 31-08-2015 17:00:00 33.66667 C 11.58 g/m*3 33.67 C 13.7 km/h
Sensor: Nr:Datum:Temp:Abs-Feuchte:Windchill:Wind:
Aussen-T/F 801 31-08-2015 18:00:00 31.86667 C 12.37 g/m*3 31.87 C 7.79167 km/h
802 31-08-2015 19:00:00 26.90833 C 14.47 g/m*3 26.91 C 2.4 km/h
803 31-08-2015 20:00:00 24.35 C 14.33 g/m*3 24.35 C 1.2 km/h
804 31-08-2015 21:00:00 23.69167 C 14.07 g/m*3 23.69 C 1.06667 km/h
805 31-08-2015 22:00:00 23.75833 C 14.59 g/m*3 23.76 C 6.725 km/h
806 31-08-2015 23:00:00 22.86667 C 15.01 g/m*3 22.87 C 2.275 km/h
807 01-09-2015 00:00:00 20.80833 C 14.87 g/m*3 20.81 C 0.13333 km/h
808 01-09-2015 01:00:00 20.25833 C 14.87 g/m*3 20.26 C 0.13333 km/h
809 01-09-2015 02:00:00 19.4 C 14.63 g/m*3 19.4 C 0 km/h
810 01-09-2015 03:00:00 18.64167 C 14.4 g/m*3 18.64 C 0 km/h
811 01-09-2015 04:00:00 18.225 C 14.31 g/m*3 18.23 C 0 km/h
812 01-09-2015 05:00:00 18.1 C 14.32 g/m*3 18.1 C 0 km/h
813 01-09-2015 06:00:00 18.425 C 14.68 g/m*3 18.43 C 1.73333 km/h
814 01-09-2015 07:00:00 18.3 C 14.8 g/m*3 18.3 C 0.8 km/h
815 01-09-2015 08:00:00 17.95833 C 14.5 g/m*3 17.96 C 4.80833 km/h
816 01-09-2015 09:00:00 17.30833 C 13.83 g/m*3 17.31 C 2 km/h
817 01-09-2015 10:00:00 16.9 C 13.47 g/m*3 16.9 C 7.925 km/h
818 01-09-2015 11:00:00 16.41667 C 13.26 g/m*3 16.42 C 1.86667 km/h
819 01-09-2015 12:00:00 16.775 C 13.62 g/m*3 16.77 C 4.03333 km/h
820 01-09-2015 13:00:00 17.03333 C 13.77 g/m*3 17.03 C 6.43333 km/h
821 01-09-2015 14:00:00 16.975 C 13.42 g/m*3 16.98 C 11.01667 km/h
822 01-09-2015 15:00:00 16.89167 C 13.11 g/m*3 16.89 C 7.91667 km/h
823 01-09-2015 16:00:00 17.03333 C 12.93 g/m*3 17.03 C 9.14167 km/h
824 01-09-2015 17:00:00 17.09167 C 12.73 g/m*3 17.09 C 7.23333 km/h
825 01-09-2015 18:00:00 17.725 C 12.91 g/m*3 17.73 C 4.54167 km/h
Sensor: Nr:Datum:Temp:Abs-Feuchte:Windchill:Wind:
Aussen-T/F 826 01-09-2015 19:00:00 18.325 C 12.53 g/m*3 18.33 C 5.75833 km/h
827 01-09-2015 20:00:00 16.24167 C 12.44 g/m*3 16.24 C 1.6 km/h
828 01-09-2015 21:00:00 14.95 C 11.91 g/m*3 14.95 C 0.66667 km/h
829 01-09-2015 22:00:00 14.19167 C 11.54 g/m*3 14.19 C 0 km/h
830 01-09-2015 23:00:00 13.76667 C 11.3 g/m*3 13.77 C 0.13333 km/h
831 02-09-2015 00:00:00 13.44167 C 11.07 g/m*3 13.44 C 0.4 km/h
832 02-09-2015 01:00:00 13.73333 C 11.21 g/m*3 13.73 C 0.53333 km/h
833 02-09-2015 02:00:00 13.26667 C 10.94 g/m*3 13.27 C 0 km/h
834 02-09-2015 03:00:00 12.46667 C 10.45 g/m*3 12.47 C 0 km/h
835 02-09-2015 04:00:00 11.83333 C 10.11 g/m*3 11.83 C 0 km/h
836 02-09-2015 05:00:00 11.65833 C 10.01 g/m*3 11.66 C 0.13333 km/h
837 02-09-2015 06:00:00 11.28333 C 9.78 g/m*3 11.28 C 0.8 km/h
838 02-09-2015 07:00:00 11.19167 C 9.78 g/m*3 11.19 C 0 km/h
839 02-09-2015 08:00:00 11.69167 C 10.14 g/m*3 11.69 C 2.54167 km/h
840 02-09-2015 09:00:00 12.33333 C 10.53 g/m*3 12.33 C 6.28333 km/h
841 02-09-2015 10:00:00 12.86667 C 10.7 g/m*3 12.87 C 4.93333 km/h
842 02-09-2015 11:00:00 14.45 C 11.24 g/m*3 14.45 C 4.13333 km/h
843 02-09-2015 12:00:00 16.24167 C 11.73 g/m*3 16.24 C 3.20833 km/h
844 02-09-2015 13:00:00 19.41667 C 11.34 g/m*3 19.42 C 8.85833 km/h
845 02-09-2015 14:00:00 20.575 C 10.54 g/m*3 20.58 C 10.49167 km/h
846 02-09-2015 15:00:00 21.49167 C 10.15 g/m*3 21.49 C 9.95 km/h
847 02-09-2015 16:00:00 20.81667 C 10.72 g/m*3 20.82 C 8.74167 km/h
848 02-09-2015 17:00:00 20.86667 C 11.15 g/m*3 20.87 C 7.10833 km/h
849 02-09-2015 18:00:00 18.75 C 12.36 g/m*3 18.75 C 0 km/h
850 02-09-2015 19:00:00 17.46667 C 11.82 g/m*3 17.47 C 0 km/h
Sensor: Nr:Datum:Temp:Abs-Feuchte:Windchill:Wind:
Aussen-T/F 851 02-09-2015 20:00:00 15.40833 C 11.14 g/m*3 15.41 C 0.4 km/h
852 02-09-2015 21:00:00 14.625 C 10.99 g/m*3 14.63 C 0 km/h
853 02-09-2015 22:00:00 14.05833 C 10.79 g/m*3 14.06 C 0 km/h
854 02-09-2015 23:00:00 13.24167 C 10.48 g/m*3 13.24 C 0 km/h
855 03-09-2015 00:00:00 12.74167 C 10.33 g/m*3 12.74 C 0 km/h
856 03-09-2015 01:00:00 12.09167 C 10.02 g/m*3 12.09 C 0 km/h
857 03-09-2015 02:00:00 11.55833 C 9.75 g/m*3 11.56 C 0 km/h
858 03-09-2015 03:00:00 11.1 C 9.54 g/m*3 11.1 C 0 km/h
859 03-09-2015 04:00:00 10.68333 C 9.32 g/m*3 10.68 C 0.53333 km/h
860 03-09-2015 05:00:00 10.33333 C 9.17 g/m*3 10.33 C 0.26667 km/h
861 03-09-2015 06:00:00 10.6 C 9.37 g/m*3 10.6 C 1.73333 km/h
862 03-09-2015 07:00:00 10.575 C 9.36 g/m*3 10.58 C 1.33333 km/h
863 03-09-2015 08:00:00 11.125 C 9.69 g/m*3 11.13 C 5.775 km/h
864 03-09-2015 09:00:00 11.75833 C 10.02 g/m*3 11.76 C 4.13333 km/h
865 03-09-2015 10:00:00 12.94167 C 10.52 g/m*3 12.94 C 1.06667 km/h
866 03-09-2015 11:00:00 14.05833 C 11.02 g/m*3 14.06 C 0.13333 km/h
867 03-09-2015 12:00:00 16.95 C 10.78 g/m*3 16.95 C 5.625 km/h
868 03-09-2015 13:00:00 17.58333 C 10.83 g/m*3 17.58 C 5.09167 km/h
869 03-09-2015 14:00:00 14.1 C 11.24 g/m*3 14.1 C 2 km/h
870 03-09-2015 15:00:00 17.06667 C 11.74 g/m*3 17.07 C 3.075 km/h
871 03-09-2015 16:00:00 19.96667 C 9.7 g/m*3 19.97 C 9.68333 km/h
872 03-09-2015 17:00:00 19.35833 C 9.57 g/m*3 19.36 C 5.75833 km/h
873 03-09-2015 18:00:00 19.14167 C 9.7 g/m*3 19.14 C 4.95 km/h
874 03-09-2015 19:00:00 17.09167 C 10.18 g/m*3 17.09 C 2.14167 km/h
875 03-09-2015 20:00:00 15.50833 C 9.48 g/m*3 15.51 C 6.04167 km/h
Sensor: Nr:Datum:Temp:Abs-Feuchte:Windchill:Wind:
Aussen-T/F 876 03-09-2015 21:00:00 13.7 C 9.85 g/m*3 13.7 C 1.33333 km/h
877 03-09-2015 22:00:00 13.19167 C 10.3 g/m*3 13.19 C 0.8 km/h
878 03-09-2015 23:00:00 11.8 C 9.78 g/m*3 11.8 C 0 km/h
879 04-09-2015 00:00:00 10.875 C 9.38 g/m*3 10.88 C 0 km/h
880 04-09-2015 01:00:00 10.7 C 9.33 g/m*3 10.7 C 0 km/h
881 04-09-2015 02:00:00 10.78333 C 9.42 g/m*3 10.78 C 0 km/h
882 04-09-2015 03:00:00 11.175 C 9.65 g/m*3 11.18 C 0.26667 km/h
883 04-09-2015 04:00:00 10.60833 C 9.28 g/m*3 10.61 C 0 km/h
884 04-09-2015 05:00:00 10.35833 C 9.2 g/m*3 10.36 C 0.4 km/h
885 04-09-2015 06:00:00 10.59167 C 9.27 g/m*3 10.59 C 0 km/h
886 04-09-2015 07:00:00 10.975 C 9.43 g/m*3 10.98 C 0.8 km/h
887 04-09-2015 08:00:00 11.73333 C 9.53 g/m*3 11.73 C 4.55 km/h
888 04-09-2015 09:00:00 12.78333 C 9.65 g/m*3 12.78 C 6.55833 km/h
889 04-09-2015 10:00:00 13.6 C 9.57 g/m*3 13.6 C 6.7 km/h
890 04-09-2015 11:00:00 15.18333 C 9.53 g/m*3 15.18 C 13.03333 km/h
891 04-09-2015 12:00:00 16.11667 C 9.2 g/m*3 16.12 C 14.23333 km/h
892 04-09-2015 13:00:00 16.125 C 9.05 g/m*3 16.13 C 16.5 km/h
893 04-09-2015 14:00:00 16.81667 C 8.85 g/m*3 16.82 C 12.9 km/h
894 04-09-2015 15:00:00 17.33333 C 8.71 g/m*3 17.33 C 12.36667 km/h
895 04-09-2015 16:00:00 17.61667 C 8.42 g/m*3 17.62 C 11.96667 km/h
896 04-09-2015 17:00:00 17.075 C 8.54 g/m*3 17.08 C 8.06667 km/h
897 04-09-2015 18:00:00 16.13333 C 9.17 g/m*3 16.13 C 3.075 km/h
898 04-09-2015 19:00:00 15.93333 C 9.3 g/m*3 15.93 C 1.33333 km/h
899 04-09-2015 20:00:00 13.66667 C 9.35 g/m*3 13.67 C 0.93333 km/h
900 04-09-2015 21:00:00 13.21667 C 9.04 g/m*3 13.22 C 2.40833 km/h
Sensor: Nr:Datum:Temp:Abs-Feuchte:Windchill:Wind:
Aussen-T/F 901 04-09-2015 22:00:00 13.49167 C 8.82 g/m*3 13.49 C 2.8 km/h
902 04-09-2015 23:00:00 12.25833 C 8.74 g/m*3 12.26 C 1.33333 km/h
903 05-09-2015 00:00:00 11.40833 C 8.59 g/m*3 11.41 C 1.86667 km/h
904 05-09-2015 01:00:00 10.575 C 8.52 g/m*3 10.58 C 0.53333 km/h
905 05-09-2015 02:00:00 10.48333 C 8.55 g/m*3 10.48 C 1.46667 km/h
906 05-09-2015 03:00:00 10.2 C 8.56 g/m*3 10.2 C 0.4 km/h
907 05-09-2015 04:00:00 10.525 C 8.73 g/m*3 10.53 C 2.15 km/h
908 05-09-2015 05:00:00 11.48333 C 8.96 g/m*3 11.48 C 5.35833 km/h
909 05-09-2015 06:00:00 12.03333 C 9.02 g/m*3 12.03 C 6.56667 km/h
910 05-09-2015 07:00:00 11.90833 C 9.17 g/m*3 11.91 C 6.3 km/h
911 05-09-2015 08:00:00 12.64167 C 9.42 g/m*3 12.64 C 9.275 km/h
912 05-09-2015 09:00:00 13.21667 C 9.69 g/m*3 13.22 C 7.375 km/h
913 05-09-2015 10:00:00 13.49167 C 10.17 g/m*3 13.49 C 8.45833 km/h
914 05-09-2015 11:00:00 13.475 C 10.58 g/m*3 13.48 C 6.975 km/h
915 05-09-2015 12:00:00 14.30833 C 11.12 g/m*3 14.31 C 5.1 km/h
916 05-09-2015 13:00:00 14.70833 C 11.49 g/m*3 14.71 C 1.2 km/h
917 05-09-2015 14:00:00 15.04167 C 11.25 g/m*3 15.04 C 4.41667 km/h
918 05-09-2015 15:00:00 16.56667 C 10.12 g/m*3 16.57 C 13.7 km/h
919 05-09-2015 16:00:00 18.2 C 9.57 g/m*3 18.2 C 15.16667 km/h
920 05-09-2015 17:00:00 17.45 C 9.41 g/m*3 17.45 C 16.1 km/h
921 05-09-2015 18:00:00 15.45 C 10.11 g/m*3 15.45 C 9.93333 km/h
922 05-09-2015 19:00:00 13.53333 C 10.48 g/m*3 13.53 C 4.15 km/h
923 05-09-2015 20:00:00 12.83333 C 10.31 g/m*3 12.83 C 2.13333 km/h
924 05-09-2015 21:00:00 12.825 C 9.94 g/m*3 12.83 C 6.29167 km/h
925 05-09-2015 22:00:00 12.55 C 9.43 g/m*3 12.55 C 6.98333 km/h
Sensor: Nr:Datum:Temp:Abs-Feuchte:Windchill:Wind:
Aussen-T/F 926 05-09-2015 23:00:00 12.3 C 9.21 g/m*3 12.3 C 7.79167 km/h
927 06-09-2015 00:00:00 11.89167 C 8.69 g/m*3 11.89 C 8.85833 km/h
928 06-09-2015 01:00:00 11.59167 C 8.56 g/m*3 11.59 C 3.875 km/h
929 06-09-2015 02:00:00 11.08333 C 8.49 g/m*3 11.08 C 2.66667 km/h
930 06-09-2015 03:00:00 10.94167 C 8.45 g/m*3 10.94 C 3.86667 km/h
931 06-09-2015 04:00:00 10.7 C 8.36 g/m*3 10.7 C 2 km/h
932 06-09-2015 05:00:00 9.84167 C 8.23 g/m*3 9.84 C 0.26667 km/h
933 06-09-2015 06:00:00 9.53333 C 8.04 g/m*3 9.53 C 2.4 km/h
934 06-09-2015 07:00:00 9.78333 C 8.09 g/m*3 9.78 C 3.73333 km/h
935 06-09-2015 08:00:00 10.025 C 8.2 g/m*3 10.03 C 1.86667 km/h
936 06-09-2015 09:00:00 11.84167 C 8.55 g/m*3 11.84 C 8.74167 km/h
937 06-09-2015 10:00:00 12.93333 C 8.38 g/m*3 12.93 C 12.625 km/h
938 06-09-2015 11:00:00 13.96667 C 8.39 g/m*3 13.97 C 13.43333 km/h
939 06-09-2015 12:00:00 14.83333 C 8.26 g/m*3 14.83 C 15.03333 km/h
940 06-09-2015 13:00:00 15.35833 C 8.16 g/m*3 15.36 C 14.76667 km/h
941 06-09-2015 14:00:00 15.85833 C 8.23 g/m*3 15.86 C 13.03333 km/h
942 06-09-2015 15:00:00 15.96667 C 8.39 g/m*3 15.97 C 9.81667 km/h
943 06-09-2015 16:00:00 16.48333 C 8.44 g/m*3 16.48 C 10.5 km/h
944 06-09-2015 17:00:00 16.125 C 8.21 g/m*3 16.13 C 11.425 km/h
945 06-09-2015 18:00:00 16.86667 C 8.19 g/m*3 16.87 C 10.88333 km/h
946 06-09-2015 19:00:00 15.2 C 8.38 g/m*3 15.2 C 7.51667 km/h
947 06-09-2015 20:00:00 14.35833 C 8.45 g/m*3 14.36 C 7.65 km/h
948 06-09-2015 21:00:00 13.73333 C 8.57 g/m*3 13.73 C 6.15833 km/h
949 06-09-2015 22:00:00 13.06667 C 8.55 g/m*3 13.07 C 6.15833 km/h
950 06-09-2015 23:00:00 12.80833 C 8.54 g/m*3 12.81 C 2.66667 km/h
Sensor: Nr:Datum:Temp:Abs-Feuchte:Windchill:Wind:
Aussen-T/F 951 07-09-2015 00:00:00 12.55 C 8.57 g/m*3 12.55 C 3.60833 km/h
952 07-09-2015 01:00:00 12.25833 C 8.65 g/m*3 12.26 C 3.2 km/h
953 07-09-2015 02:00:00 12.15 C 8.67 g/m*3 12.15 C 3.06667 km/h
954 07-09-2015 03:00:00 11.54167 C 9.04 g/m*3 11.54 C 5.48333 km/h
955 07-09-2015 04:00:00 11.2 C 9.26 g/m*3 11.2 C 5.49167 km/h
956 07-09-2015 05:00:00 11.63333 C 9.35 g/m*3 11.63 C 4.69167 km/h
957 07-09-2015 06:00:00 11.71667 C 9.31 g/m*3 11.72 C 2.53333 km/h
958 07-09-2015 07:00:00 11.96667 C 9.48 g/m*3 11.97 C 5.63333 km/h
959 07-09-2015 08:00:00 12.51667 C 9.66 g/m*3 12.52 C 5.9 km/h
960 07-09-2015 09:00:00 13.05 C 9.81 g/m*3 13.05 C 4.675 km/h
961 07-09-2015 10:00:00 13.43333 C 10.12 g/m*3 13.43 C 6.56667 km/h
962 07-09-2015 11:00:00 13.78333 C 10.38 g/m*3 13.78 C 9.69167 km/h
963 07-09-2015 12:00:00 14.35 C 10.58 g/m*3 14.35 C 7.79167 km/h
964 07-09-2015 13:00:00 15.04167 C 10.77 g/m*3 15.04 C 10.2 km/h
965 07-09-2015 14:00:00 16.1 C 11.03 g/m*3 16.1 C 9.83333 km/h
966 07-09-2015 15:00:00 16.275 C 11.04 g/m*3 16.27 C 7.38333 km/h
967 07-09-2015 16:00:00 15.95833 C 11.11 g/m*3 15.96 C 7.10833 km/h
968 07-09-2015 17:00:00 15.18333 C 11.63 g/m*3 15.18 C 0 km/h
969 07-09-2015 18:00:00 14.85 C 11.55 g/m*3 14.85 C 0.13333 km/h
970 07-09-2015 19:00:00 14.525 C 11.34 g/m*3 14.53 C 0.66667 km/h
971 07-09-2015 20:00:00 13.95833 C 11.12 g/m*3 13.96 C 0.13333 km/h
972 07-09-2015 21:00:00 13.8 C 11.08 g/m*3 13.8 C 0.13333 km/h
973 07-09-2015 22:00:00 13.88333 C 11.14 g/m*3 13.88 C 1.33333 km/h
974 07-09-2015 23:00:00 13.83333 C 11.19 g/m*3 13.83 C 0.26667 km/h
975 08-09-2015 00:00:00 13.63333 C 11.19 g/m*3 13.63 C 0.13333 km/h
Sensor: Nr:Datum:Temp:Abs-Feuchte:Windchill:Wind:
Aussen-T/F 976 08-09-2015 01:00:00 13.59167 C 11.17 g/m*3 13.59 C 0 km/h
977 08-09-2015 02:00:00 13.56667 C 11.16 g/m*3 13.57 C 0 km/h
978 08-09-2015 03:00:00 13.225 C 10.92 g/m*3 13.23 C 0.13333 km/h
979 08-09-2015 04:00:00 13.025 C 10.89 g/m*3 13.03 C 0.4 km/h
980 08-09-2015 05:00:00 13.10833 C 10.96 g/m*3 13.11 C 0 km/h
981 08-09-2015 06:00:00 12.84167 C 10.78 g/m*3 12.84 C 0 km/h
982 08-09-2015 07:00:00 12.68333 C 10.68 g/m*3 12.68 C 0 km/h
983 08-09-2015 08:00:00 13.06667 C 10.93 g/m*3 13.07 C 0.26667 km/h
984 08-09-2015 09:00:00 13.98333 C 11.05 g/m*3 13.98 C 4.275 km/h
985 08-09-2015 10:00:00 14.75 C 10.82 g/m*3 14.75 C 3.2 km/h
986 08-09-2015 11:00:00 15.4 C 10.58 g/m*3 15.4 C 1.2 km/h
987 08-09-2015 12:00:00 16.13333 C 10.31 g/m*3 16.13 C 4.275 km/h
988 08-09-2015 13:00:00 16.725 C 10.26 g/m*3 16.73 C 3.06667 km/h
989 08-09-2015 14:00:00 17.825 C 11.03 g/m*3 17.83 C 9.425 km/h
990 08-09-2015 15:00:00 17.50833 C 10.94 g/m*3 17.51 C 7.39167 km/h
991 08-09-2015 16:00:00 18.94167 C 11.18 g/m*3 18.94 C 8.625 km/h
992 08-09-2015 17:00:00 19.7 C 11 g/m*3 19.7 C 8.74167 km/h
993 08-09-2015 18:00:00 18.71667 C 10.94 g/m*3 18.72 C 8.61667 km/h
994 08-09-2015 19:00:00 16.88333 C 10.79 g/m*3 16.88 C 6.85 km/h
995 08-09-2015 20:00:00 14.46667 C 10.54 g/m*3 14.47 C 1.33333 km/h
996 08-09-2015 21:00:00 14.38333 C 10.89 g/m*3 14.38 C 0.4 km/h
997 08-09-2015 22:00:00 14.175 C 10.75 g/m*3 14.18 C 0.13333 km/h
998 08-09-2015 23:00:00 13.88333 C 10.71 g/m*3 13.88 C 0 km/h
999 09-09-2015 00:00:00 13.78333 C 10.73 g/m*3 13.78 C 0 km/h
1000 09-09-2015 01:00:00 13.55833 C 10.66 g/m*3 13.56 C 0 km/h
Sensor: Nr:Datum:Temp:Abs-Feuchte:Windchill:Wind:
Aussen-T/F 1001 09-09-2015 02:00:00 13.45 C 10.67 g/m*3 13.45 C 0 km/h
1002 09-09-2015 03:00:00 13.35 C 10.66 g/m*3 13.35 C 0 km/h
1003 09-09-2015 04:00:00 13.24167 C 10.59 g/m*3 13.24 C 0 km/h
1004 09-09-2015 05:00:00 13.05 C 10.47 g/m*3 13.05 C 0 km/h
1005 09-09-2015 06:00:00 12.84167 C 10.43 g/m*3 12.84 C 0 km/h
1006 09-09-2015 07:00:00 12.94167 C 10.51 g/m*3 12.94 C 0 km/h
1007 09-09-2015 08:00:00 12.73333 C 10.36 g/m*3 12.73 C 0 km/h
1008 09-09-2015 09:00:00 13.56667 C 10.75 g/m*3 13.57 C 2.29167 km/h
1009 09-09-2015 10:00:00 14.99167 C 10.59 g/m*3 14.99 C 4.275 km/h
1010 09-09-2015 11:00:00 16.68333 C 10.64 g/m*3 16.68 C 9.54167 km/h
1011 09-09-2015 12:00:00 17.41667 C 10.38 g/m*3 17.42 C 8.45833 km/h
1012 09-09-2015 13:00:00 18.61667 C 10.4 g/m*3 18.62 C 8.45 km/h
1013 09-09-2015 14:00:00 19.86667 C 10 g/m*3 19.87 C 11.01667 km/h
1014 09-09-2015 15:00:00 20.09167 C 9.76 g/m*3 20.09 C 10.61667 km/h
1015 09-09-2015 16:00:00 21.29167 C 9.39 g/m*3 21.29 C 10.46667 km/h
1016 09-09-2015 17:00:00 21.425 C 9.12 g/m*3 21.43 C 10.75 km/h
1017 09-09-2015 18:00:00 20.575 C 8.89 g/m*3 20.58 C 9.14167 km/h
1018 09-09-2015 19:00:00 18.54167 C 9.01 g/m*3 18.54 C 2.13333 km/h
1019 09-09-2015 20:00:00 14.60833 C 8.71 g/m*3 14.61 C 1.06667 km/h
1020 09-09-2015 21:00:00 13.2 C 8.53 g/m*3 13.2 C 1.33333 km/h
1021 09-09-2015 22:00:00 12.575 C 8.42 g/m*3 12.58 C 1.46667 km/h
1022 09-09-2015 23:00:00 12.03333 C 8.25 g/m*3 12.03 C 0.8 km/h
1023 10-09-2015 00:00:00 11.15 C 8.13 g/m*3 11.15 C 0.26667 km/h
1024 10-09-2015 01:00:00 10.75 C 8.05 g/m*3 10.75 C 0.8 km/h
1025 10-09-2015 02:00:00 10.33333 C 8.01 g/m*3 10.33 C 0.8 km/h
Sensor: Nr:Datum:Temp:Abs-Feuchte:Windchill:Wind:
Aussen-T/F 1026 10-09-2015 03:00:00 9.625 C 7.9 g/m*3 9.63 C 0.13333 km/h
1027 10-09-2015 04:00:00 9.125 C 7.84 g/m*3 9.13 C 0 km/h
1028 10-09-2015 05:00:00 8.51667 C 7.72 g/m*3 8.52 C 0 km/h
1029 10-09-2015 06:00:00 8.2 C 7.69 g/m*3 8.2 C 0 km/h
1030 10-09-2015 07:00:00 8.15 C 7.75 g/m*3 8.15 C 0 km/h
1031 10-09-2015 08:00:00 8.7 C 8.06 g/m*3 8.7 C 0 km/h
1032 10-09-2015 09:00:00 9.625 C 8.53 g/m*3 9.63 C 0.13333 km/h
1033 10-09-2015 10:00:00 11.63333 C 9.31 g/m*3 11.63 C 1.33333 km/h
1034 10-09-2015 11:00:00 13.89167 C 9.55 g/m*3 13.89 C 4.55 km/h
1035 10-09-2015 12:00:00 16.375 C 9.29 g/m*3 16.38 C 9.275 km/h
1036 10-09-2015 13:00:00 18.625 C 9.46 g/m*3 18.63 C 6.7 km/h
1037 10-09-2015 14:00:00 19.75 C 9.07 g/m*3 19.75 C 10.1 km/h
1038 10-09-2015 15:00:00 19.2 C 8.92 g/m*3 19.2 C 10.20833 km/h
1039 10-09-2015 16:00:00 19.33333 C 9.1 g/m*3 19.33 C 7.8 km/h
1040 10-09-2015 17:00:00 19.225 C 9.37 g/m*3 19.23 C 6.025 km/h
1041 10-09-2015 18:00:00 18.20833 C 9.58 g/m*3 18.21 C 3.625 km/h
1042 10-09-2015 19:00:00 16.73333 C 9.51 g/m*3 16.73 C 1.33333 km/h
1043 10-09-2015 20:00:00 13.73333 C 8.98 g/m*3 13.73 C 0.8 km/h
1044 10-09-2015 21:00:00 12.85 C 8.77 g/m*3 12.85 C 0.8 km/h
1045 10-09-2015 22:00:00 12.28333 C 8.69 g/m*3 12.28 C 1.46667 km/h
1046 10-09-2015 23:00:00 11.70833 C 8.49 g/m*3 11.71 C 0.4 km/h
1047 11-09-2015 00:00:00 11.29167 C 8.41 g/m*3 11.29 C 0.93333 km/h
1048 11-09-2015 01:00:00 11.225 C 8.34 g/m*3 11.23 C 1.2 km/h
1049 11-09-2015 02:00:00 10.5 C 8.28 g/m*3 10.5 C 1.46667 km/h
1050 11-09-2015 03:00:00 10.00833 C 8.16 g/m*3 10.01 C 1.46667 km/h
Sensor: Nr:Datum:Temp:Abs-Feuchte:Windchill:Wind:
Aussen-T/F 1051 11-09-2015 04:00:00 9.4 C 8 g/m*3 9.4 C 0.26667 km/h
1052 11-09-2015 05:00:00 8.84167 C 7.91 g/m*3 8.84 C 0 km/h
1053 11-09-2015 06:00:00 8.225 C 7.72 g/m*3 8.23 C 0 km/h
1054 11-09-2015 07:00:00 7.9 C 7.68 g/m*3 7.9 C 0 km/h
1055 11-09-2015 08:00:00 8.46667 C 8.01 g/m*3 8.47 C 0.13333 km/h
1056 11-09-2015 09:00:00 9.65 C 8.56 g/m*3 9.65 C 0.93333 km/h
1057 11-09-2015 10:00:00 11.59167 C 9.11 g/m*3 11.59 C 3.06667 km/h
1058 11-09-2015 11:00:00 13.6 C 9.42 g/m*3 13.6 C 5.21667 km/h
1059 11-09-2015 12:00:00 15.59167 C 9.77 g/m*3 15.59 C 5.89167 km/h
1060 11-09-2015 13:00:00 19.00833 C 10.57 g/m*3 19.01 C 8.33333 km/h
1061 11-09-2015 14:00:00 19.86667 C 10.47 g/m*3 19.87 C 6.975 km/h
1062 11-09-2015 15:00:00 21.08333 C 9.51 g/m*3 21.08 C 7.925 km/h
1063 11-09-2015 16:00:00 19.11667 C 10.61 g/m*3 19.12 C 1.33333 km/h
1064 11-09-2015 17:00:00 18.30833 C 10.59 g/m*3 18.31 C 0.8 km/h
1065 11-09-2015 18:00:00 17.75 C 10.33 g/m*3 17.75 C 0.93333 km/h
1066 11-09-2015 19:00:00 15.71667 C 9.84 g/m*3 15.72 C 1.2 km/h
1067 11-09-2015 20:00:00 14.05833 C 9.25 g/m*3 14.06 C 1.6 km/h
1068 11-09-2015 21:00:00 13.06667 C 8.9 g/m*3 13.07 C 0.4 km/h
1069 11-09-2015 22:00:00 11.7 C 8.62 g/m*3 11.7 C 0 km/h
1070 11-09-2015 23:00:00 10.78333 C 8.34 g/m*3 10.78 C 0 km/h
1071 12-09-2015 00:00:00 9.99167 C 8.17 g/m*3 9.99 C 0 km/h
1072 12-09-2015 01:00:00 9.78333 C 8.31 g/m*3 9.78 C 0 km/h
1073 12-09-2015 02:00:00 9.75 C 8.35 g/m*3 9.75 C 0 km/h
1074 12-09-2015 03:00:00 9.4 C 8.23 g/m*3 9.4 C 0 km/h
1075 12-09-2015 04:00:00 9.4 C 8.31 g/m*3 9.4 C 0 km/h
Sensor: Nr:Datum:Temp:Abs-Feuchte:Windchill:Wind:
Aussen-T/F 1076 12-09-2015 05:00:00 9.36667 C 8.33 g/m*3 9.37 C 0 km/h
1077 12-09-2015 06:00:00 9.66667 C 8.56 g/m*3 9.67 C 0 km/h
1078 12-09-2015 07:00:00 9.66667 C 8.56 g/m*3 9.67 C 0.53333 km/h
1079 12-09-2015 08:00:00 9.91667 C 8.72 g/m*3 9.92 C 0 km/h
1080 12-09-2015 09:00:00 11.725 C 9.71 g/m*3 11.73 C 0 km/h
1081 12-09-2015 10:00:00 14.26667 C 10.53 g/m*3 14.27 C 1.33333 km/h
1082 12-09-2015 11:00:00 17.125 C 10.61 g/m*3 17.13 C 3.2 km/h
1083 12-09-2015 12:00:00 18.425 C 11.28 g/m*3 18.43 C 3.86667 km/h
1084 12-09-2015 13:00:00 21.33333 C 12.51 g/m*3 21.33 C 5.89167 km/h
1085 12-09-2015 14:00:00 23.125 C 13.21 g/m*3 23.13 C 7.11667 km/h
1086 12-09-2015 15:00:00 22.54167 C 13.53 g/m*3 22.54 C 4.01667 km/h
1087 12-09-2015 16:00:00 21.65833 C 14.07 g/m*3 21.66 C 1.86667 km/h
1088 12-09-2015 17:00:00 21.975 C 14.2 g/m*3 21.98 C 1.06667 km/h
1089 12-09-2015 18:00:00 19.38333 C 13.71 g/m*3 19.38 C 0.4 km/h
1090 12-09-2015 19:00:00 18.55 C 13.33 g/m*3 18.55 C 0.8 km/h
1091 12-09-2015 20:00:00 18.15 C 13.26 g/m*3 18.15 C 0.13333 km/h
1092 12-09-2015 21:00:00 18.24167 C 13.41 g/m*3 18.24 C 1.475 km/h
1093 12-09-2015 22:00:00 18.11667 C 13.71 g/m*3 18.12 C 1.475 km/h
1094 12-09-2015 23:00:00 16.91667 C 13.39 g/m*3 16.92 C 0 km/h
1095 13-09-2015 00:00:00 16.18333 C 12.95 g/m*3 16.18 C 0 km/h
1096 13-09-2015 01:00:00 15.83333 C 12.78 g/m*3 15.83 C 0 km/h
1097 13-09-2015 02:00:00 15.64167 C 12.67 g/m*3 15.64 C 0 km/h
1098 13-09-2015 03:00:00 15.76667 C 12.76 g/m*3 15.77 C 0 km/h
1099 13-09-2015 04:00:00 16.01667 C 12.91 g/m*3 16.02 C 0 km/h
1100 13-09-2015 05:00:00 16.05833 C 12.85 g/m*3 16.06 C 0 km/h
Sensor: Nr:Datum:Temp:Abs-Feuchte:Windchill:Wind:
Aussen-T/F 1101 13-09-2015 06:00:00 16.075 C 12.87 g/m*3 16.08 C 0.26667 km/h
1102 13-09-2015 07:00:00 16.7 C 13.06 g/m*3 16.7 C 0.66667 km/h
1103 13-09-2015 08:00:00 17.34167 C 13.22 g/m*3 17.34 C 1.46667 km/h
1104 13-09-2015 09:00:00 17.88333 C 13.51 g/m*3 17.88 C 0.66667 km/h
1105 13-09-2015 10:00:00 18.7 C 13.41 g/m*3 18.7 C 3.46667 km/h
1106 13-09-2015 11:00:00 19.08333 C 13.69 g/m*3 19.08 C 1.86667 km/h
1107 13-09-2015 12:00:00 18.275 C 14.1 g/m*3 18.27 C 2.26667 km/h
1108 13-09-2015 13:00:00 18.48333 C 13.96 g/m*3 18.48 C 3.46667 km/h
1109 13-09-2015 14:00:00 18.24167 C 14.18 g/m*3 18.24 C 2.53333 km/h
1110 13-09-2015 15:00:00 18.05833 C 14.32 g/m*3 18.06 C 0.93333 km/h
1111 13-09-2015 16:00:00 18.225 C 14.59 g/m*3 18.23 C 1.33333 km/h
1112 13-09-2015 17:00:00 18.16667 C 14.68 g/m*3 18.17 C 0.66667 km/h
1113 13-09-2015 18:00:00 18.475 C 14.9 g/m*3 18.48 C 0.4 km/h
1114 13-09-2015 19:00:00 17.68333 C 14.13 g/m*3 17.68 C 0 km/h
1115 13-09-2015 20:00:00 16.075 C 13.05 g/m*3 16.08 C 0 km/h
1116 13-09-2015 21:00:00 15.64167 C 12.8 g/m*3 15.64 C 0.13333 km/h
1117 13-09-2015 22:00:00 15.4 C 12.66 g/m*3 15.4 C 0 km/h
1118 13-09-2015 23:00:00 15.70833 C 12.98 g/m*3 15.71 C 1.34167 km/h
1119 14-09-2015 00:00:00 15.88333 C 13.12 g/m*3 15.88 C 0 km/h
1120 14-09-2015 01:00:00 15.65833 C 12.95 g/m*3 15.66 C 0 km/h
1121 14-09-2015 02:00:00 15.525 C 12.84 g/m*3 15.53 C 0 km/h
1122 14-09-2015 03:00:00 15.38333 C 12.73 g/m*3 15.38 C 0 km/h
1123 14-09-2015 04:00:00 15.18333 C 12.58 g/m*3 15.18 C 0 km/h
1124 14-09-2015 05:00:00 14.68333 C 12.2 g/m*3 14.68 C 0.4 km/h
1125 14-09-2015 06:00:00 14.41667 C 12 g/m*3 14.42 C 0 km/h
Sensor: Nr:Datum:Temp:Abs-Feuchte:Windchill:Wind:
Aussen-T/F 1126 14-09-2015 07:00:00 14.4 C 11.99 g/m*3 14.4 C 0 km/h
1127 14-09-2015 08:00:00 14.9 C 12.39 g/m*3 14.9 C 0 km/h
1128 14-09-2015 09:00:00 15.65 C 12.99 g/m*3 15.65 C 0.93333 km/h
1129 14-09-2015 10:00:00 15.89167 C 12.83 g/m*3 15.89 C 8.325 km/h
1130 14-09-2015 11:00:00 17.50833 C 13.01 g/m*3 17.51 C 4.275 km/h
1131 14-09-2015 12:00:00 18.66667 C 12.52 g/m*3 18.67 C 12.20833 km/h
1132 14-09-2015 13:00:00 20.075 C 12.35 g/m*3 20.08 C 10.625 km/h
1133 14-09-2015 14:00:00 18.35833 C 13.04 g/m*3 18.36 C 7.23333 km/h
1134 14-09-2015 15:00:00 16.83333 C 13.32 g/m*3 16.83 C 0.66667 km/h
1135 14-09-2015 16:00:00 15.625 C 12.44 g/m*3 15.63 C 3.20833 km/h
1136 14-09-2015 17:00:00 16.05833 C 12.53 g/m*3 16.06 C 4.96667 km/h
1137 14-09-2015 18:00:00 16.55 C 12.5 g/m*3 16.55 C 3.20833 km/h
1138 14-09-2015 19:00:00 15.23333 C 11.58 g/m*3 15.23 C 4.29167 km/h
1139 14-09-2015 20:00:00 13.74167 C 10.46 g/m*3 13.74 C 4.025 km/h
1140 14-09-2015 21:00:00 12.13333 C 10.16 g/m*3 12.13 C 1.6 km/h
1141 14-09-2015 22:00:00 12.125 C 9.7 g/m*3 12.13 C 2.54167 km/h
1142 14-09-2015 23:00:00 12.15 C 9.45 g/m*3 12.15 C 2 km/h
1143 15-09-2015 00:00:00 10.95833 C 9.33 g/m*3 10.96 C 0.13333 km/h
1144 15-09-2015 01:00:00 10.35 C 9.08 g/m*3 10.35 C 0 km/h
1145 15-09-2015 02:00:00 10.2 C 9.04 g/m*3 10.2 C 0 km/h
1146 15-09-2015 03:00:00 9.93333 C 8.89 g/m*3 9.93 C 0.26667 km/h
1147 15-09-2015 04:00:00 9.85 C 8.8 g/m*3 9.85 C 1.33333 km/h
1148 15-09-2015 05:00:00 9.74167 C 8.66 g/m*3 9.74 C 1.46667 km/h
1149 15-09-2015 06:00:00 9.83333 C 8.65 g/m*3 9.83 C 2.26667 km/h
1150 15-09-2015 07:00:00 9.925 C 8.71 g/m*3 9.93 C 1.46667 km/h
Sensor: Nr:Datum:Temp:Abs-Feuchte:Windchill:Wind:
Aussen-T/F 1151 15-09-2015 08:00:00 11.225 C 9.23 g/m*3 11.23 C 3.6 km/h
1152 15-09-2015 09:00:00 13.11667 C 9.53 g/m*3 13.12 C 4 km/h
1153 15-09-2015 10:00:00 13.975 C 10.01 g/m*3 13.98 C 3.475 km/h
1154 15-09-2015 11:00:00 13.00833 C 10.44 g/m*3 13.01 C 1.33333 km/h
1155 15-09-2015 12:00:00 14.175 C 11.13 g/m*3 14.18 C 5.36667 km/h
1156 15-09-2015 13:00:00 15.175 C 11.05 g/m*3 15.18 C 11.54167 km/h
1157 15-09-2015 14:00:00 14.96667 C 10.63 g/m*3 14.97 C 10.89167 km/h
1158 15-09-2015 15:00:00 16.26667 C 10.97 g/m*3 16.27 C 7.24167 km/h
1159 15-09-2015 16:00:00 18.13333 C 11.08 g/m*3 18.13 C 7.91667 km/h
1160 15-09-2015 17:00:00 18.53333 C 10.09 g/m*3 18.53 C 11.94167 km/h
1161 15-09-2015 18:00:00 17.50833 C 10.38 g/m*3 17.51 C 4.95833 km/h
1162 15-09-2015 19:00:00 15.06667 C 10.46 g/m*3 15.07 C 1.06667 km/h
1163 15-09-2015 20:00:00 12.35 C 9.88 g/m*3 12.35 C 0.13333 km/h
1164 15-09-2015 21:00:00 11.75 C 9.74 g/m*3 11.75 C 0.8 km/h
1165 15-09-2015 22:00:00 11.93333 C 9.79 g/m*3 11.93 C 1.73333 km/h
1166 15-09-2015 23:00:00 12.80833 C 9.84 g/m*3 12.81 C 1.2 km/h
1167 16-09-2015 00:00:00 12.025 C 9.81 g/m*3 12.03 C 0.53333 km/h
1168 16-09-2015 01:00:00 12.43333 C 10.08 g/m*3 12.43 C 0.26667 km/h
1169 16-09-2015 02:00:00 12.35833 C 10.19 g/m*3 12.36 C 0.8 km/h
1170 16-09-2015 03:00:00 12.38333 C 10.33 g/m*3 12.38 C 1.6 km/h
1171 16-09-2015 04:00:00 12.31667 C 10.38 g/m*3 12.32 C 0 km/h
1172 16-09-2015 05:00:00 12.525 C 10.57 g/m*3 12.53 C 3.6 km/h
1173 16-09-2015 06:00:00 12.94167 C 10.8 g/m*3 12.94 C 5.49167 km/h
1174 16-09-2015 07:00:00 13.1 C 10.82 g/m*3 13.1 C 3.075 km/h
1175 16-09-2015 08:00:00 13.19167 C 10.98 g/m*3 13.19 C 0.8 km/h
Sensor: Nr:Datum:Temp:Abs-Feuchte:Windchill:Wind:
Aussen-T/F 1176 16-09-2015 09:00:00 13.71667 C 11.38 g/m*3 13.72 C 4.55 km/h
1177 16-09-2015 10:00:00 14.5 C 11.86 g/m*3 14.5 C 4.13333 km/h
1178 16-09-2015 11:00:00 15.05 C 12.19 g/m*3 15.05 C 3.2 km/h
1179 16-09-2015 12:00:00 16.03333 C 12.8 g/m*3 16.03 C 6.85 km/h
1180 16-09-2015 13:00:00 17.10833 C 13.39 g/m*3 17.11 C 6.04167 km/h
1181 16-09-2015 14:00:00 17.90833 C 13.88 g/m*3 17.91 C 4.54167 km/h
1182 16-09-2015 15:00:00 18.38333 C 14.18 g/m*3 18.38 C 5.21667 km/h
1183 16-09-2015 16:00:00 19.49167 C 14.66 g/m*3 19.49 C 5.09167 km/h
1184 16-09-2015 17:00:00 18.04167 C 14.22 g/m*3 18.04 C 2.80833 km/h
1185 16-09-2015 18:00:00 17.30833 C 13.55 g/m*3 17.31 C 5.35833 km/h
1186 16-09-2015 19:00:00 16.78333 C 13.43 g/m*3 16.78 C 5.36667 km/h
1187 16-09-2015 20:00:00 16 C 12.99 g/m*3 16 C 2.26667 km/h
1188 16-09-2015 21:00:00 16.13333 C 13.2 g/m*3 16.13 C 1.06667 km/h
1189 16-09-2015 22:00:00 15.875 C 13.04 g/m*3 15.88 C 5.1 km/h
1190 16-09-2015 23:00:00 14.79167 C 11.79 g/m*3 14.79 C 5.90833 km/h
1191 17-09-2015 00:00:00 14.16667 C 11.58 g/m*3 14.17 C 2.14167 km/h
1192 17-09-2015 01:00:00 13.84167 C 11.47 g/m*3 13.84 C 1.2 km/h
1193 17-09-2015 02:00:00 13.625 C 11.34 g/m*3 13.63 C 1.2 km/h
1194 17-09-2015 03:00:00 13.73333 C 11.51 g/m*3 13.73 C 3.74167 km/h
1195 17-09-2015 04:00:00 13.80833 C 11.56 g/m*3 13.81 C 2.53333 km/h
1196 17-09-2015 05:00:00 13.89167 C 11.62 g/m*3 13.89 C 1.73333 km/h
1197 17-09-2015 06:00:00 13.88333 C 11.62 g/m*3 13.88 C 1.74167 km/h
1198 17-09-2015 07:00:00 14.19167 C 11.84 g/m*3 14.19 C 1.86667 km/h
1199 17-09-2015 08:00:00 14.475 C 12.05 g/m*3 14.48 C 1.06667 km/h
1200 17-09-2015 09:00:00 14.78333 C 12.26 g/m*3 14.78 C 2.00833 km/h
Sensor: Nr:Datum:Temp:Abs-Feuchte:Windchill:Wind:
Aussen-T/F 1201 17-09-2015 10:00:00 15.29167 C 12.38 g/m*3 15.29 C 5.63333 km/h
1202 17-09-2015 11:00:00 15.7 C 12.29 g/m*3 15.7 C 5.35833 km/h
1203 17-09-2015 12:00:00 16.09167 C 12.02 g/m*3 16.09 C 5.89167 km/h
1204 17-09-2015 13:00:00 15.88333 C 11.66 g/m*3 15.88 C 5.1 km/h
1205 17-09-2015 14:00:00 16.025 C 11.2 g/m*3 16.02 C 6.3 km/h
1206 17-09-2015 15:00:00 16.28333 C 11.23 g/m*3 16.28 C 5.48333 km/h
1207 17-09-2015 16:00:00 16.2 C 11.47 g/m*3 16.2 C 6.58333 km/h
1208 17-09-2015 17:00:00 16.21667 C 11.51 g/m*3 16.22 C 5.49167 km/h
1209 17-09-2015 18:00:00 16.36667 C 11.34 g/m*3 16.37 C 10.075 km/h
1210 17-09-2015 19:00:00 16.075 C 11.1 g/m*3 16.08 C 8.99167 km/h
1211 17-09-2015 20:00:00 14.65 C 10.93 g/m*3 14.65 C 3.08333 km/h
1212 17-09-2015 21:00:00 12.98333 C 10.54 g/m*3 12.98 C 0.13333 km/h
1213 17-09-2015 22:00:00 12.09167 C 10.15 g/m*3 12.09 C 0.26667 km/h
1214 17-09-2015 23:00:00 11.5 C 9.85 g/m*3 11.5 C 0.53333 km/h
1215 18-09-2015 00:00:00 12.05 C 10.26 g/m*3 12.05 C 0 km/h
1216 18-09-2015 01:00:00 12.30833 C 10.43 g/m*3 12.31 C 0 km/h
1217 18-09-2015 02:00:00 11.925 C 10.17 g/m*3 11.93 C 0 km/h
1218 18-09-2015 03:00:00 11.18333 C 9.72 g/m*3 11.18 C 0 km/h
1219 18-09-2015 04:00:00 11.48333 C 9.94 g/m*3 11.48 C 0 km/h
1220 18-09-2015 05:00:00 11.775 C 10.08 g/m*3 11.78 C 0.93333 km/h
1221 18-09-2015 06:00:00 12.18333 C 10.35 g/m*3 12.18 C 1.46667 km/h
1222 18-09-2015 07:00:00 12.01667 C 10.24 g/m*3 12.02 C 0.26667 km/h
1223 18-09-2015 08:00:00 12.80833 C 10.77 g/m*3 12.81 C 0.53333 km/h
1224 18-09-2015 09:00:00 13.41667 C 10.91 g/m*3 13.42 C 2.4 km/h
1225 18-09-2015 10:00:00 15.05 C 11.13 g/m*3 15.05 C 8.89167 km/h
Sensor: Nr:Datum:Temp:Abs-Feuchte:Windchill:Wind:
Aussen-T/F 1226 18-09-2015 11:00:00 16.05 C 11.04 g/m*3 16.05 C 10.60833 km/h
1227 18-09-2015 12:00:00 16.70833 C 10.74 g/m*3 16.71 C 10.61667 km/h
1228 18-09-2015 13:00:00 18.93333 C 10.63 g/m*3 18.93 C 13.3 km/h
1229 18-09-2015 14:00:00 19.14167 C 10.27 g/m*3 19.14 C 11.26667 km/h
1230 18-09-2015 15:00:00 19.475 C 10.32 g/m*3 19.48 C 12.63333 km/h
1231 18-09-2015 16:00:00 20.075 C 10.28 g/m*3 20.08 C 11.96667 km/h
1232 18-09-2015 17:00:00 18.75833 C 11.21 g/m*3 18.76 C 3.60833 km/h
1233 18-09-2015 18:00:00 16.45833 C 11.45 g/m*3 16.46 C 0.93333 km/h
1234 18-09-2015 19:00:00 15.575 C 11.35 g/m*3 15.58 C 0 km/h
1235 18-09-2015 20:00:00 13.55 C 10.54 g/m*3 13.55 C 0 km/h
1236 18-09-2015 21:00:00 12.75 C 10.27 g/m*3 12.75 C 0 km/h
1237 18-09-2015 22:00:00 12.925 C 10.36 g/m*3 12.93 C 0 km/h
1238 18-09-2015 23:00:00 12.25 C 10.01 g/m*3 12.25 C 0.53333 km/h
1239 19-09-2015 00:00:00 13.25 C 10.25 g/m*3 13.25 C 1.46667 km/h
1240 19-09-2015 01:00:00 13 C 10.23 g/m*3 13 C 0.4 km/h
1241 19-09-2015 02:00:00 12.05833 C 9.9 g/m*3 12.06 C 0.26667 km/h
1242 19-09-2015 03:00:00 11.65 C 9.64 g/m*3 11.65 C 0.66667 km/h
1243 19-09-2015 04:00:00 11.775 C 9.86 g/m*3 11.78 C 0 km/h
1244 19-09-2015 05:00:00 12.175 C 10.09 g/m*3 12.18 C 0.13333 km/h
1245 19-09-2015 06:00:00 12.225 C 10.11 g/m*3 12.23 C 0 km/h
1246 19-09-2015 07:00:00 12.43333 C 10.29 g/m*3 12.43 C 0 km/h
1247 19-09-2015 08:00:00 12.89167 C 10.56 g/m*3 12.89 C 0.13333 km/h
1248 19-09-2015 09:00:00 14.1 C 10.83 g/m*3 14.1 C 3.2 km/h
1249 19-09-2015 10:00:00 14.925 C 10.87 g/m*3 14.93 C 7.65 km/h
1250 19-09-2015 11:00:00 15.64167 C 10.87 g/m*3 15.64 C 9.40833 km/h
Sensor: Nr:Datum:Temp:Abs-Feuchte:Windchill:Wind:
Aussen-T/F 1251 19-09-2015 12:00:00 16.76667 C 10.81 g/m*3 16.77 C 7.25 km/h
1252 19-09-2015 13:00:00 17.41667 C 10.73 g/m*3 17.42 C 6.31667 km/h
1253 19-09-2015 14:00:00 18.09167 C 10.71 g/m*3 18.09 C 4.14167 km/h
1254 19-09-2015 15:00:00 17.525 C 10.78 g/m*3 17.52 C 5.49167 km/h
1255 19-09-2015 16:00:00 16.70833 C 11.21 g/m*3 16.71 C 4.95833 km/h
1256 19-09-2015 17:00:00 15.70833 C 11.38 g/m*3 15.71 C 1.6 km/h
1257 19-09-2015 18:00:00 14.99167 C 11.44 g/m*3 14.99 C 2.00833 km/h
1258 19-09-2015 19:00:00 14.56667 C 11.23 g/m*3 14.57 C 0.26667 km/h
1259 19-09-2015 20:00:00 13.76667 C 11.13 g/m*3 13.77 C 0 km/h
1260 19-09-2015 21:00:00 14 C 11.25 g/m*3 14 C 2.675 km/h
1261 19-09-2015 22:00:00 14.25833 C 11.23 g/m*3 14.26 C 3.08333 km/h
1262 19-09-2015 23:00:00 13.825 C 11.1 g/m*3 13.83 C 2.26667 km/h
1263 20-09-2015 00:00:00 13.575 C 10.97 g/m*3 13.58 C 0.93333 km/h
1264 20-09-2015 01:00:00 12.68333 C 10.45 g/m*3 12.68 C 0.66667 km/h
1265 20-09-2015 02:00:00 12.09167 C 10.17 g/m*3 12.09 C 0 km/h
1266 20-09-2015 03:00:00 11.75833 C 10.03 g/m*3 11.76 C 0.13333 km/h
1267 20-09-2015 04:00:00 11.875 C 10.15 g/m*3 11.88 C 0.53333 km/h
1268 20-09-2015 05:00:00 11.78333 C 10.08 g/m*3 11.78 C 0.26667 km/h
1269 20-09-2015 06:00:00 11.7 C 10.02 g/m*3 11.7 C 2.13333 km/h
1270 20-09-2015 07:00:00 11.7 C 9.94 g/m*3 11.7 C 2.13333 km/h
1271 20-09-2015 08:00:00 12.21667 C 10.05 g/m*3 12.22 C 1.2 km/h
1272 20-09-2015 09:00:00 12.925 C 10.21 g/m*3 12.93 C 2 km/h
1273 20-09-2015 10:00:00 13.43333 C 10.32 g/m*3 13.43 C 3.48333 km/h
1274 20-09-2015 11:00:00 14.30833 C 9.93 g/m*3 14.31 C 7.11667 km/h
1275 20-09-2015 12:00:00 15.15833 C 9.85 g/m*3 15.16 C 5.76667 km/h
Sensor: Nr:Datum:Temp:Abs-Feuchte:Windchill:Wind:
Aussen-T/F 1276 20-09-2015 13:00:00 16.8 C 9.77 g/m*3 16.8 C 5.9 km/h
1277 20-09-2015 14:00:00 17.225 C 9.15 g/m*3 17.23 C 6.55833 km/h
1278 20-09-2015 15:00:00 18.11667 C 9.22 g/m*3 18.12 C 6.16667 km/h
1279 20-09-2015 16:00:00 18.00833 C 9.37 g/m*3 18.01 C 6.425 km/h
1280 20-09-2015 17:00:00 16.51667 C 9.62 g/m*3 16.52 C 5.63333 km/h
1281 20-09-2015 18:00:00 15.05833 C 10.42 g/m*3 15.06 C 0.13333 km/h
1282 20-09-2015 19:00:00 13.95833 C 10.38 g/m*3 13.96 C 0 km/h
1283 20-09-2015 20:00:00 13.54167 C 10.3 g/m*3 13.54 C 0 km/h
1284 20-09-2015 21:00:00 13.08333 C 10.09 g/m*3 13.08 C 0 km/h
1285 20-09-2015 22:00:00 11.95833 C 9.58 g/m*3 11.96 C 0 km/h
1286 20-09-2015 23:00:00 11.05 C 9.23 g/m*3 11.05 C 0 km/h
1287 21-09-2015 00:00:00 10.88333 C 9.24 g/m*3 10.88 C 0.4 km/h
1288 21-09-2015 01:00:00 10.70833 C 9.18 g/m*3 10.71 C 0 km/h
1289 21-09-2015 02:00:00 10.575 C 9.16 g/m*3 10.58 C 0.13333 km/h
1290 21-09-2015 03:00:00 9.85 C 8.78 g/m*3 9.85 C 0.26667 km/h
1291 21-09-2015 04:00:00 9.20833 C 8.49 g/m*3 9.21 C 0.26667 km/h
1292 21-09-2015 05:00:00 8.71667 C 8.27 g/m*3 8.72 C 0 km/h
1293 21-09-2015 06:00:00 8.64167 C 8.27 g/m*3 8.64 C 0.26667 km/h
1294 21-09-2015 07:00:00 8.34167 C 8.11 g/m*3 8.34 C 0.66667 km/h
1295 21-09-2015 08:00:00 8.45833 C 8.17 g/m*3 8.46 C 0.26667 km/h
1296 21-09-2015 09:00:00 8.90833 C 8.44 g/m*3 8.91 C 0.53333 km/h
1297 21-09-2015 10:00:00 9.6 C 8.83 g/m*3 9.6 C 2.26667 km/h
1298 21-09-2015 11:00:00 10.44167 C 9.28 g/m*3 10.44 C 0 km/h
1299 21-09-2015 12:00:00 12.24167 C 10.25 g/m*3 12.24 C 0.4 km/h
1300 21-09-2015 13:00:00 16.275 C 11.21 g/m*3 16.27 C 2 km/h
Sensor: Nr:Datum:Temp:Abs-Feuchte:Windchill:Wind:
Aussen-T/F 1301 21-09-2015 14:00:00 17.05 C 11.26 g/m*3 17.05 C 2 km/h
1302 21-09-2015 15:00:00 17.20833 C 11.44 g/m*3 17.21 C 0.8 km/h
1303 21-09-2015 16:00:00 17.64167 C 11.44 g/m*3 17.64 C 0.66667 km/h
1304 21-09-2015 17:00:00 16.38333 C 11.74 g/m*3 16.38 C 0 km/h
1305 21-09-2015 18:00:00 15.38333 C 11.31 g/m*3 15.38 C 0 km/h
1306 21-09-2015 19:00:00 14.05 C 10.59 g/m*3 14.05 C 0.26667 km/h
1307 21-09-2015 20:00:00 13.6 C 10.4 g/m*3 13.6 C 0 km/h
1308 21-09-2015 21:00:00 13.4 C 10.28 g/m*3 13.4 C 0 km/h
1309 21-09-2015 22:00:00 13.025 C 10.14 g/m*3 13.03 C 0 km/h
1310 21-09-2015 23:00:00 12.89167 C 10.14 g/m*3 12.89 C 0 km/h
1311 22-09-2015 00:00:00 12.75833 C 10.16 g/m*3 12.76 C 0 km/h
1312 22-09-2015 01:00:00 12.25833 C 9.86 g/m*3 12.26 C 0 km/h
1313 22-09-2015 02:00:00 12.13333 C 9.77 g/m*3 12.13 C 0 km/h
1314 22-09-2015 03:00:00 12.15833 C 9.79 g/m*3 12.16 C 0 km/h
1315 22-09-2015 04:00:00 12.45 C 9.87 g/m*3 12.45 C 0 km/h
1316 22-09-2015 05:00:00 12.9 C 9.91 g/m*3 12.9 C 1.6 km/h
1317 22-09-2015 06:00:00 13.2 C 9.94 g/m*3 13.2 C 0.66667 km/h
1318 22-09-2015 07:00:00 12.56667 C 10.2 g/m*3 12.57 C 0.8 km/h
1319 22-09-2015 08:00:00 13.01667 C 10.56 g/m*3 13.02 C 1.06667 km/h
1320 22-09-2015 09:00:00 13.6 C 10.77 g/m*3 13.6 C 0.4 km/h
1321 22-09-2015 10:00:00 13.825 C 10.98 g/m*3 13.83 C 1.33333 km/h
1322 22-09-2015 11:00:00 14.05833 C 11.36 g/m*3 14.06 C 0.93333 km/h
1323 22-09-2015 12:00:00 14.55833 C 11.73 g/m*3 14.56 C 1.2 km/h
1324 22-09-2015 13:00:00 14.49167 C 11.51 g/m*3 14.49 C 4.41667 km/h
1325 22-09-2015 14:00:00 13.93333 C 11.15 g/m*3 13.93 C 2.14167 km/h
Sensor: Nr:Datum:Temp:Abs-Feuchte:Windchill:Wind:
Aussen-T/F 1326 22-09-2015 15:00:00 15.65833 C 11.54 g/m*3 15.66 C 6.44167 km/h
1327 22-09-2015 16:00:00 16.33333 C 11.58 g/m*3 16.33 C 3.06667 km/h
1328 22-09-2015 17:00:00 14.70833 C 11.59 g/m*3 14.71 C 0.4 km/h
1329 22-09-2015 18:00:00 13.74167 C 11.16 g/m*3 13.74 C 0.53333 km/h
1330 22-09-2015 19:00:00 12.75833 C 10.47 g/m*3 12.76 C 1.6 km/h
1331 22-09-2015 20:00:00 11.425 C 9.66 g/m*3 11.43 C 2 km/h
1332 22-09-2015 21:00:00 10.86667 C 9.35 g/m*3 10.87 C 2.13333 km/h
1333 22-09-2015 22:00:00 10.36667 C 9.14 g/m*3 10.37 C 0.4 km/h
1334 22-09-2015 23:00:00 9.84167 C 8.91 g/m*3 9.84 C 0.13333 km/h
1335 23-09-2015 00:00:00 9.875 C 8.95 g/m*3 9.88 C 0.93333 km/h
1336 23-09-2015 01:00:00 10.06667 C 9.06 g/m*3 10.07 C 0.4 km/h
1337 23-09-2015 02:00:00 10.25 C 9.05 g/m*3 10.25 C 0.53333 km/h
1338 23-09-2015 03:00:00 10.15833 C 9.07 g/m*3 10.16 C 0 km/h
1339 23-09-2015 04:00:00 10.28333 C 9.18 g/m*3 10.28 C 0 km/h
1340 23-09-2015 05:00:00 10.275 C 9.18 g/m*3 10.28 C 0.26667 km/h
1341 23-09-2015 06:00:00 10.48333 C 9.19 g/m*3 10.48 C 0.93333 km/h
1342 23-09-2015 07:00:00 10.69167 C 9.23 g/m*3 10.69 C 1.73333 km/h
1343 23-09-2015 08:00:00 10.80833 C 9.26 g/m*3 10.81 C 2.26667 km/h
1344 23-09-2015 09:00:00 11.225 C 9.38 g/m*3 11.23 C 3.75 km/h
1345 23-09-2015 10:00:00 11.825 C 9.63 g/m*3 11.83 C 3.46667 km/h
1346 23-09-2015 11:00:00 12.44167 C 10.11 g/m*3 12.44 C 4.40833 km/h
1347 23-09-2015 12:00:00 13.65 C 10.54 g/m*3 13.65 C 4.95 km/h
1348 23-09-2015 13:00:00 14.35 C 10.67 g/m*3 14.35 C 12.1 km/h
1349 23-09-2015 14:00:00 14.45833 C 10.7 g/m*3 14.46 C 11.83333 km/h
1350 23-09-2015 15:00:00 13.76667 C 10.78 g/m*3 13.77 C 10.75833 km/h
Sensor: Nr:Datum:Temp:Abs-Feuchte:Windchill:Wind:
Aussen-T/F 1351 23-09-2015 16:00:00 13.44167 C 10.76 g/m*3 13.44 C 6.85833 km/h
1352 23-09-2015 17:00:00 12.95833 C 10.57 g/m*3 12.96 C 7.51667 km/h
1353 23-09-2015 18:00:00 12.89167 C 10.59 g/m*3 12.89 C 4.69167 km/h
1354 23-09-2015 19:00:00 12.8 C 10.53 g/m*3 12.8 C 3.20833 km/h
1355 23-09-2015 20:00:00 12.74167 C 10.48 g/m*3 12.74 C 0.53333 km/h
1356 23-09-2015 21:00:00 12.45 C 10.36 g/m*3 12.45 C 0.8 km/h
1357 23-09-2015 22:00:00 12.25 C 10.34 g/m*3 12.25 C 0.8 km/h
1358 23-09-2015 23:00:00 12.06667 C 10.27 g/m*3 12.07 C 2.01667 km/h
1359 24-09-2015 00:00:00 12.05833 C 10.27 g/m*3 12.06 C 0.4 km/h
1360 24-09-2015 01:00:00 12.1 C 10.31 g/m*3 12.1 C 0 km/h
1361 24-09-2015 02:00:00 11.86667 C 10.17 g/m*3 11.87 C 0 km/h
1362 24-09-2015 03:00:00 11.34167 C 9.82 g/m*3 11.34 C 0 km/h
1363 24-09-2015 04:00:00 11.025 C 9.62 g/m*3 11.03 C 0.13333 km/h
1364 24-09-2015 05:00:00 10.30833 C 9.2 g/m*3 10.31 C 0.13333 km/h
1365 24-09-2015 06:00:00 10.05833 C 9.07 g/m*3 10.06 C 0 km/h
1366 24-09-2015 07:00:00 10.18333 C 9.2 g/m*3 10.18 C 0 km/h
1367 24-09-2015 08:00:00 10.30833 C 9.29 g/m*3 10.31 C 0 km/h
1368 24-09-2015 09:00:00 10.275 C 9.24 g/m*3 10.28 C 0 km/h
1369 24-09-2015 10:00:00 11.5 C 10.02 g/m*3 11.5 C 0 km/h
1370 24-09-2015 11:00:00 13.06667 C 11.03 g/m*3 13.07 C 1.2 km/h
1371 24-09-2015 12:00:00 14.55833 C 11.11 g/m*3 14.56 C 6.70833 km/h
1372 24-09-2015 13:00:00 16.69167 C 10.8 g/m*3 16.69 C 12.35833 km/h
1373 24-09-2015 14:00:00 16.93333 C 10.99 g/m*3 16.93 C 9.25833 km/h
1374 24-09-2015 15:00:00 17.86667 C 11.05 g/m*3 17.87 C 4.94167 km/h
1375 24-09-2015 16:00:00 17.29167 C 11.57 g/m*3 17.29 C 3.34167 km/h
Sensor: Nr:Datum:Temp:Abs-Feuchte:Windchill:Wind:
Aussen-T/F 1376 24-09-2015 17:00:00 16.78333 C 11.72 g/m*3 16.78 C 4.43333 km/h
1377 24-09-2015 18:00:00 15.24167 C 11.46 g/m*3 15.24 C 0.53333 km/h
1378 24-09-2015 19:00:00 13.66667 C 10.77 g/m*3 13.67 C 1.06667 km/h
1379 24-09-2015 20:00:00 12.79167 C 10.39 g/m*3 12.79 C 1.6 km/h
1380 24-09-2015 21:00:00 12.70833 C 10.35 g/m*3 12.71 C 0.13333 km/h
1381 24-09-2015 22:00:00 12.65 C 10.43 g/m*3 12.65 C 0 km/h
1382 24-09-2015 23:00:00 13.03333 C 10.48 g/m*3 13.03 C 1.6 km/h
1383 25-09-2015 00:00:00 13.21667 C 10.53 g/m*3 13.22 C 0.4 km/h
1384 25-09-2015 01:00:00 13.225 C 10.58 g/m*3 13.23 C 0.26667 km/h
1385 25-09-2015 02:00:00 13.40833 C 10.62 g/m*3 13.41 C 0 km/h
1386 25-09-2015 03:00:00 13.16667 C 10.55 g/m*3 13.17 C 0.26667 km/h
1387 25-09-2015 04:00:00 13.20833 C 10.41 g/m*3 13.21 C 0.8 km/h
1388 25-09-2015 05:00:00 12.29167 C 10.17 g/m*3 12.29 C 0.13333 km/h
1389 25-09-2015 06:00:00 12.48333 C 10.31 g/m*3 12.48 C 0.26667 km/h
1390 25-09-2015 07:00:00 11.30833 C 9.64 g/m*3 11.31 C 0.13333 km/h
1391 25-09-2015 08:00:00 10.98333 C 9.57 g/m*3 10.98 C 0.13333 km/h
1392 25-09-2015 09:00:00 12.21667 C 10.33 g/m*3 12.22 C 1.06667 km/h
1393 25-09-2015 10:00:00 12.85 C 10.48 g/m*3 12.85 C 0 km/h
1394 25-09-2015 11:00:00 13.84167 C 10.51 g/m*3 13.84 C 0.66667 km/h
1395 25-09-2015 12:00:00 14.59167 C 10.77 g/m*3 14.59 C 0.53333 km/h
1396 25-09-2015 13:00:00 16.975 C 10.73 g/m*3 16.98 C 2.13333 km/h
1397 25-09-2015 14:00:00 16.73333 C 10.76 g/m*3 16.73 C 2.15 km/h
1398 25-09-2015 15:00:00 18.2 C 9.62 g/m*3 18.2 C 8.34167 km/h
1399 25-09-2015 16:00:00 17.59167 C 10.27 g/m*3 17.59 C 2.94167 km/h
1400 25-09-2015 17:00:00 15.925 C 11.22 g/m*3 15.93 C 0.13333 km/h
Sensor: Nr:Datum:Temp:Abs-Feuchte:Windchill:Wind:
Aussen-T/F 1401 25-09-2015 18:00:00 15.175 C 10.72 g/m*3 15.18 C 2.00833 km/h
1402 25-09-2015 19:00:00 14.5 C 10.61 g/m*3 14.5 C 0.66667 km/h
1403 25-09-2015 20:00:00 13.53333 C 10.63 g/m*3 13.53 C 0 km/h
1404 25-09-2015 21:00:00 13.30833 C 10.55 g/m*3 13.31 C 0 km/h
1405 25-09-2015 22:00:00 13.19167 C 10.44 g/m*3 13.19 C 0.26667 km/h
1406 25-09-2015 23:00:00 12.94167 C 10.29 g/m*3 12.94 C 0 km/h
1407 26-09-2015 00:00:00 12.6 C 10.03 g/m*3 12.6 C 0 km/h
1408 26-09-2015 01:00:00 12.21667 C 9.85 g/m*3 12.22 C 0 km/h
1409 26-09-2015 02:00:00 11.95833 C 9.69 g/m*3 11.96 C 0 km/h
1410 26-09-2015 03:00:00 11.55833 C 9.45 g/m*3 11.56 C 0.26667 km/h
1411 26-09-2015 04:00:00 11.25 C 9.33 g/m*3 11.25 C 0 km/h
1412 26-09-2015 05:00:00 11.125 C 9.34 g/m*3 11.13 C 0 km/h
1413 26-09-2015 06:00:00 11.075 C 9.32 g/m*3 11.08 C 0 km/h
1414 26-09-2015 07:00:00 10.80833 C 9.21 g/m*3 10.81 C 0 km/h
1415 26-09-2015 08:00:00 11.10833 C 9.42 g/m*3 11.11 C 0.26667 km/h
1416 26-09-2015 09:00:00 12.00833 C 9.72 g/m*3 12.01 C 0.53333 km/h
1417 26-09-2015 10:00:00 13.08333 C 10.1 g/m*3 13.08 C 1.73333 km/h
1418 26-09-2015 11:00:00 14.04167 C 10.38 g/m*3 14.04 C 6.15 km/h
1419 26-09-2015 12:00:00 14.63333 C 10.52 g/m*3 14.63 C 3.73333 km/h
1420 26-09-2015 13:00:00 15.525 C 10.71 g/m*3 15.53 C 2.4 km/h
1421 26-09-2015 14:00:00 15.58333 C 10.6 g/m*3 15.58 C 3.06667 km/h
1422 26-09-2015 15:00:00 14.34167 C 10.89 g/m*3 14.34 C 1.46667 km/h
1423 26-09-2015 16:00:00 15.075 C 10.73 g/m*3 15.08 C 6.29167 km/h
1424 26-09-2015 17:00:00 14.625 C 10.51 g/m*3 14.63 C 4.15 km/h
1425 26-09-2015 18:00:00 13.75 C 10.62 g/m*3 13.75 C 0.53333 km/h
Sensor: Nr:Datum:Temp:Abs-Feuchte:Windchill:Wind:
Aussen-T/F 1426 26-09-2015 19:00:00 13.06667 C 10.26 g/m*3 13.07 C 0 km/h
1427 26-09-2015 20:00:00 12.08333 C 9.77 g/m*3 12.08 C 0.26667 km/h
1428 26-09-2015 21:00:00 11.65 C 9.67 g/m*3 11.65 C 0 km/h
1429 26-09-2015 22:00:00 11.36667 C 9.42 g/m*3 11.37 C 0 km/h
1430 26-09-2015 23:00:00 11.2 C 9.33 g/m*3 11.2 C 0 km/h
1431 27-09-2015 00:00:00 10.925 C 9.15 g/m*3 10.93 C 0.13333 km/h
1432 27-09-2015 01:00:00 10.49167 C 8.81 g/m*3 10.49 C 0.13333 km/h
1433 27-09-2015 02:00:00 9.925 C 8.53 g/m*3 9.93 C 0 km/h
1434 27-09-2015 03:00:00 9.24167 C 8.28 g/m*3 9.24 C 0 km/h
1435 27-09-2015 04:00:00 8.53333 C 8.03 g/m*3 8.53 C 0 km/h
1436 27-09-2015 05:00:00 7.975 C 7.81 g/m*3 7.98 C 0 km/h
1437 27-09-2015 06:00:00 7.53333 C 7.62 g/m*3 7.53 C 0 km/h
1438 27-09-2015 07:00:00 7.15 C 7.46 g/m*3 7.15 C 0 km/h
1439 27-09-2015 08:00:00 7.18333 C 7.53 g/m*3 7.18 C 0 km/h
1440 27-09-2015 09:00:00 8 C 7.94 g/m*3 8 C 0 km/h
1441 27-09-2015 10:00:00 8.9 C 8.41 g/m*3 8.9 C 0 km/h
1442 27-09-2015 11:00:00 10.39167 C 9.16 g/m*3 10.39 C 0.13333 km/h
1443 27-09-2015 12:00:00 12.975 C 9.11 g/m*3 12.98 C 4.275 km/h
1444 27-09-2015 13:00:00 15.54167 C 8.56 g/m*3 15.54 C 5.76667 km/h
1445 27-09-2015 14:00:00 17.04167 C 8.49 g/m*3 17.04 C 10.21667 km/h
1446 27-09-2015 15:00:00 17.40833 C 8.55 g/m*3 17.41 C 12.09167 km/h
1447 27-09-2015 16:00:00 17.20833 C 8.61 g/m*3 17.21 C 7.39167 km/h
1448 27-09-2015 17:00:00 16.78333 C 8.76 g/m*3 16.78 C 5.09167 km/h
1449 27-09-2015 18:00:00 14.88333 C 9.19 g/m*3 14.88 C 0.53333 km/h
1450 27-09-2015 19:00:00 12.425 C 8.85 g/m*3 12.43 C 0.53333 km/h
Sensor: Nr:Datum:Temp:Abs-Feuchte:Windchill:Wind:
Aussen-T/F 1451 27-09-2015 20:00:00 11.40833 C 8.53 g/m*3 11.41 C 0.26667 km/h
1452 27-09-2015 21:00:00 10.24167 C 8.29 g/m*3 10.24 C 0 km/h
1453 27-09-2015 22:00:00 9.55 C 8.06 g/m*3 9.55 C 0 km/h
1454 27-09-2015 23:00:00 9.3 C 8.01 g/m*3 9.3 C 0.13333 km/h
1455 28-09-2015 00:00:00 9.075 C 7.91 g/m*3 9.07 C 0.4 km/h
1456 28-09-2015 01:00:00 8.525 C 7.72 g/m*3 8.53 C 0 km/h
1457 28-09-2015 02:00:00 7.74167 C 7.51 g/m*3 7.74 C 0 km/h
1458 28-09-2015 03:00:00 7.13333 C 7.32 g/m*3 7.13 C 0 km/h
1459 28-09-2015 04:00:00 6.71667 C 7.17 g/m*3 6.72 C 0 km/h
1460 28-09-2015 05:00:00 6.40833 C 7.08 g/m*3 6.41 C 0 km/h
1461 28-09-2015 06:00:00 6.075 C 6.93 g/m*3 6.08 C 0 km/h
1462 28-09-2015 07:00:00 5.625 C 6.74 g/m*3 5.63 C 0 km/h
1463 28-09-2015 08:00:00 5.71667 C 6.84 g/m*3 5.72 C 0 km/h
1464 28-09-2015 09:00:00 6.48333 C 7.2 g/m*3 6.48 C 0 km/h
1465 28-09-2015 10:00:00 7.73333 C 7.84 g/m*3 7.73 C 0 km/h
1466 28-09-2015 11:00:00 9.41667 C 8.71 g/m*3 9.42 C 0.13333 km/h
1467 28-09-2015 12:00:00 11.94167 C 9.19 g/m*3 11.94 C 4.01667 km/h
1468 28-09-2015 13:00:00 16.325 C 8.48 g/m*3 16.33 C 10.61667 km/h
1469 28-09-2015 14:00:00 16.98333 C 8.13 g/m*3 16.98 C 10.89167 km/h
1470 28-09-2015 15:00:00 17.30833 C 8.25 g/m*3 17.31 C 8.06667 km/h
1471 28-09-2015 16:00:00 17.65 C 7.97 g/m*3 17.65 C 6.7 km/h
1472 28-09-2015 17:00:00 17.00833 C 7.94 g/m*3 17.01 C 7.65833 km/h
1473 28-09-2015 18:00:00 15.59167 C 8.52 g/m*3 15.59 C 3.20833 km/h
1474 28-09-2015 19:00:00 12.51667 C 8.48 g/m*3 12.52 C 1.46667 km/h
1475 28-09-2015 20:00:00 11.35833 C 8.28 g/m*3 11.36 C 0.93333 km/h
Sensor: Nr:Datum:Temp:Abs-Feuchte:Windchill:Wind:
Aussen-T/F 1476 28-09-2015 21:00:00 10.325 C 8.12 g/m*3 10.33 C 0 km/h
1477 28-09-2015 22:00:00 9.65 C 8.04 g/m*3 9.65 C 0 km/h
1478 28-09-2015 23:00:00 8.86667 C 7.83 g/m*3 8.87 C 0 km/h
1479 29-09-2015 00:00:00 8.31667 C 7.75 g/m*3 8.32 C 0.13333 km/h
1480 29-09-2015 01:00:00 7.8 C 7.54 g/m*3 7.8 C 0 km/h
1481 29-09-2015 02:00:00 7.23333 C 7.37 g/m*3 7.23 C 0 km/h
1482 29-09-2015 03:00:00 6.80833 C 7.22 g/m*3 6.81 C 0 km/h
1483 29-09-2015 04:00:00 6.6 C 7.17 g/m*3 6.6 C 0 km/h
1484 29-09-2015 05:00:00 6.45 C 7.11 g/m*3 6.45 C 0 km/h
1485 29-09-2015 06:00:00 6.4 C 7.1 g/m*3 6.4 C 0 km/h
1486 29-09-2015 07:00:00 6.41667 C 7.12 g/m*3 6.42 C 0 km/h
1487 29-09-2015 08:00:00 6.78333 C 7.33 g/m*3 6.78 C 0 km/h
1488 29-09-2015 09:00:00 7.5 C 7.68 g/m*3 7.5 C 0 km/h
1489 29-09-2015 10:00:00 8.85 C 8.33 g/m*3 8.85 C 0.8 km/h
1490 29-09-2015 11:00:00 11.55 C 8.93 g/m*3 11.55 C 3.6 km/h
1491 29-09-2015 12:00:00 14 C 8.67 g/m*3 14 C 8.48333 km/h
1492 29-09-2015 13:00:00 16.475 C 8.73 g/m*3 16.48 C 11.15 km/h
1493 29-09-2015 14:00:00 16.98333 C 8.59 g/m*3 16.98 C 10.35 km/h
1494 29-09-2015 15:00:00 16.96667 C 8.69 g/m*3 16.97 C 9.675 km/h
1495 29-09-2015 16:00:00 17.41667 C 8.44 g/m*3 17.42 C 10.725 km/h
1496 29-09-2015 17:00:00 16.60833 C 8.44 g/m*3 16.61 C 10.75 km/h
1497 29-09-2015 18:00:00 15.575 C 8.65 g/m*3 15.58 C 2.4 km/h
1498 29-09-2015 19:00:00 13.28333 C 8.33 g/m*3 13.28 C 1.46667 km/h
1499 29-09-2015 20:00:00 11.78333 C 8.17 g/m*3 11.78 C 1.73333 km/h
1500 29-09-2015 21:00:00 11.55 C 8.11 g/m*3 11.55 C 1.73333 km/h
Sensor: Nr:Datum:Temp:Abs-Feuchte:Windchill:Wind:
Aussen-T/F 1501 29-09-2015 22:00:00 10.95 C 8 g/m*3 10.95 C 2.4 km/h
1502 29-09-2015 23:00:00 10.975 C 7.87 g/m*3 10.98 C 2.66667 km/h
1503 30-09-2015 00:00:00 9.84167 C 7.68 g/m*3 9.84 C 0.66667 km/h
1504 30-09-2015 01:00:00 8.89167 C 7.55 g/m*3 8.89 C 0.13333 km/h
1505 30-09-2015 02:00:00 8.45833 C 7.5 g/m*3 8.46 C 0.13333 km/h
1506 30-09-2015 03:00:00 8.05833 C 7.41 g/m*3 8.06 C 0 km/h
1507 30-09-2015 04:00:00 7.775 C 7.37 g/m*3 7.78 C 0.13333 km/h
1508 30-09-2015 05:00:00 7.4 C 7.26 g/m*3 7.4 C 0.13333 km/h
1509 30-09-2015 06:00:00 7.025 C 7.16 g/m*3 7.03 C 0.13333 km/h
1510 30-09-2015 07:00:00 6.50833 C 6.98 g/m*3 6.51 C 0.13333 km/h
1511 30-09-2015 08:00:00 6.425 C 7.01 g/m*3 6.43 C 0 km/h
1512 30-09-2015 09:00:00 7.08333 C 7.32 g/m*3 7.08 C 0 km/h
1513 30-09-2015 10:00:00 8.06667 C 7.71 g/m*3 8.07 C 0.26667 km/h
1514 30-09-2015 11:00:00 9.95 C 8.23 g/m*3 9.95 C 2 km/h
1515 30-09-2015 12:00:00 13.16667 C 7.78 g/m*3 13.17 C 7.50833 km/h
1516 30-09-2015 13:00:00 15.65 C 7.99 g/m*3 15.65 C 12.36667 km/h
1517 30-09-2015 14:00:00 16.3 C 7.91 g/m*3 16.3 C 11.94167 km/h
1518 30-09-2015 15:00:00 16.55833 C 7.84 g/m*3 16.56 C 16.63333 km/h
1519 30-09-2015 16:00:00 16.30833 C 7.76 g/m*3 16.31 C 8.31667 km/h
1520 30-09-2015 17:00:00 16.25 C 7.54 g/m*3 16.25 C 11.825 km/h
1521 30-09-2015 18:00:00 15.4 C 7.78 g/m*3 15.4 C 4.83333 km/h
1522 30-09-2015 19:00:00 12.09167 C 7.59 g/m*3 12.09 C 0.93333 km/h
1523 30-09-2015 20:00:00 10.825 C 7.47 g/m*3 10.83 C 1.33333 km/h
1524 30-09-2015 21:00:00 10.20833 C 7.33 g/m*3 10.21 C 1.2 km/h
1525 30-09-2015 22:00:00 9.95 C 7.2 g/m*3 9.95 C 1.06667 km/h
Sensor: Nr:Datum:Temp:Abs-Feuchte:Windchill:Wind:
Aussen-T/F 1526 30-09-2015 23:00:00 9.41667 C 7.02 g/m*3 9.42 C 0.8 km/h
1527 01-10-2015 00:00:00 9.06667 C 6.94 g/m*3 9.07 C 0.66667 km/h
1528 01-10-2015 01:00:00 7.98333 C 6.77 g/m*3 7.98 C 0.4 km/h
1529 01-10-2015 02:00:00 7.3 C 6.62 g/m*3 7.3 C 0.8 km/h
1530 01-10-2015 03:00:00 7.225 C 6.58 g/m*3 7.23 C 0.66667 km/h
1531 01-10-2015 04:00:00 6.55833 C 6.48 g/m*3 6.56 C 0.13333 km/h
1532 01-10-2015 05:00:00 6.03333 C 6.41 g/m*3 6.03 C 0 km/h
1533 01-10-2015 06:00:00 5.96667 C 6.41 g/m*3 5.97 C 0.8 km/h
1534 01-10-2015 07:00:00 5.69167 C 6.35 g/m*3 5.69 C 1.06667 km/h
1535 01-10-2015 08:00:00 5.51667 C 6.33 g/m*3 5.52 C 0 km/h
1536 01-10-2015 09:00:00 6.15 C 6.61 g/m*3 6.15 C 0.26667 km/h
1537 01-10-2015 10:00:00 7.6 C 6.92 g/m*3 7.6 C 2.66667 km/h
1538 01-10-2015 11:00:00 10.48333 C 6.77 g/m*3 10.05 C 5.9 km/h
1539 01-10-2015 12:00:00 11.81667 C 6.77 g/m*3 11.82 C 5.75833 km/h
1540 01-10-2015 13:00:00 14.525 C 6.84 g/m*3 14.53 C 9.53333 km/h
1541 01-10-2015 14:00:00 15.16667 C 6.75 g/m*3 15.17 C 12.75833 km/h
1542 01-10-2015 15:00:00 15.58333 C 6.95 g/m*3 15.58 C 13.03333 km/h
1543 01-10-2015 16:00:00 16.06667 C 6.9 g/m*3 16.07 C 11.28333 km/h
1544 01-10-2015 17:00:00 15.70833 C 7.07 g/m*3 15.71 C 7.10833 km/h
1545 01-10-2015 18:00:00 13.65 C 7.92 g/m*3 13.65 C 1.86667 km/h
1546 01-10-2015 19:00:00 11.25 C 7.61 g/m*3 11.25 C 1.73333 km/h
1547 01-10-2015 20:00:00 10.1 C 7.31 g/m*3 10.1 C 0.93333 km/h
1548 01-10-2015 21:00:00 9.425 C 7.08 g/m*3 9.43 C 1.2 km/h
1549 01-10-2015 22:00:00 9.49167 C 7.01 g/m*3 9.49 C 1.86667 km/h
1550 01-10-2015 23:00:00 8.91667 C 6.95 g/m*3 8.92 C 0.8 km/h
Sensor: Nr:Datum:Temp:Abs-Feuchte:Windchill:Wind:
Aussen-T/F 1551 02-10-2015 00:00:00 7.675 C 6.79 g/m*3 7.68 C 0 km/h
1552 02-10-2015 01:00:00 6.73333 C 6.62 g/m*3 6.73 C 0 km/h
1553 02-10-2015 02:00:00 5.94167 C 6.45 g/m*3 5.94 C 0 km/h
1554 02-10-2015 03:00:00 5.28333 C 6.32 g/m*3 5.28 C 0 km/h
1555 02-10-2015 04:00:00 4.8 C 6.2 g/m*3 4.8 C 0.26667 km/h
1556 02-10-2015 05:00:00 4.28333 C 6.06 g/m*3 4.28 C 0 km/h
1557 02-10-2015 06:00:00 3.81667 C 5.91 g/m*3 3.82 C 0 km/h
1558 02-10-2015 07:00:00 3.59167 C 5.88 g/m*3 3.59 C 0 km/h
1559 02-10-2015 08:00:00 3.74167 C 5.96 g/m*3 3.74 C 0 km/h
1560 02-10-2015 09:00:00 4.3 C 6.21 g/m*3 4.3 C 0 km/h
1561 02-10-2015 10:00:00 5.75 C 6.85 g/m*3 5.75 C 0 km/h
1562 02-10-2015 11:00:00 7.45833 C 7.58 g/m*3 7.46 C 0 km/h
1563 02-10-2015 12:00:00 9.34167 C 8.24 g/m*3 9.34 C 0 km/h
1564 02-10-2015 13:00:00 12.90833 C 9.34 g/m*3 12.91 C 1.46667 km/h
1565 02-10-2015 14:00:00 14.53333 C 9.72 g/m*3 14.53 C 1.33333 km/h
1566 02-10-2015 15:00:00 15.95833 C 9.33 g/m*3 15.96 C 4.83333 km/h
1567 02-10-2015 16:00:00 17.75 C 9.02 g/m*3 17.75 C 4.40833 km/h
1568 02-10-2015 17:00:00 15.84167 C 9.41 g/m*3 15.84 C 3.33333 km/h
1569 02-10-2015 18:00:00 14.49167 C 9.52 g/m*3 14.49 C 2.26667 km/h
1570 02-10-2015 19:00:00 12.975 C 8.9 g/m*3 12.98 C 2.26667 km/h
1571 02-10-2015 20:00:00 12 C 8.6 g/m*3 12 C 1.46667 km/h
1572 02-10-2015 21:00:00 11.425 C 8.44 g/m*3 11.43 C 0.4 km/h
1573 02-10-2015 22:00:00 10.7 C 8.19 g/m*3 10.7 C 0.4 km/h
1574 02-10-2015 23:00:00 9.86667 C 7.9 g/m*3 9.87 C 0.26667 km/h
1575 03-10-2015 00:00:00 9.225 C 7.76 g/m*3 9.23 C 0 km/h
Sensor: Nr:Datum:Temp:Abs-Feuchte:Windchill:Wind:
Aussen-T/F 1576 03-10-2015 01:00:00 8.65833 C 7.69 g/m*3 8.66 C 0.13333 km/h
1577 03-10-2015 02:00:00 8.4 C 7.72 g/m*3 8.4 C 0.26667 km/h
1578 03-10-2015 03:00:00 8.19167 C 7.65 g/m*3 8.19 C 0 km/h
1579 03-10-2015 04:00:00 7.50833 C 7.41 g/m*3 7.51 C 0 km/h
1580 03-10-2015 05:00:00 7.06667 C 7.24 g/m*3 7.07 C 0 km/h
1581 03-10-2015 06:00:00 6.70833 C 7.15 g/m*3 6.71 C 0 km/h
1582 03-10-2015 07:00:00 6.41667 C 7.07 g/m*3 6.42 C 0.13333 km/h
1583 03-10-2015 08:00:00 6.45 C 7.1 g/m*3 6.45 C 0 km/h
1584 03-10-2015 09:00:00 7.11667 C 7.44 g/m*3 7.12 C 0 km/h
1585 03-10-2015 10:00:00 8.31667 C 7.99 g/m*3 8.32 C 0.66667 km/h
1586 03-10-2015 11:00:00 9.875 C 8.66 g/m*3 9.88 C 0 km/h
1587 03-10-2015 12:00:00 11.68333 C 9.52 g/m*3 11.68 C 0.53333 km/h
1588 03-10-2015 13:00:00 15.925 C 10.76 g/m*3 15.93 C 4.15833 km/h
1589 03-10-2015 14:00:00 18.15 C 10.56 g/m*3 18.15 C 6.43333 km/h
1590 03-10-2015 15:00:00 19.25833 C 10.42 g/m*3 19.26 C 6.725 km/h
1591 03-10-2015 16:00:00 18.80833 C 11.14 g/m*3 18.81 C 3.60833 km/h
1592 03-10-2015 17:00:00 17.83333 C 10.14 g/m*3 17.83 C 3.875 km/h
1593 03-10-2015 18:00:00 15.975 C 10.37 g/m*3 15.98 C 1.73333 km/h
1594 03-10-2015 19:00:00 14.66667 C 10.11 g/m*3 14.67 C 1.73333 km/h
1595 03-10-2015 20:00:00 13.18333 C 9.85 g/m*3 13.18 C 0.26667 km/h
1596 03-10-2015 21:00:00 12.16667 C 9.49 g/m*3 12.17 C 0.13333 km/h
1597 03-10-2015 22:00:00 11.39167 C 9.33 g/m*3 11.39 C 0 km/h
1598 03-10-2015 23:00:00 10.65833 C 9 g/m*3 10.66 C 0.13333 km/h
1599 04-10-2015 00:00:00 10.25833 C 8.91 g/m*3 10.26 C 0 km/h
1600 04-10-2015 01:00:00 10.08333 C 8.88 g/m*3 10.08 C 0.53333 km/h
Sensor: Nr:Datum:Temp:Abs-Feuchte:Windchill:Wind:
Aussen-T/F 1601 04-10-2015 02:00:00 9.80833 C 8.75 g/m*3 9.81 C 0 km/h
1602 04-10-2015 03:00:00 9.73333 C 8.78 g/m*3 9.73 C 0 km/h
1603 04-10-2015 04:00:00 9.55 C 8.67 g/m*3 9.55 C 0 km/h
1604 04-10-2015 05:00:00 9.79167 C 8.87 g/m*3 9.79 C 0.13333 km/h
1605 04-10-2015 06:00:00 10.18333 C 9.13 g/m*3 10.18 C 1.2 km/h
1606 04-10-2015 07:00:00 11.325 C 9.81 g/m*3 11.33 C 0.66667 km/h
1607 04-10-2015 08:00:00 11.75833 C 10.08 g/m*3 11.76 C 0.13333 km/h
1608 04-10-2015 09:00:00 12.45833 C 10.6 g/m*3 12.46 C 0.93333 km/h
1609 04-10-2015 10:00:00 13.29167 C 11.14 g/m*3 13.29 C 0.26667 km/h
1610 04-10-2015 11:00:00 14.46667 C 11.83 g/m*3 14.47 C 1.86667 km/h
1611 04-10-2015 12:00:00 15.95 C 12.09 g/m*3 15.95 C 8.20833 km/h
1612 04-10-2015 13:00:00 16.45833 C 11.59 g/m*3 16.46 C 9.01667 km/h
1613 04-10-2015 14:00:00 16.525 C 11.6 g/m*3 16.52 C 8.20833 km/h
1614 04-10-2015 15:00:00 17.10833 C 11.44 g/m*3 17.11 C 8.19167 km/h
1615 04-10-2015 16:00:00 16.96667 C 11.34 g/m*3 16.97 C 5.65 km/h
1616 04-10-2015 17:00:00 15.325 C 11.45 g/m*3 15.33 C 0.66667 km/h
1617 04-10-2015 18:00:00 14.94167 C 11.36 g/m*3 14.94 C 0.26667 km/h
1618 04-10-2015 19:00:00 13.525 C 10.6 g/m*3 13.53 C 1.06667 km/h
1619 04-10-2015 20:00:00 12.4 C 10.03 g/m*3 12.4 C 0.4 km/h
1620 04-10-2015 21:00:00 11.08333 C 9.32 g/m*3 11.08 C 0.13333 km/h
1621 04-10-2015 22:00:00 10.175 C 8.97 g/m*3 10.18 C 0 km/h
1622 04-10-2015 23:00:00 9.60833 C 8.71 g/m*3 9.61 C 0 km/h
1623 05-10-2015 00:00:00 9.04167 C 8.45 g/m*3 9.04 C 0 km/h
1624 05-10-2015 01:00:00 8.81667 C 8.36 g/m*3 8.82 C 0 km/h
1625 05-10-2015 02:00:00 8.66667 C 8.28 g/m*3 8.67 C 0 km/h
Sensor: Nr:Datum:Temp:Abs-Feuchte:Windchill:Wind:
Aussen-T/F 1626 05-10-2015 03:00:00 8.73333 C 8.36 g/m*3 8.73 C 0 km/h
1627 05-10-2015 04:00:00 8.9 C 8.5 g/m*3 8.9 C 0 km/h
1628 05-10-2015 05:00:00 9.26667 C 8.7 g/m*3 9.27 C 0.13333 km/h
1629 05-10-2015 06:00:00 9.15 C 8.63 g/m*3 9.15 C 0.26667 km/h
1630 05-10-2015 07:00:00 8.79167 C 8.44 g/m*3 8.79 C 0.66667 km/h
1631 05-10-2015 08:00:00 8.40833 C 8.23 g/m*3 8.41 C 2.53333 km/h
1632 05-10-2015 09:00:00 9.15 C 8.64 g/m*3 9.15 C 0 km/h
1633 05-10-2015 10:00:00 11.19167 C 9.89 g/m*3 11.19 C 1.6 km/h
1634 05-10-2015 11:00:00 13.28333 C 10.82 g/m*3 13.28 C 3.60833 km/h
1635 05-10-2015 12:00:00 15.20833 C 10.82 g/m*3 15.21 C 5.49167 km/h
1636 05-10-2015 13:00:00 15.43333 C 10.62 g/m*3 15.43 C 8.45833 km/h
1637 05-10-2015 14:00:00 15.31667 C 10.6 g/m*3 15.32 C 7.775 km/h
1638 05-10-2015 15:00:00 15.275 C 10.79 g/m*3 15.28 C 6.96667 km/h
1639 05-10-2015 16:00:00 15.34167 C 10.94 g/m*3 15.34 C 2.66667 km/h
1640 05-10-2015 17:00:00 15.625 C 11.31 g/m*3 15.63 C 0.93333 km/h
1641 05-10-2015 18:00:00 14.54167 C 11.24 g/m*3 14.54 C 0 km/h
1642 05-10-2015 19:00:00 13.51667 C 10.85 g/m*3 13.52 C 0 km/h
1643 05-10-2015 20:00:00 13.36667 C 10.9 g/m*3 13.37 C 0 km/h
1644 05-10-2015 21:00:00 13.53333 C 11.12 g/m*3 13.53 C 0 km/h
1645 05-10-2015 22:00:00 13.325 C 11.11 g/m*3 13.33 C 0 km/h
1646 05-10-2015 23:00:00 13.3 C 11.09 g/m*3 13.3 C 0 km/h
1647 06-10-2015 00:00:00 13.35 C 11.21 g/m*3 13.35 C 0 km/h
1648 06-10-2015 01:00:00 13.51667 C 11.36 g/m*3 13.52 C 0.93333 km/h
1649 06-10-2015 02:00:00 14.26667 C 11.89 g/m*3 14.27 C 6.29167 km/h
1650 06-10-2015 03:00:00 14.525 C 12 g/m*3 14.53 C 2.675 km/h
Sensor: Nr:Datum:Temp:Abs-Feuchte:Windchill:Wind:
Aussen-T/F 1651 06-10-2015 04:00:00 14.44167 C 11.9 g/m*3 14.44 C 0.13333 km/h
1652 06-10-2015 05:00:00 14.60833 C 12.13 g/m*3 14.61 C 0.26667 km/h
1653 06-10-2015 06:00:00 15 C 12.44 g/m*3 15 C 0 km/h
1654 06-10-2015 07:00:00 15.11667 C 12.53 g/m*3 15.12 C 0 km/h
1655 06-10-2015 08:00:00 15.3 C 12.61 g/m*3 15.3 C 0 km/h
1656 06-10-2015 09:00:00 15.88333 C 13.06 g/m*3 15.88 C 0 km/h
1657 06-10-2015 10:00:00 16.65833 C 13.61 g/m*3 16.66 C 0 km/h
1658 06-10-2015 11:00:00 17.11667 C 13.9 g/m*3 17.12 C 0 km/h
1659 06-10-2015 12:00:00 18.30833 C 14.54 g/m*3 18.31 C 0 km/h
1660 06-10-2015 13:00:00 19.54167 C 14.65 g/m*3 19.54 C 0 km/h
1661 06-10-2015 14:00:00 19.29167 C 14.63 g/m*3 19.29 C 0 km/h
1662 06-10-2015 15:00:00 18.19167 C 14.64 g/m*3 18.19 C 0 km/h
1663 06-10-2015 16:00:00 18.23333 C 14.72 g/m*3 18.23 C 0 km/h
1664 06-10-2015 17:00:00 17.84167 C 14.33 g/m*3 17.84 C 0 km/h
1665 06-10-2015 18:00:00 16.69167 C 13.58 g/m*3 16.69 C 0 km/h
1666 06-10-2015 19:00:00 15.575 C 12.75 g/m*3 15.58 C 0 km/h
1667 06-10-2015 20:00:00 14.89167 C 12.27 g/m*3 14.89 C 0 km/h
1668 06-10-2015 21:00:00 14.75833 C 12.26 g/m*3 14.76 C 0 km/h
1669 06-10-2015 22:00:00 14.88333 C 12.35 g/m*3 14.88 C 0 km/h
1670 06-10-2015 23:00:00 14.53333 C 12.09 g/m*3 14.53 C 0 km/h
1671 07-10-2015 00:00:00 14.33333 C 11.94 g/m*3 14.33 C 0 km/h
1672 07-10-2015 01:00:00 14.24167 C 11.87 g/m*3 14.24 C 0 km/h
1673 07-10-2015 02:00:00 14.15833 C 11.81 g/m*3 14.16 C 0 km/h
1674 07-10-2015 03:00:00 14.1 C 11.81 g/m*3 14.1 C 0.13333 km/h
1675 07-10-2015 04:00:00 14 C 11.74 g/m*3 14 C 0.13333 km/h
Sensor: Nr:Datum:Temp:Abs-Feuchte:Windchill:Wind:
Aussen-T/F 1676 07-10-2015 05:00:00 14.05 C 11.84 g/m*3 14.05 C 0 km/h
1677 07-10-2015 06:00:00 14.18333 C 11.95 g/m*3 14.18 C 0 km/h
1678 07-10-2015 07:00:00 14.35833 C 12.06 g/m*3 14.36 C 0 km/h
1679 07-10-2015 08:00:00 14.275 C 11.91 g/m*3 14.28 C 0 km/h
1680 07-10-2015 09:00:00 14.88333 C 12.04 g/m*3 14.88 C 4.43333 km/h
1681 07-10-2015 10:00:00 15.6 C 11.74 g/m*3 15.6 C 13.7 km/h
1682 07-10-2015 11:00:00 15.54167 C 11.26 g/m*3 15.54 C 13.7 km/h
1683 07-10-2015 12:00:00 16.4 C 11.45 g/m*3 16.4 C 14.76667 km/h
1684 07-10-2015 13:00:00 17.01667 C 11.5 g/m*3 17.02 C 15.7 km/h
1685 07-10-2015 14:00:00 16.875 C 11.43 g/m*3 16.88 C 10.61667 km/h
1686 07-10-2015 15:00:00 16.74167 C 11.41 g/m*3 16.74 C 8.99167 km/h
1687 07-10-2015 16:00:00 16.58333 C 11.44 g/m*3 16.58 C 10.48333 km/h
1688 07-10-2015 17:00:00 16.05 C 11.27 g/m*3 16.05 C 9.53333 km/h
1689 07-10-2015 18:00:00 15.2 C 11.11 g/m*3 15.2 C 3.60833 km/h
1690 07-10-2015 19:00:00 14.79167 C 10.9 g/m*3 14.79 C 5.9 km/h
1691 07-10-2015 20:00:00 14.59167 C 10.73 g/m*3 14.59 C 4.28333 km/h
1692 07-10-2015 21:00:00 14.05 C 10.54 g/m*3 14.05 C 2.14167 km/h
1693 07-10-2015 22:00:00 13.93333 C 10.44 g/m*3 13.93 C 2.55 km/h
1694 07-10-2015 23:00:00 13.80833 C 10.27 g/m*3 13.81 C 3.06667 km/h
1695 08-10-2015 00:00:00 13.45 C 10.23 g/m*3 13.45 C 1.2 km/h
1696 08-10-2015 01:00:00 13.49167 C 10.23 g/m*3 13.49 C 3.20833 km/h
1697 08-10-2015 02:00:00 13.05 C 10.23 g/m*3 13.05 C 0.26667 km/h
1698 08-10-2015 03:00:00 12.65833 C 10.19 g/m*3 12.66 C 0.26667 km/h
1699 08-10-2015 04:00:00 12.40833 C 10.06 g/m*3 12.41 C 0 km/h
1700 08-10-2015 05:00:00 11.65 C 9.77 g/m*3 11.65 C 0 km/h
Sensor: Nr:Datum:Temp:Abs-Feuchte:Windchill:Wind:
Aussen-T/F 1701 08-10-2015 06:00:00 11.9 C 9.83 g/m*3 11.9 C 0.53333 km/h
1702 08-10-2015 07:00:00 11.70833 C 9.77 g/m*3 11.71 C 0.13333 km/h
1703 08-10-2015 08:00:00 11.625 C 9.79 g/m*3 11.63 C 0 km/h
1704 08-10-2015 09:00:00 12.38333 C 9.98 g/m*3 12.38 C 1.6 km/h
1705 08-10-2015 10:00:00 13.71667 C 10.11 g/m*3 13.72 C 6.18333 km/h
1706 08-10-2015 11:00:00 14.51667 C 10.01 g/m*3 14.52 C 6.45 km/h
1707 08-10-2015 12:00:00 15.34167 C 9.9 g/m*3 15.34 C 6.025 km/h
1708 08-10-2015 13:00:00 16.125 C 9.95 g/m*3 16.13 C 1.86667 km/h
1709 08-10-2015 14:00:00 16.04167 C 10.24 g/m*3 16.04 C 5.5 km/h
1710 08-10-2015 15:00:00 14.75 C 10.58 g/m*3 14.75 C 2.4 km/h
1711 08-10-2015 16:00:00 14.675 C 10.55 g/m*3 14.68 C 4.66667 km/h
1712 08-10-2015 17:00:00 14.51667 C 10.32 g/m*3 14.52 C 3.33333 km/h
1713 08-10-2015 18:00:00 13.89167 C 10.28 g/m*3 13.89 C 1.60833 km/h
1714 08-10-2015 19:00:00 13.475 C 10.09 g/m*3 13.48 C 4.40833 km/h
1715 08-10-2015 20:00:00 13.2 C 10.18 g/m*3 13.2 C 1.2 km/h
1716 08-10-2015 21:00:00 12.975 C 10.13 g/m*3 12.98 C 1.2 km/h
1717 08-10-2015 22:00:00 12.74167 C 10.14 g/m*3 12.74 C 0.66667 km/h
1718 08-10-2015 23:00:00 12.63333 C 10.12 g/m*3 12.63 C 0 km/h
1719 09-10-2015 00:00:00 12.56667 C 10.15 g/m*3 12.57 C 0 km/h
1720 09-10-2015 01:00:00 12.40833 C 10.16 g/m*3 12.41 C 0 km/h
1721 09-10-2015 02:00:00 12.24167 C 10.17 g/m*3 12.24 C 0 km/h
1722 09-10-2015 03:00:00 12.18333 C 10.13 g/m*3 12.18 C 0 km/h
1723 09-10-2015 04:00:00 12.10833 C 10.11 g/m*3 12.11 C 0 km/h
1724 09-10-2015 05:00:00 12.1 C 10.09 g/m*3 12.1 C 0 km/h
1725 09-10-2015 06:00:00 12.21667 C 10.06 g/m*3 12.22 C 0 km/h
Sensor: Nr:Datum:Temp:Abs-Feuchte:Windchill:Wind:
Aussen-T/F 1726 09-10-2015 07:00:00 12.18333 C 10.03 g/m*3 12.18 C 0 km/h
1727 09-10-2015 08:00:00 11.925 C 9.9 g/m*3 11.93 C 0 km/h
1728 09-10-2015 09:00:00 11.725 C 9.9 g/m*3 11.73 C 0 km/h
1729 09-10-2015 10:00:00 11.78333 C 9.94 g/m*3 11.78 C 0 km/h
1730 09-10-2015 11:00:00 11.675 C 9.71 g/m*3 11.68 C 0 km/h
1731 09-10-2015 12:00:00 12.19167 C 9.91 g/m*3 12.19 C 0 km/h
1732 09-10-2015 13:00:00 12.775 C 10.12 g/m*3 12.78 C 0 km/h
1733 09-10-2015 14:00:00 12.94167 C 10.1 g/m*3 12.94 C 0 km/h
1734 09-10-2015 15:00:00 12.98333 C 10.17 g/m*3 12.98 C 0 km/h
1735 09-10-2015 16:00:00 12.9 C 10.25 g/m*3 12.9 C 0 km/h
1736 09-10-2015 17:00:00 12.70833 C 10.32 g/m*3 12.71 C 0 km/h
1737 09-10-2015 18:00:00 12.425 C 10.33 g/m*3 12.43 C 0 km/h
1738 09-10-2015 19:00:00 12.21667 C 10.3 g/m*3 12.22 C 0 km/h
1739 09-10-2015 20:00:00 12.21667 C 10.37 g/m*3 12.22 C 0 km/h
1740 09-10-2015 21:00:00 12.225 C 10.38 g/m*3 12.23 C 0 km/h
1741 09-10-2015 22:00:00 12.20833 C 10.36 g/m*3 12.21 C 0 km/h
1742 09-10-2015 23:00:00 12.2 C 10.36 g/m*3 12.2 C 0 km/h
1743 10-10-2015 00:00:00 12.26667 C 10.4 g/m*3 12.27 C 0 km/h
1744 10-10-2015 01:00:00 12.26667 C 10.4 g/m*3 12.27 C 0 km/h
1745 10-10-2015 02:00:00 12.25 C 10.47 g/m*3 12.25 C 0 km/h
1746 10-10-2015 03:00:00 12.24167 C 10.49 g/m*3 12.24 C 0 km/h
1747 10-10-2015 04:00:00 12.20833 C 10.47 g/m*3 12.21 C 0 km/h
1748 10-10-2015 05:00:00 12.00833 C 10.32 g/m*3 12.01 C 0 km/h
1749 10-10-2015 06:00:00 11.8 C 10.21 g/m*3 11.8 C 0 km/h
1750 10-10-2015 07:00:00 11.85 C 10.24 g/m*3 11.85 C 0 km/h
Sensor: Nr:Datum:Temp:Abs-Feuchte:Windchill:Wind:
Aussen-T/F 1751 10-10-2015 08:00:00 12 C 10.33 g/m*3 12 C 0 km/h
1752 10-10-2015 09:00:00 11.95 C 10.09 g/m*3 11.95 C 0 km/h
1753 10-10-2015 10:00:00 12.71667 C 9.95 g/m*3 12.72 C 0 km/h
1754 10-10-2015 11:00:00 12.84167 C 9.84 g/m*3 12.84 C 0 km/h
1755 10-10-2015 12:00:00 12.71667 C 9.69 g/m*3 12.72 C 0 km/h
1756 10-10-2015 13:00:00 14 C 9.71 g/m*3 14 C 1.73333 km/h
1757 10-10-2015 14:00:00 14.7 C 9.71 g/m*3 14.7 C 3.21667 km/h
1758 10-10-2015 15:00:00 15.325 C 9.92 g/m*3 15.33 C 2.4 km/h
1759 10-10-2015 16:00:00 15.58333 C 9.01 g/m*3 15.58 C 4.29167 km/h
1760 10-10-2015 17:00:00 14.54167 C 8.81 g/m*3 14.54 C 1.74167 km/h
1761 10-10-2015 18:00:00 12.4 C 8.69 g/m*3 12.4 C 0 km/h
1762 10-10-2015 19:00:00 10.43333 C 8.02 g/m*3 10.43 C 0 km/h
1763 10-10-2015 20:00:00 9.40833 C 7.69 g/m*3 9.41 C 0 km/h
1764 10-10-2015 21:00:00 9.525 C 7.95 g/m*3 9.53 C 0 km/h
1765 10-10-2015 22:00:00 9.23333 C 7.73 g/m*3 9.23 C 0 km/h
1766 10-10-2015 23:00:00 8.35833 C 7.42 g/m*3 8.36 C 0.4 km/h
1767 11-10-2015 00:00:00 8.325 C 7.44 g/m*3 8.32 C 0 km/h
1768 11-10-2015 01:00:00 7.95 C 7.27 g/m*3 7.95 C 0 km/h
1769 11-10-2015 02:00:00 8.375 C 7.19 g/m*3 8.38 C 0.53333 km/h
1770 11-10-2015 03:00:00 8.3 C 6.95 g/m*3 8.3 C 0 km/h
1771 11-10-2015 04:00:00 8.05 C 6.74 g/m*3 8.05 C 0.13333 km/h
1772 11-10-2015 05:00:00 7.8 C 6.77 g/m*3 7.8 C 0 km/h
1773 11-10-2015 06:00:00 7.35 C 6.53 g/m*3 7.35 C 0.66667 km/h
1774 11-10-2015 07:00:00 6.525 C 6.15 g/m*3 6.53 C 0.53333 km/h
1775 11-10-2015 08:00:00 5.59167 C 5.9 g/m*3 5.59 C 0 km/h
Sensor: Nr:Datum:Temp:Abs-Feuchte:Windchill:Wind:
Aussen-T/F 1776 11-10-2015 09:00:00 5.24167 C 5.96 g/m*3 5.24 C 0 km/h
1777 11-10-2015 10:00:00 5.48333 C 6.06 g/m*3 5.48 C 0.13333 km/h
1778 11-10-2015 11:00:00 6.75833 C 6.22 g/m*3 6.76 C 2.4 km/h
1779 11-10-2015 12:00:00 8.5 C 6.4 g/m*3 8.5 C 3.74167 km/h
1780 11-10-2015 13:00:00 11.25833 C 6.66 g/m*3 11.26 C 4.675 km/h
1781 11-10-2015 14:00:00 12.39167 C 6.64 g/m*3 12.39 C 2.66667 km/h
1782 11-10-2015 15:00:00 12.83333 C 6.79 g/m*3 12.83 C 4.53333 km/h
1783 11-10-2015 16:00:00 13.03333 C 6.76 g/m*3 13.03 C 5.08333 km/h
1784 11-10-2015 17:00:00 12.40833 C 6.69 g/m*3 12.41 C 5.49167 km/h
1785 11-10-2015 18:00:00 10.48333 C 6.53 g/m*3 10.48 C 2.13333 km/h
1786 11-10-2015 19:00:00 8.55 C 6.17 g/m*3 8.55 C 1.06667 km/h
1787 11-10-2015 20:00:00 7.61667 C 6.02 g/m*3 7.62 C 1.33333 km/h
1788 11-10-2015 21:00:00 6.74167 C 5.88 g/m*3 6.74 C 1.6 km/h
1789 11-10-2015 22:00:00 6.2 C 5.81 g/m*3 6.2 C 0.8 km/h
1790 11-10-2015 23:00:00 5.21667 C 5.64 g/m*3 5.22 C 0.4 km/h
1791 12-10-2015 00:00:00 4.375 C 5.49 g/m*3 4.38 C 0 km/h
1792 12-10-2015 01:00:00 3.925 C 5.33 g/m*3 3.93 C 0.93333 km/h
1793 12-10-2015 02:00:00 4.3 C 5.28 g/m*3 4.3 C 2.40833 km/h
1794 12-10-2015 03:00:00 3.1 C 5.17 g/m*3 3.1 C 0.13333 km/h
1795 12-10-2015 04:00:00 2.73333 C 5.11 g/m*3 2.73 C 0.13333 km/h
1796 12-10-2015 05:00:00 2.125 C 4.95 g/m*3 2.13 C 0 km/h
1797 12-10-2015 06:00:00 1.64167 C 4.87 g/m*3 1.64 C 0 km/h
1798 12-10-2015 07:00:00 1.24167 C 4.79 g/m*3 1.24 C 0 km/h
1799 12-10-2015 08:00:00 1.34167 C 4.87 g/m*3 1.34 C 0 km/h
1800 12-10-2015 09:00:00 2.28333 C 5.04 g/m*3 2.28 C 0 km/h
Sensor: Nr:Datum:Temp:Abs-Feuchte:Windchill:Wind:
Aussen-T/F 1801 12-10-2015 10:00:00 2.89167 C 5.17 g/m*3 2.89 C 0.4 km/h
1802 12-10-2015 11:00:00 4.95833 C 5.34 g/m*3 4.96 C 2.26667 km/h
1803 12-10-2015 12:00:00 6.36667 C 5.95 g/m*3 6.37 C 0.26667 km/h
1804 12-10-2015 13:00:00 8.66667 C 6.34 g/m*3 8.67 C 2.66667 km/h
1805 12-10-2015 14:00:00 9.88333 C 6.44 g/m*3 9.88 C 2.8 km/h
1806 12-10-2015 15:00:00 10.68333 C 6.79 g/m*3 10.68 C 2.26667 km/h
1807 12-10-2015 16:00:00 11.33333 C 6.93 g/m*3 11.33 C 2.14167 km/h
1808 12-10-2015 17:00:00 9.83333 C 7.47 g/m*3 9.83 C 0 km/h
1809 12-10-2015 18:00:00 8.19167 C 6.79 g/m*3 8.19 C 0.13333 km/h
1810 12-10-2015 19:00:00 7.01667 C 6.37 g/m*3 7.02 C 0 km/h
1811 12-10-2015 20:00:00 6.54167 C 6.13 g/m*3 6.54 C 0 km/h
1812 12-10-2015 21:00:00 5.49167 C 5.79 g/m*3 5.49 C 0.66667 km/h
1813 12-10-2015 22:00:00 4.35833 C 5.61 g/m*3 4.36 C 0 km/h
1814 12-10-2015 23:00:00 3.49167 C 5.51 g/m*3 3.49 C 0 km/h
1815 13-10-2015 00:00:00 2.85 C 5.38 g/m*3 2.85 C 0 km/h
1816 13-10-2015 01:00:00 2.23333 C 5.25 g/m*3 2.23 C 0 km/h
1817 13-10-2015 02:00:00 1.675 C 5.11 g/m*3 1.68 C 0 km/h
1818 13-10-2015 03:00:00 1.11667 C 4.94 g/m*3 1.12 C 0 km/h
1819 13-10-2015 04:00:00 0.60833 C 4.8 g/m*3 0.61 C 0.26667 km/h
1820 13-10-2015 05:00:00 0.54167 C 4.78 g/m*3 0.54 C 0.13333 km/h
1821 13-10-2015 06:00:00 0.45833 C 4.79 g/m*3 0.46 C 0.13333 km/h
1822 13-10-2015 07:00:00 0.46667 C 4.8 g/m*3 0.47 C 0.26667 km/h
1823 13-10-2015 08:00:00 0.74167 C 4.9 g/m*3 0.74 C 0.26667 km/h
1824 13-10-2015 09:00:00 1.3 C 5.09 g/m*3 1.3 C 0.4 km/h
1825 13-10-2015 10:00:00 2.10833 C 5.41 g/m*3 2.11 C 0.53333 km/h
Sensor: Nr:Datum:Temp:Abs-Feuchte:Windchill:Wind:
Aussen-T/F 1826 13-10-2015 11:00:00 4.41667 C 6.3 g/m*3 4.42 C 0.53333 km/h
1827 13-10-2015 12:00:00 6.35833 C 6.59 g/m*3 6.36 C 1.2 km/h
1828 13-10-2015 13:00:00 7.51667 C 6.56 g/m*3 7.52 C 2.66667 km/h
1829 13-10-2015 14:00:00 8.23333 C 6.68 g/m*3 8.23 C 2.66667 km/h
1830 13-10-2015 15:00:00 8.95 C 6.82 g/m*3 8.95 C 2.8 km/h
1831 13-10-2015 16:00:00 8.775 C 7.03 g/m*3 8.78 C 2.40833 km/h
1832 13-10-2015 17:00:00 8.025 C 6.83 g/m*3 6.61 C 8.33333 km/h
1833 13-10-2015 18:00:00 7.425 C 6.76 g/m*3 7.43 C 4.275 km/h
1834 13-10-2015 19:00:00 7.04167 C 6.64 g/m*3 7.04 C 4.8 km/h
1835 13-10-2015 20:00:00 6.76667 C 6.63 g/m*3 6.77 C 3.86667 km/h
1836 13-10-2015 21:00:00 6.175 C 6.69 g/m*3 6.18 C 0 km/h
1837 13-10-2015 22:00:00 5.41667 C 6.47 g/m*3 5.42 C 0.8 km/h
1838 13-10-2015 23:00:00 4.85 C 6.25 g/m*3 4.85 C 2.4 km/h
1839 14-10-2015 00:00:00 4.50833 C 6.12 g/m*3 4.51 C 2.93333 km/h
1840 14-10-2015 01:00:00 4.14167 C 5.97 g/m*3 4.14 C 3.875 km/h
1841 14-10-2015 02:00:00 3.75833 C 5.86 g/m*3 3.76 C 1.86667 km/h
1842 14-10-2015 03:00:00 3.46667 C 5.77 g/m*3 3.47 C 3.06667 km/h
1843 14-10-2015 04:00:00 3.18333 C 5.66 g/m*3 3.18 C 2.4 km/h
1844 14-10-2015 05:00:00 2.81667 C 5.53 g/m*3 2.82 C 0.93333 km/h
1845 14-10-2015 06:00:00 1.88333 C 5.21 g/m*3 1.88 C 0 km/h
1846 14-10-2015 07:00:00 1.88333 C 5.28 g/m*3 1.88 C 0 km/h
1847 14-10-2015 08:00:00 1.83333 C 5.27 g/m*3 1.83 C 0 km/h
1848 14-10-2015 09:00:00 2.025 C 5.34 g/m*3 2.03 C 0 km/h
1849 14-10-2015 10:00:00 2.475 C 5.51 g/m*3 2.48 C 0.66667 km/h
1850 14-10-2015 11:00:00 2.85 C 5.63 g/m*3 2.85 C 0.53333 km/h
Sensor: Nr:Datum:Temp:Abs-Feuchte:Windchill:Wind:
Aussen-T/F 1851 14-10-2015 12:00:00 3.68333 C 5.91 g/m*3 3.68 C 0.26667 km/h
1852 14-10-2015 13:00:00 4.21667 C 6.13 g/m*3 4.22 C 0 km/h
1853 14-10-2015 14:00:00 4.65833 C 6.28 g/m*3 4.66 C 0 km/h
1854 14-10-2015 15:00:00 4.74167 C 6.35 g/m*3 4.74 C 0 km/h
1855 14-10-2015 16:00:00 4.74167 C 6.34 g/m*3 4.74 C 0.53333 km/h
1856 14-10-2015 17:00:00 4.69167 C 6.32 g/m*3 4.69 C 0 km/h
1857 14-10-2015 18:00:00 4.44167 C 6.22 g/m*3 4.44 C 0 km/h
1858 14-10-2015 19:00:00 4.19167 C 6.18 g/m*3 4.19 C 0 km/h
1859 14-10-2015 20:00:00 4.18333 C 6.18 g/m*3 4.18 C 0 km/h
1860 14-10-2015 21:00:00 4.125 C 6.15 g/m*3 4.13 C 0 km/h
1861 14-10-2015 22:00:00 4.29167 C 6.22 g/m*3 4.29 C 0 km/h
1862 14-10-2015 23:00:00 4.40833 C 6.27 g/m*3 4.41 C 0 km/h
1863 15-10-2015 00:00:00 4.46667 C 6.3 g/m*3 4.47 C 0.13333 km/h
1864 15-10-2015 01:00:00 4.35 C 6.25 g/m*3 4.35 C 0.26667 km/h
1865 15-10-2015 02:00:00 4.26667 C 6.21 g/m*3 4.27 C 0.53333 km/h
1866 15-10-2015 03:00:00 4.06667 C 6.13 g/m*3 4.07 C 0.13333 km/h
1867 15-10-2015 04:00:00 3.9 C 6.06 g/m*3 3.9 C 0 km/h
1868 15-10-2015 05:00:00 3.75833 C 6.01 g/m*3 3.76 C 0 km/h
1869 15-10-2015 06:00:00 3.73333 C 6 g/m*3 3.73 C 0.53333 km/h
1870 15-10-2015 07:00:00 3.725 C 5.95 g/m*3 3.73 C 3.08333 km/h
1871 15-10-2015 08:00:00 3.71667 C 5.92 g/m*3 3.72 C 2 km/h
1872 15-10-2015 09:00:00 3.9 C 5.95 g/m*3 3.9 C 3.475 km/h
1873 15-10-2015 10:00:00 4.00833 C 5.98 g/m*3 4.01 C 3.46667 km/h
1874 15-10-2015 11:00:00 4.075 C 6.01 g/m*3 4.08 C 3.2 km/h
1875 15-10-2015 12:00:00 4.19167 C 6.05 g/m*3 3.08 C 5.21667 km/h
Sensor: Nr:Datum:Temp:Abs-Feuchte:Windchill:Wind:
Aussen-T/F 1876 15-10-2015 13:00:00 4.18333 C 6.05 g/m*3 3.07 C 5.21667 km/h
1877 15-10-2015 14:00:00 4.33333 C 6.11 g/m*3 2.6 C 7.125 km/h
1878 15-10-2015 15:00:00 4.25833 C 6.08 g/m*3 2.51 C 7.125 km/h
1879 15-10-2015 16:00:00 4.35 C 6.12 g/m*3 4.35 C 2.4 km/h
1880 15-10-2015 17:00:00 4.44167 C 6.19 g/m*3 4.44 C 1.06667 km/h
1881 15-10-2015 18:00:00 4.39167 C 6.21 g/m*3 4.39 C 1.46667 km/h
1882 15-10-2015 19:00:00 4.53333 C 6.32 g/m*3 4.53 C 0 km/h
1883 15-10-2015 20:00:00 4.725 C 6.41 g/m*3 4.72 C 0 km/h
1884 15-10-2015 21:00:00 4.83333 C 6.45 g/m*3 4.83 C 0 km/h
1885 15-10-2015 22:00:00 4.9 C 6.55 g/m*3 4.9 C 0 km/h
1886 15-10-2015 23:00:00 5.05833 C 6.62 g/m*3 5.06 C 0 km/h
1887 16-10-2015 00:00:00 5.2 C 6.68 g/m*3 5.2 C 0 km/h
1888 16-10-2015 01:00:00 5.25 C 6.7 g/m*3 5.25 C 0 km/h
1889 16-10-2015 02:00:00 5.25 C 6.7 g/m*3 5.25 C 0 km/h
1890 16-10-2015 03:00:00 5.175 C 6.67 g/m*3 5.18 C 0.26667 km/h
1891 16-10-2015 04:00:00 5.1 C 6.63 g/m*3 5.1 C 0 km/h
1892 16-10-2015 05:00:00 5.05833 C 6.62 g/m*3 5.06 C 0 km/h
1893 16-10-2015 06:00:00 4.93333 C 6.56 g/m*3 4.93 C 0 km/h
1894 16-10-2015 07:00:00 4.89167 C 6.54 g/m*3 4.89 C 0 km/h
1895 16-10-2015 08:00:00 5 C 6.59 g/m*3 5 C 0 km/h
1896 16-10-2015 09:00:00 5.4 C 6.77 g/m*3 5.4 C 0.53333 km/h
1897 16-10-2015 10:00:00 5.93333 C 6.94 g/m*3 5.93 C 4.8 km/h
1898 16-10-2015 11:00:00 6.7 C 7.05 g/m*3 5.66 C 6.04167 km/h
1899 16-10-2015 12:00:00 7.53333 C 7.16 g/m*3 6.8 C 5.48333 km/h
1900 16-10-2015 13:00:00 8.475 C 7.35 g/m*3 8.48 C 4.80833 km/h
Sensor: Nr:Datum:Temp:Abs-Feuchte:Windchill:Wind:
Aussen-T/F 1901 16-10-2015 14:00:00 8.93333 C 7.4 g/m*3 8.93 C 4.00833 km/h
1902 16-10-2015 15:00:00 9.025 C 7.43 g/m*3 9.03 C 3.33333 km/h
1903 16-10-2015 16:00:00 8.375 C 7.41 g/m*3 8.38 C 0.53333 km/h
1904 16-10-2015 17:00:00 8.05 C 7.19 g/m*3 8.05 C 2.675 km/h
1905 16-10-2015 18:00:00 7.51667 C 7.09 g/m*3 7.52 C 0.93333 km/h
1906 16-10-2015 19:00:00 7.19167 C 7.03 g/m*3 7.19 C 0.13333 km/h
1907 16-10-2015 20:00:00 6.98333 C 7.04 g/m*3 6.98 C 0 km/h
1908 16-10-2015 21:00:00 6.825 C 7.03 g/m*3 6.83 C 0.13333 km/h
1909 16-10-2015 22:00:00 6.89167 C 6.96 g/m*3 6.89 C 0.93333 km/h
1910 16-10-2015 23:00:00 6.89167 C 6.92 g/m*3 6.89 C 0.53333 km/h
1911 17-10-2015 00:00:00 6.8 C 6.88 g/m*3 6.8 C 0.8 km/h
1912 17-10-2015 01:00:00 6.725 C 6.91 g/m*3 6.73 C 0.93333 km/h
1913 17-10-2015 02:00:00 6.6 C 6.81 g/m*3 6.6 C 1.73333 km/h
1914 17-10-2015 03:00:00 6.41667 C 6.75 g/m*3 6.42 C 0.26667 km/h
1915 17-10-2015 04:00:00 6.2 C 6.71 g/m*3 6.2 C 0.4 km/h
1916 17-10-2015 05:00:00 6.125 C 6.56 g/m*3 6.13 C 1.33333 km/h
1917 17-10-2015 06:00:00 5.84167 C 6.52 g/m*3 5.84 C 0.66667 km/h
1918 17-10-2015 07:00:00 5.34167 C 6.5 g/m*3 5.34 C 0 km/h
1919 17-10-2015 08:00:00 5.14167 C 6.49 g/m*3 5.14 C 0 km/h
1920 17-10-2015 09:00:00 5.86667 C 6.72 g/m*3 5.87 C 1.33333 km/h
1921 17-10-2015 10:00:00 6.925 C 6.78 g/m*3 6.93 C 2 km/h
1922 17-10-2015 11:00:00 7.6 C 6.85 g/m*3 7.6 C 3.86667 km/h
1923 17-10-2015 12:00:00 8.11667 C 6.96 g/m*3 8.12 C 1.46667 km/h
1924 17-10-2015 13:00:00 8.63333 C 7.09 g/m*3 8.63 C 1.73333 km/h
1925 17-10-2015 14:00:00 8.84167 C 7.08 g/m*3 8.84 C 2.4 km/h
Sensor: Nr:Datum:Temp:Abs-Feuchte:Windchill:Wind:
Aussen-T/F 1926 17-10-2015 15:00:00 8.875 C 7.09 g/m*3 8.88 C 4.53333 km/h
1927 17-10-2015 16:00:00 8.94167 C 7.35 g/m*3 8.94 C 0.53333 km/h
1928 17-10-2015 17:00:00 8.16667 C 7.45 g/m*3 8.17 C 0 km/h
1929 17-10-2015 18:00:00 7.44167 C 7.33 g/m*3 7.44 C 0 km/h
1930 17-10-2015 19:00:00 6.975 C 7.17 g/m*3 6.98 C 0 km/h
1931 17-10-2015 20:00:00 6.81667 C 7.12 g/m*3 6.82 C 0 km/h
1932 17-10-2015 21:00:00 6.63333 C 7.09 g/m*3 6.63 C 0 km/h
1933 17-10-2015 22:00:00 6.45833 C 7.03 g/m*3 6.46 C 0 km/h
1934 17-10-2015 23:00:00 6.36667 C 6.99 g/m*3 6.37 C 0 km/h
1935 18-10-2015 00:00:00 6.30833 C 6.99 g/m*3 6.31 C 0 km/h
1936 18-10-2015 01:00:00 6.275 C 7.02 g/m*3 6.28 C 0 km/h
1937 18-10-2015 02:00:00 6.15833 C 6.97 g/m*3 6.16 C 0 km/h
1938 18-10-2015 03:00:00 6.1 C 6.94 g/m*3 6.1 C 0 km/h
1939 18-10-2015 04:00:00 6.05833 C 6.92 g/m*3 6.06 C 0 km/h
1940 18-10-2015 05:00:00 5.98333 C 6.89 g/m*3 5.98 C 0 km/h
1941 18-10-2015 06:00:00 5.96667 C 6.88 g/m*3 5.97 C 0 km/h
1942 18-10-2015 07:00:00 5.96667 C 6.88 g/m*3 5.97 C 0 km/h
1943 18-10-2015 08:00:00 6.05 C 6.92 g/m*3 6.05 C 0 km/h
1944 18-10-2015 09:00:00 6.34167 C 7.1 g/m*3 6.34 C 0 km/h
1945 18-10-2015 10:00:00 7.06667 C 7.39 g/m*3 7.07 C 0.53333 km/h
1946 18-10-2015 11:00:00 8.1 C 7.63 g/m*3 8.1 C 3.06667 km/h
1947 18-10-2015 12:00:00 8.95833 C 7.66 g/m*3 8.96 C 4.26667 km/h
1948 18-10-2015 13:00:00 9.70833 C 7.63 g/m*3 9.71 C 4 km/h
1949 18-10-2015 14:00:00 9.95833 C 7.57 g/m*3 9.96 C 3.73333 km/h
1950 18-10-2015 15:00:00 10.29167 C 7.52 g/m*3 10.29 C 2.66667 km/h
Sensor: Nr:Datum:Temp:Abs-Feuchte:Windchill:Wind:
Aussen-T/F 1951 18-10-2015 16:00:00 10.40833 C 7.43 g/m*3 10.41 C 3.2 km/h
1952 18-10-2015 17:00:00 9.70833 C 7.49 g/m*3 9.71 C 1.33333 km/h
1953 18-10-2015 18:00:00 7.78333 C 7.36 g/m*3 7.78 C 0 km/h
1954 18-10-2015 19:00:00 6.45833 C 6.9 g/m*3 6.46 C 0 km/h
1955 18-10-2015 20:00:00 6.25 C 6.93 g/m*3 6.25 C 0 km/h
1956 18-10-2015 21:00:00 6.11667 C 6.89 g/m*3 6.12 C 0 km/h
1957 18-10-2015 22:00:00 6.1 C 6.9 g/m*3 6.1 C 0 km/h
1958 18-10-2015 23:00:00 6.01667 C 6.86 g/m*3 6.02 C 0 km/h
1959 19-10-2015 00:00:00 5.9 C 6.85 g/m*3 5.9 C 0 km/h
1960 19-10-2015 01:00:00 5.94167 C 6.87 g/m*3 5.94 C 0.26667 km/h
1961 19-10-2015 02:00:00 5.94167 C 6.87 g/m*3 5.94 C 0.93333 km/h
1962 19-10-2015 03:00:00 5.91667 C 6.86 g/m*3 5.92 C 0 km/h
1963 19-10-2015 04:00:00 6.03333 C 6.91 g/m*3 6.03 C 0 km/h
1964 19-10-2015 05:00:00 6.20833 C 6.99 g/m*3 6.21 C 0.13333 km/h
1965 19-10-2015 06:00:00 6.26667 C 7.02 g/m*3 6.27 C 0.13333 km/h
1966 19-10-2015 07:00:00 6.29167 C 7.03 g/m*3 6.29 C 0 km/h
1967 19-10-2015 08:00:00 6.35833 C 7.06 g/m*3 6.36 C 0.66667 km/h
1968 19-10-2015 09:00:00 6.725 C 7.19 g/m*3 6.73 C 0.8 km/h
1969 19-10-2015 10:00:00 7.59167 C 7.43 g/m*3 7.59 C 1.6 km/h
1970 19-10-2015 11:00:00 8.53333 C 7.65 g/m*3 8.53 C 3.46667 km/h
1971 19-10-2015 12:00:00 9.78333 C 7.95 g/m*3 9.78 C 3.73333 km/h
1972 19-10-2015 13:00:00 10.55 C 8.16 g/m*3 10.36 C 5.075 km/h
1973 19-10-2015 14:00:00 10.775 C 8.2 g/m*3 10.78 C 4.675 km/h
1974 19-10-2015 15:00:00 10.9 C 8.23 g/m*3 10.9 C 1.46667 km/h
1975 19-10-2015 16:00:00 11.23333 C 8.33 g/m*3 11.23 C 1.33333 km/h
Sensor: Nr:Datum:Temp:Abs-Feuchte:Windchill:Wind:
Aussen-T/F 1976 19-10-2015 17:00:00 10.13333 C 8.54 g/m*3 10.13 C 0 km/h
1977 19-10-2015 18:00:00 9.7 C 8.41 g/m*3 9.7 C 0.66667 km/h
1978 19-10-2015 19:00:00 9.475 C 8.38 g/m*3 9.48 C 0 km/h
1979 19-10-2015 20:00:00 9.33333 C 8.38 g/m*3 9.33 C 0 km/h
1980 19-10-2015 21:00:00 9.25833 C 8.43 g/m*3 9.26 C 0 km/h
1981 19-10-2015 22:00:00 9.26667 C 8.5 g/m*3 9.27 C 0 km/h
1982 19-10-2015 23:00:00 9.25 C 8.51 g/m*3 9.25 C 0 km/h
1983 20-10-2015 00:00:00 9.2 C 8.55 g/m*3 9.2 C 0 km/h
1984 20-10-2015 01:00:00 9.2 C 8.51 g/m*3 9.2 C 0.26667 km/h
1985 20-10-2015 02:00:00 9.2 C 8.46 g/m*3 9.2 C 1.06667 km/h
1986 20-10-2015 03:00:00 9.05 C 8.4 g/m*3 9.05 C 0.13333 km/h
1987 20-10-2015 04:00:00 8.96667 C 8.36 g/m*3 8.97 C 0 km/h
1988 20-10-2015 05:00:00 8.93333 C 8.34 g/m*3 8.93 C 0.66667 km/h
1989 20-10-2015 06:00:00 8.81667 C 8.21 g/m*3 8.82 C 1.06667 km/h
1990 20-10-2015 07:00:00 8.41667 C 7.97 g/m*3 8.42 C 0 km/h
1991 20-10-2015 08:00:00 8.03333 C 7.85 g/m*3 8.03 C 0 km/h
1992 20-10-2015 09:00:00 8.06667 C 7.9 g/m*3 8.07 C 0.13333 km/h
1993 20-10-2015 10:00:00 9.225 C 8.42 g/m*3 9.23 C 0.93333 km/h
1994 20-10-2015 11:00:00 10.30833 C 8.55 g/m*3 10.31 C 0.4 km/h
1995 20-10-2015 12:00:00 10.75 C 8.67 g/m*3 10.75 C 1.06667 km/h
1996 20-10-2015 13:00:00 11.175 C 8.8 g/m*3 11.18 C 1.2 km/h
1997 20-10-2015 14:00:00 11.20833 C 8.92 g/m*3 11.21 C 0 km/h
1998 20-10-2015 15:00:00 10.60833 C 9.07 g/m*3 10.61 C 0.8 km/h
1999 20-10-2015 16:00:00 10.525 C 9.16 g/m*3 10.53 C 0.66667 km/h
2000 20-10-2015 17:00:00 9.94167 C 8.82 g/m*3 9.94 C 2.15 km/h
Sensor: Nr:Datum:Temp:Abs-Feuchte:Windchill:Wind:
Aussen-T/F 2001 20-10-2015 18:00:00 9.26667 C 8.56 g/m*3 9.27 C 0.13333 km/h
2002 20-10-2015 19:00:00 8.9 C 8.41 g/m*3 8.9 C 0 km/h
2003 20-10-2015 20:00:00 8.73333 C 8.32 g/m*3 8.73 C 0 km/h
2004 20-10-2015 21:00:00 8.6 C 8.25 g/m*3 8.6 C 0.13333 km/h
2005 20-10-2015 22:00:00 8.475 C 8.2 g/m*3 8.48 C 0 km/h
2006 20-10-2015 23:00:00 8.45833 C 8.26 g/m*3 8.46 C 0 km/h
2007 21-10-2015 00:00:00 8.425 C 8.24 g/m*3 8.43 C 0 km/h
2008 21-10-2015 01:00:00 8.40833 C 8.23 g/m*3 8.41 C 0 km/h
2009 21-10-2015 02:00:00 8.4 C 8.23 g/m*3 8.4 C 0 km/h
2010 21-10-2015 03:00:00 8.24167 C 8.15 g/m*3 8.24 C 0 km/h
2011 21-10-2015 04:00:00 8.20833 C 8.13 g/m*3 8.21 C 0 km/h
2012 21-10-2015 05:00:00 8.25 C 8.15 g/m*3 8.25 C 0 km/h
2013 21-10-2015 06:00:00 8.3 C 8.18 g/m*3 8.3 C 0 km/h
2014 21-10-2015 07:00:00 8.51667 C 8.29 g/m*3 8.52 C 0 km/h
2015 21-10-2015 08:00:00 8.68333 C 8.38 g/m*3 8.68 C 0.13333 km/h
2016 21-10-2015 09:00:00 8.925 C 8.51 g/m*3 8.93 C 1.06667 km/h
2017 21-10-2015 10:00:00 9.41667 C 8.77 g/m*3 9.42 C 1.2 km/h
2018 21-10-2015 11:00:00 10.29167 C 9.06 g/m*3 10.29 C 2.4 km/h
2019 21-10-2015 12:00:00 11.30833 C 8.97 g/m*3 11.31 C 3.2 km/h
2020 21-10-2015 13:00:00 12.25 C 8.94 g/m*3 12.25 C 6.85 km/h
2021 21-10-2015 14:00:00 12.73333 C 8.8 g/m*3 12.73 C 7.53333 km/h
2022 21-10-2015 15:00:00 13.225 C 8.48 g/m*3 13.23 C 4.68333 km/h
2023 21-10-2015 16:00:00 12.89167 C 8.87 g/m*3 12.89 C 1.33333 km/h
2024 21-10-2015 17:00:00 11.675 C 9 g/m*3 11.68 C 0 km/h
2025 21-10-2015 18:00:00 10.59167 C 8.68 g/m*3 10.59 C 0 km/h
Sensor: Nr:Datum:Temp:Abs-Feuchte:Windchill:Wind:
Aussen-T/F 2026 21-10-2015 19:00:00 10.00833 C 8.46 g/m*3 10.01 C 0.8 km/h
2027 21-10-2015 20:00:00 9.90833 C 8.44 g/m*3 9.91 C 0 km/h
2028 21-10-2015 21:00:00 9.29167 C 8.32 g/m*3 9.29 C 0 km/h
2029 21-10-2015 22:00:00 9.10833 C 8.26 g/m*3 9.11 C 0 km/h
2030 21-10-2015 23:00:00 9.00833 C 8.26 g/m*3 9.01 C 0 km/h
2031 22-10-2015 00:00:00 9.6 C 8.33 g/m*3 9.6 C 0.26667 km/h
2032 22-10-2015 01:00:00 10.40833 C 8.28 g/m*3 10.41 C 3.35 km/h
2033 22-10-2015 02:00:00 10.64167 C 8.25 g/m*3 9.86 C 7.525 km/h
2034 22-10-2015 03:00:00 10.53333 C 8.25 g/m*3 10.01 C 6.30833 km/h
2035 22-10-2015 04:00:00 10.45 C 8.22 g/m*3 9.05 C 10.75 km/h
2036 22-10-2015 05:00:00 9.875 C 8.24 g/m*3 8.25 C 11.425 km/h
2037 22-10-2015 06:00:00 10.025 C 8.23 g/m*3 8.84 C 8.98333 km/h
2038 22-10-2015 07:00:00 10.3 C 8.2 g/m*3 9.52 C 7.25 km/h
2039 22-10-2015 08:00:00 10.30833 C 8.3 g/m*3 9.2 C 8.875 km/h
2040 22-10-2015 09:00:00 10.29167 C 8.41 g/m*3 9.54 C 7.11667 km/h
2041 22-10-2015 10:00:00 10.7 C 8.55 g/m*3 9.17 C 11.96667 km/h
2042 22-10-2015 11:00:00 11.06667 C 8.89 g/m*3 11.07 C 15.025 km/h
2043 22-10-2015 12:00:00 11.61667 C 9.08 g/m*3 11.62 C 15.3 km/h
2044 22-10-2015 13:00:00 12.425 C 9.29 g/m*3 12.43 C 14.63333 km/h
2045 22-10-2015 14:00:00 12.81667 C 9.46 g/m*3 12.82 C 13.56667 km/h
2046 22-10-2015 15:00:00 12.70833 C 9.49 g/m*3 12.71 C 14.36667 km/h
2047 22-10-2015 16:00:00 12.54167 C 9.57 g/m*3 12.54 C 13.56667 km/h
2048 22-10-2015 17:00:00 12.325 C 9.62 g/m*3 12.33 C 10.76667 km/h
2049 22-10-2015 18:00:00 12.05 C 9.68 g/m*3 12.05 C 7.11667 km/h
2050 22-10-2015 19:00:00 11.74167 C 9.76 g/m*3 11.74 C 4.94167 km/h
Sensor: Nr:Datum:Temp:Abs-Feuchte:Windchill:Wind:
Aussen-T/F 2051 22-10-2015 20:00:00 11.66667 C 9.83 g/m*3 11.67 C 4.40833 km/h
2052 22-10-2015 21:00:00 11.6 C 9.87 g/m*3 11.6 C 1.33333 km/h
2053 22-10-2015 22:00:00 11.425 C 9.86 g/m*3 11.43 C 0 km/h
2054 22-10-2015 23:00:00 11.31667 C 9.8 g/m*3 11.32 C 0 km/h
2055 23-10-2015 00:00:00 11.24167 C 9.76 g/m*3 11.24 C 0.13333 km/h
2056 23-10-2015 01:00:00 11.2 C 9.77 g/m*3 11.2 C 0.8 km/h
2057 23-10-2015 02:00:00 11.05 C 9.64 g/m*3 11.05 C 0 km/h
2058 23-10-2015 03:00:00 10.85833 C 9.52 g/m*3 10.86 C 0 km/h
2059 23-10-2015 04:00:00 10.71667 C 9.47 g/m*3 10.72 C 0.13333 km/h
2060 23-10-2015 05:00:00 10.60833 C 9.39 g/m*3 10.61 C 0 km/h
2061 23-10-2015 06:00:00 9.85 C 8.95 g/m*3 9.85 C 0 km/h
2062 23-10-2015 07:00:00 8.54167 C 8.22 g/m*3 8.54 C 0 km/h
2063 23-10-2015 08:00:00 7.925 C 7.93 g/m*3 7.93 C 0 km/h
2064 23-10-2015 09:00:00 7.81667 C 7.92 g/m*3 7.82 C 0.13333 km/h
2065 23-10-2015 10:00:00 8.29167 C 8.17 g/m*3 8.29 C 0.13333 km/h
2066 23-10-2015 11:00:00 9.59167 C 8.88 g/m*3 9.59 C 2.66667 km/h
2067 23-10-2015 12:00:00 10.29167 C 9.28 g/m*3 10.29 C 0.13333 km/h
2068 23-10-2015 13:00:00 10.96667 C 9.63 g/m*3 10.97 C 0 km/h
2069 23-10-2015 14:00:00 12.16667 C 10.29 g/m*3 12.17 C 0 km/h
2070 23-10-2015 15:00:00 12.93333 C 10.41 g/m*3 12.93 C 0 km/h
2071 23-10-2015 16:00:00 12.84167 C 10.29 g/m*3 12.84 C 0 km/h
2072 23-10-2015 17:00:00 12.09167 C 9.82 g/m*3 12.09 C 0 km/h
2073 23-10-2015 18:00:00 10.53333 C 8.91 g/m*3 10.53 C 0 km/h
2074 23-10-2015 19:00:00 9.45833 C 8.39 g/m*3 9.46 C 0 km/h
2075 23-10-2015 20:00:00 8.975 C 8.25 g/m*3 8.98 C 0 km/h
Sensor: Nr:Datum:Temp:Abs-Feuchte:Windchill:Wind:
Aussen-T/F 2076 23-10-2015 21:00:00 9.15833 C 8.37 g/m*3 9.16 C 0 km/h
2077 23-10-2015 22:00:00 9.56667 C 8.61 g/m*3 9.57 C 0 km/h
2078 23-10-2015 23:00:00 9.8 C 8.72 g/m*3 9.8 C 0 km/h
2079 24-10-2015 00:00:00 9.8 C 8.72 g/m*3 9.8 C 0 km/h
2080 24-10-2015 01:00:00 9.925 C 8.81 g/m*3 9.93 C 0 km/h
2081 24-10-2015 02:00:00 10.1 C 8.89 g/m*3 10.1 C 0 km/h
2082 24-10-2015 03:00:00 10.1 C 8.85 g/m*3 10.1 C 0 km/h
2083 24-10-2015 04:00:00 10.08333 C 8.8 g/m*3 10.08 C 0 km/h
2084 24-10-2015 05:00:00 9.96667 C 8.72 g/m*3 9.97 C 0 km/h
2085 24-10-2015 06:00:00 9.85833 C 8.66 g/m*3 9.86 C 0 km/h
2086 24-10-2015 07:00:00 9.725 C 8.6 g/m*3 9.73 C 0 km/h
2087 24-10-2015 08:00:00 9.70833 C 8.66 g/m*3 9.71 C 0.26667 km/h
2088 24-10-2015 09:00:00 9.95833 C 8.77 g/m*3 9.96 C 0.26667 km/h
2089 24-10-2015 10:00:00 10.99167 C 8.75 g/m*3 10.99 C 1.2 km/h
2090 24-10-2015 11:00:00 11.91667 C 8.94 g/m*3 11.92 C 0.8 km/h
2091 24-10-2015 12:00:00 12.70833 C 9.23 g/m*3 12.71 C 3.86667 km/h
2092 24-10-2015 13:00:00 13.34167 C 9.4 g/m*3 13.34 C 3.46667 km/h
2093 24-10-2015 14:00:00 14.325 C 9.54 g/m*3 14.33 C 2.66667 km/h
2094 24-10-2015 15:00:00 15.075 C 9.53 g/m*3 15.08 C 4.275 km/h
2095 24-10-2015 16:00:00 14.30833 C 10.15 g/m*3 14.31 C 0 km/h
2096 24-10-2015 17:00:00 12.95833 C 9.79 g/m*3 12.96 C 0.13333 km/h
2097 24-10-2015 18:00:00 11.63333 C 9.37 g/m*3 11.63 C 0.26667 km/h
2098 24-10-2015 19:00:00 10.5 C 8.98 g/m*3 10.5 C 0 km/h
2099 24-10-2015 20:00:00 9.9 C 8.76 g/m*3 9.9 C 0 km/h
2100 24-10-2015 21:00:00 9.425 C 8.55 g/m*3 9.43 C 0 km/h
Sensor: Nr:Datum:Temp:Abs-Feuchte:Windchill:Wind:
Aussen-T/F 2101 24-10-2015 22:00:00 9.31667 C 8.55 g/m*3 9.32 C 0 km/h
2102 24-10-2015 23:00:00 9.2 C 8.57 g/m*3 9.2 C 0.4 km/h
2103 25-10-2015 00:00:00 9.18333 C 8.56 g/m*3 9.18 C 0 km/h
2104 25-10-2015 01:00:00 9.30833 C 8.63 g/m*3 9.31 C 0.13333 km/h
2105 25-10-2015 02:00:00 9.34167 C 8.65 g/m*3 9.34 C 0.13333 km/h
2106 25-10-2015 04:00:00 9.97826 C 9.1 g/m*3 9.98 C 1.53043 km/h
2107 25-10-2015 05:00:00 10.26923 C 9.21 g/m*3 10.27 C 0.98462 km/h
2108 25-10-2015 06:00:00 10.23333 C 9.16 g/m*3 10.23 C 0 km/h
2109 25-10-2015 07:00:00 10.075 C 9.08 g/m*3 10.07 C 0 km/h
2110 25-10-2015 08:00:00 10.3 C 9.29 g/m*3 10.3 C 0.13333 km/h
2111 25-10-2015 09:00:00 10.66667 C 9.51 g/m*3 10.67 C 0.13333 km/h
2112 25-10-2015 10:00:00 11.75833 C 10.15 g/m*3 11.76 C 0.53333 km/h
2113 25-10-2015 11:00:00 13.475 C 10.72 g/m*3 13.48 C 0.8 km/h
2114 25-10-2015 12:00:00 14.33333 C 10.62 g/m*3 14.33 C 0.8 km/h
2115 25-10-2015 13:00:00 14.60833 C 10.42 g/m*3 14.61 C 1.86667 km/h
2116 25-10-2015 14:00:00 14.78333 C 10.45 g/m*3 14.78 C 2.53333 km/h
2117 25-10-2015 15:00:00 15.09167 C 10.33 g/m*3 15.09 C 2.93333 km/h
2118 25-10-2015 16:00:00 13.91667 C 10.44 g/m*3 13.92 C 0 km/h
2119 25-10-2015 17:00:00 13.04167 C 10.23 g/m*3 13.04 C 0.13333 km/h
2120 25-10-2015 18:00:00 12.35 C 9.99 g/m*3 12.35 C 0 km/h
2121 25-10-2015 19:00:00 12.10833 C 9.98 g/m*3 12.11 C 0 km/h
2122 25-10-2015 20:00:00 11.85 C 9.85 g/m*3 11.85 C 0 km/h
2123 25-10-2015 21:00:00 11.58333 C 9.76 g/m*3 11.58 C 0 km/h
2124 25-10-2015 22:00:00 11.15833 C 9.56 g/m*3 11.16 C 0 km/h
2125 25-10-2015 23:00:00 10.95833 C 9.48 g/m*3 10.96 C 0 km/h
Sensor: Nr:Datum:Temp:Abs-Feuchte:Windchill:Wind:
Aussen-T/F 2126 26-10-2015 00:00:00 9.74167 C 8.77 g/m*3 9.74 C 0 km/h
2127 26-10-2015 01:00:00 8.825 C 8.34 g/m*3 8.82 C 0 km/h
2128 26-10-2015 02:00:00 8.51667 C 8.21 g/m*3 8.52 C 0 km/h
2129 26-10-2015 03:00:00 7.85833 C 7.87 g/m*3 7.86 C 0 km/h
2130 26-10-2015 04:00:00 7.55833 C 7.78 g/m*3 7.56 C 0 km/h
2131 26-10-2015 05:00:00 7.45833 C 7.74 g/m*3 7.46 C 0 km/h
2132 26-10-2015 06:00:00 7.29167 C 7.66 g/m*3 7.29 C 0 km/h
2133 26-10-2015 07:00:00 7.175 C 7.6 g/m*3 7.18 C 0 km/h
2134 26-10-2015 08:00:00 7.625 C 7.83 g/m*3 7.63 C 0 km/h
2135 26-10-2015 09:00:00 8.23333 C 8.15 g/m*3 8.23 C 0.13333 km/h
2136 26-10-2015 10:00:00 9.09167 C 8.64 g/m*3 9.09 C 0 km/h
2137 26-10-2015 11:00:00 10.35 C 9.39 g/m*3 10.35 C 0.13333 km/h
2138 26-10-2015 12:00:00 12.04167 C 10.21 g/m*3 12.04 C 1.86667 km/h
2139 26-10-2015 13:00:00 13.025 C 10.41 g/m*3 13.03 C 1.46667 km/h
2140 26-10-2015 14:00:00 14.40833 C 10.54 g/m*3 14.41 C 2.4 km/h
2141 26-10-2015 15:00:00 13.875 C 10.49 g/m*3 13.88 C 0.93333 km/h
2142 26-10-2015 16:00:00 12.89167 C 10.14 g/m*3 12.89 C 0 km/h
2143 26-10-2015 17:00:00 11.70833 C 9.57 g/m*3 11.71 C 0 km/h
2144 26-10-2015 18:00:00 10.48333 C 8.99 g/m*3 10.48 C 0 km/h
2145 26-10-2015 19:00:00 9.36667 C 8.51 g/m*3 9.37 C 0 km/h
2146 26-10-2015 20:00:00 8.65833 C 8.23 g/m*3 8.66 C 0 km/h
2147 26-10-2015 21:00:00 8.04167 C 7.96 g/m*3 8.04 C 0 km/h
2148 26-10-2015 22:00:00 7.74167 C 7.81 g/m*3 7.74 C 0 km/h
2149 26-10-2015 23:00:00 7.30833 C 7.6 g/m*3 7.31 C 0 km/h
2150 27-10-2015 00:00:00 6.60833 C 7.28 g/m*3 6.61 C 0 km/h
Sensor: Nr:Datum:Temp:Abs-Feuchte:Windchill:Wind:
Aussen-T/F 2151 27-10-2015 01:00:00 6.125 C 7.08 g/m*3 6.13 C 0 km/h
2152 27-10-2015 02:00:00 6.04167 C 7.06 g/m*3 6.04 C 0 km/h
2153 27-10-2015 03:00:00 5.79167 C 6.94 g/m*3 5.79 C 0.13333 km/h
2154 27-10-2015 04:00:00 5.56667 C 6.84 g/m*3 5.57 C 0.26667 km/h
2155 27-10-2015 05:00:00 5.13333 C 6.65 g/m*3 5.13 C 0 km/h
2156 27-10-2015 06:00:00 5.19167 C 6.68 g/m*3 5.19 C 0 km/h
2157 27-10-2015 07:00:00 5.25833 C 6.75 g/m*3 5.26 C 0.26667 km/h
2158 27-10-2015 08:00:00 5.625 C 6.91 g/m*3 5.63 C 1.46667 km/h
2159 27-10-2015 09:00:00 6.15833 C 7.19 g/m*3 6.16 C 1.2 km/h
2160 27-10-2015 10:00:00 7.01667 C 7.6 g/m*3 7.02 C 0.66667 km/h
2161 27-10-2015 11:00:00 8.2 C 8.21 g/m*3 8.2 C 0.26667 km/h
2162 27-10-2015 12:00:00 9.725 C 9.02 g/m*3 9.73 C 1.06667 km/h
2163 27-10-2015 13:00:00 11.60833 C 9.65 g/m*3 11.61 C 6.03333 km/h
2164 27-10-2015 14:00:00 12.26667 C 9.52 g/m*3 12.27 C 5.21667 km/h
2165 27-10-2015 15:00:00 11.60833 C 9.11 g/m*3 11.61 C 5.34167 km/h
2166 27-10-2015 16:00:00 10.59167 C 8.75 g/m*3 10.29 C 5.49167 km/h
2167 27-10-2015 17:00:00 9.74167 C 8.54 g/m*3 9.74 C 0.8 km/h
2168 27-10-2015 18:00:00 9.725 C 8.59 g/m*3 9.73 C 2.13333 km/h
2169 27-10-2015 19:00:00 9.475 C 8.45 g/m*3 9.48 C 1.33333 km/h
2170 27-10-2015 20:00:00 9.4 C 8.39 g/m*3 9.4 C 2.26667 km/h
2171 27-10-2015 21:00:00 9.3 C 8.33 g/m*3 9.3 C 1.33333 km/h
2172 27-10-2015 22:00:00 9.20833 C 8.26 g/m*3 9.21 C 1.86667 km/h
2173 27-10-2015 23:00:00 9.1 C 8.24 g/m*3 9.1 C 1.86667 km/h
2174 28-10-2015 00:00:00 9.05 C 8.23 g/m*3 9.05 C 1.73333 km/h
2175 28-10-2015 01:00:00 8.9 C 8.15 g/m*3 8.9 C 2.66667 km/h
Sensor: Nr:Datum:Temp:Abs-Feuchte:Windchill:Wind:
Aussen-T/F 2176 28-10-2015 02:00:00 8.725 C 8.01 g/m*3 8.73 C 1.86667 km/h
2177 28-10-2015 03:00:00 8.60833 C 7.91 g/m*3 8.61 C 1.46667 km/h
2178 28-10-2015 04:00:00 8.59167 C 7.9 g/m*3 8.59 C 1.46667 km/h
2179 28-10-2015 05:00:00 8.46667 C 7.84 g/m*3 8.47 C 2.26667 km/h
2180 28-10-2015 06:00:00 8.46667 C 7.86 g/m*3 8.47 C 2 km/h
2181 28-10-2015 07:00:00 8.58333 C 7.98 g/m*3 8.58 C 0.93333 km/h
2182 28-10-2015 08:00:00 8.81667 C 8.05 g/m*3 8.82 C 0.8 km/h
2183 28-10-2015 09:00:00 9.125 C 8.14 g/m*3 9.13 C 2.13333 km/h
2184 28-10-2015 10:00:00 9.68333 C 8.35 g/m*3 9.68 C 1.86667 km/h
2185 28-10-2015 11:00:00 10.25833 C 8.47 g/m*3 10.26 C 3.06667 km/h
2186 28-10-2015 12:00:00 10.95 C 8.64 g/m*3 10.95 C 4 km/h
2187 28-10-2015 13:00:00 11.275 C 8.78 g/m*3 11.28 C 3.88333 km/h
2188 28-10-2015 14:00:00 10.975 C 8.92 g/m*3 10.98 C 1.6 km/h
2189 28-10-2015 15:00:00 11.625 C 9.12 g/m*3 11.63 C 2.26667 km/h
2190 28-10-2015 16:00:00 11.51667 C 9 g/m*3 11.52 C 3.06667 km/h
2191 28-10-2015 17:00:00 10 C 8.5 g/m*3 10 C 4.15 km/h
2192 28-10-2015 18:00:00 9.81667 C 8.54 g/m*3 9.82 C 1.2 km/h
2193 28-10-2015 19:00:00 9.41667 C 8.44 g/m*3 9.42 C 0.13333 km/h
2194 28-10-2015 20:00:00 8.60833 C 8.14 g/m*3 8.61 C 0.4 km/h
2195 28-10-2015 21:00:00 8.98333 C 8.44 g/m*3 8.98 C 0 km/h
2196 28-10-2015 22:00:00 9.23333 C 8.56 g/m*3 9.23 C 0 km/h
2197 28-10-2015 23:00:00 9.39167 C 8.62 g/m*3 9.39 C 0 km/h
2198 29-10-2015 00:00:00 9.78333 C 8.86 g/m*3 9.78 C 0.13333 km/h
2199 29-10-2015 01:00:00 9.65 C 8.73 g/m*3 9.65 C 0 km/h
2200 29-10-2015 02:00:00 9.30833 C 8.62 g/m*3 9.31 C 0 km/h
Sensor: Nr:Datum:Temp:Abs-Feuchte:Windchill:Wind:
Aussen-T/F 2201 29-10-2015 03:00:00 9.175 C 8.56 g/m*3 9.18 C 0 km/h
2202 29-10-2015 04:00:00 9.2 C 8.57 g/m*3 9.2 C 0 km/h
2203 29-10-2015 05:00:00 9.2 C 8.57 g/m*3 9.2 C 0 km/h
2204 29-10-2015 06:00:00 9.25833 C 8.67 g/m*3 9.26 C 0 km/h
2205 29-10-2015 07:00:00 9.35 C 8.75 g/m*3 9.35 C 0 km/h
2206 29-10-2015 08:00:00 9.61667 C 8.9 g/m*3 9.62 C 0 km/h
2207 29-10-2015 09:00:00 10.33333 C 9.29 g/m*3 10.33 C 0.4 km/h
2208 29-10-2015 10:00:00 12.13333 C 10.15 g/m*3 12.13 C 4.00833 km/h
2209 29-10-2015 11:00:00 13.65 C 10.32 g/m*3 13.65 C 7.50833 km/h
2210 29-10-2015 12:00:00 14.46667 C 10.15 g/m*3 14.47 C 4.68333 km/h
2211 29-10-2015 13:00:00 13.74167 C 10.21 g/m*3 13.74 C 0.93333 km/h
2212 29-10-2015 14:00:00 13.85833 C 10.22 g/m*3 13.86 C 2.66667 km/h
2213 29-10-2015 15:00:00 14.275 C 10.02 g/m*3 14.28 C 4.01667 km/h
2214 29-10-2015 16:00:00 12.60833 C 9.69 g/m*3 12.61 C 1.2 km/h
2215 29-10-2015 17:00:00 11.26667 C 9.15 g/m*3 11.27 C 2 km/h
2216 29-10-2015 18:00:00 10.71667 C 8.96 g/m*3 10.72 C 1.46667 km/h
2217 29-10-2015 19:00:00 9.46667 C 8.42 g/m*3 9.47 C 0 km/h
2218 29-10-2015 20:00:00 8.39167 C 8.02 g/m*3 8.39 C 0 km/h
2219 29-10-2015 21:00:00 7.875 C 7.81 g/m*3 7.88 C 0 km/h
2220 29-10-2015 22:00:00 7.39167 C 7.63 g/m*3 7.39 C 0 km/h
2221 29-10-2015 23:00:00 6.875 C 7.38 g/m*3 6.88 C 0 km/h
2222 30-10-2015 00:00:00 6.36667 C 7.14 g/m*3 6.37 C 0 km/h
2223 30-10-2015 01:00:00 5.90833 C 6.93 g/m*3 5.91 C 0 km/h
2224 30-10-2015 02:00:00 5.64167 C 6.85 g/m*3 5.64 C 0 km/h
2225 30-10-2015 03:00:00 5.55 C 6.84 g/m*3 5.55 C 0.53333 km/h
Sensor: Nr:Datum:Temp:Abs-Feuchte:Windchill:Wind:
Aussen-T/F 2226 30-10-2015 04:00:00 5.39167 C 6.76 g/m*3 5.39 C 0.26667 km/h
2227 30-10-2015 05:00:00 5.45 C 6.79 g/m*3 5.45 C 0.13333 km/h
2228 30-10-2015 06:00:00 5.725 C 6.91 g/m*3 5.73 C 0.13333 km/h
2229 30-10-2015 07:00:00 6 C 7.04 g/m*3 6 C 0 km/h
2230 30-10-2015 08:00:00 6.34167 C 7.26 g/m*3 6.34 C 0 km/h
2231 30-10-2015 09:00:00 7.04167 C 7.58 g/m*3 7.04 C 0.4 km/h
2232 30-10-2015 10:00:00 7.65833 C 7.92 g/m*3 7.66 C 0.13333 km/h
2233 30-10-2015 11:00:00 8.35 C 8.29 g/m*3 8.35 C 0.4 km/h
2234 30-10-2015 12:00:00 9.24167 C 8.77 g/m*3 9.24 C 1.6 km/h
2235 30-10-2015 13:00:00 10.60833 C 9.45 g/m*3 10.61 C 2.26667 km/h
2236 30-10-2015 14:00:00 12.40833 C 10.19 g/m*3 12.41 C 0.4 km/h
2237 30-10-2015 15:00:00 12.59167 C 10.02 g/m*3 12.59 C 0.4 km/h
2238 30-10-2015 16:00:00 11.53333 C 9.49 g/m*3 11.53 C 0 km/h
2239 30-10-2015 17:00:00 10.43333 C 8.96 g/m*3 10.43 C 0.13333 km/h
2240 30-10-2015 18:00:00 9.28333 C 8.39 g/m*3 9.28 C 0 km/h
2241 30-10-2015 19:00:00 8.18333 C 7.92 g/m*3 8.18 C 0 km/h
2242 30-10-2015 20:00:00 7.65 C 7.71 g/m*3 7.65 C 0 km/h
2243 30-10-2015 21:00:00 7.3 C 7.58 g/m*3 7.3 C 0.13333 km/h
2244 30-10-2015 22:00:00 6.5 C 7.17 g/m*3 6.5 C 0 km/h
2245 30-10-2015 23:00:00 6.03333 C 6.98 g/m*3 6.03 C 0 km/h
2246 31-10-2015 00:00:00 5.29167 C 6.65 g/m*3 5.29 C 0 km/h
2247 31-10-2015 01:00:00 4.79167 C 6.43 g/m*3 4.79 C 0 km/h
2248 31-10-2015 02:00:00 4.31667 C 6.26 g/m*3 4.32 C 0 km/h
2249 31-10-2015 03:00:00 3.875 C 6.09 g/m*3 3.88 C 0 km/h
2250 31-10-2015 04:00:00 3.43333 C 5.93 g/m*3 3.43 C 0 km/h
Sensor: Nr:Datum:Temp:Abs-Feuchte:Windchill:Wind:
Aussen-T/F 2251 31-10-2015 05:00:00 3.99167 C 6.16 g/m*3 3.99 C 0 km/h
2252 31-10-2015 06:00:00 4.71667 C 6.47 g/m*3 4.72 C 0 km/h
2253 31-10-2015 07:00:00 5.65833 C 6.93 g/m*3 5.66 C 0 km/h
2254 31-10-2015 08:00:00 6.78333 C 7.49 g/m*3 6.78 C 0 km/h
2255 31-10-2015 09:00:00 7.54167 C 7.87 g/m*3 7.54 C 0 km/h
2256 31-10-2015 10:00:00 8.24167 C 8.23 g/m*3 8.24 C 0.4 km/h
2257 31-10-2015 11:00:00 8.625 C 8.38 g/m*3 8.63 C 0.66667 km/h
2258 31-10-2015 12:00:00 9.525 C 8.49 g/m*3 9.53 C 3.46667 km/h
2259 31-10-2015 13:00:00 10.5 C 8.49 g/m*3 10.5 C 3.2 km/h
2260 31-10-2015 14:00:00 10.76667 C 8.49 g/m*3 10.77 C 2.94167 km/h
2261 31-10-2015 15:00:00 10.64167 C 8.42 g/m*3 10.64 C 1.6 km/h
2262 31-10-2015 16:00:00 10.35 C 8.43 g/m*3 10.35 C 0.8 km/h
2263 31-10-2015 17:00:00 9.95833 C 8.41 g/m*3 9.96 C 0.13333 km/h
2264 31-10-2015 18:00:00 9.6 C 8.34 g/m*3 9.6 C 0 km/h
2265 31-10-2015 19:00:00 9.28333 C 8.26 g/m*3 9.28 C 0.26667 km/h
2266 31-10-2015 20:00:00 8.225 C 7.75 g/m*3 8.23 C 1.6 km/h
2267 31-10-2015 21:00:00 7.21667 C 7.38 g/m*3 7.22 C 0.4 km/h
2268 31-10-2015 22:00:00 5.95833 C 6.85 g/m*3 5.96 C 0 km/h
2269 31-10-2015 23:00:00 5.21667 C 6.58 g/m*3 5.22 C 0 km/h
2270 01-11-2015 00:00:00 4.675 C 6.38 g/m*3 4.68 C 0.13333 km/h
2271 01-11-2015 01:00:00 4.76667 C 6.45 g/m*3 4.77 C 0 km/h
2272 01-11-2015 02:00:00 4.99167 C 6.57 g/m*3 4.99 C 0.13333 km/h
2273 01-11-2015 03:00:00 5.125 C 6.65 g/m*3 5.13 C 0.26667 km/h
2274 01-11-2015 04:00:00 5.34167 C 6.74 g/m*3 5.34 C 0 km/h
2275 01-11-2015 05:00:00 5.76667 C 6.93 g/m*3 5.77 C 0.26667 km/h
Sensor: Nr:Datum:Temp:Abs-Feuchte:Windchill:Wind:
Aussen-T/F 2276 01-11-2015 06:00:00 6.03333 C 7.06 g/m*3 6.03 C 0 km/h
2277 01-11-2015 07:00:00 6.10833 C 7.09 g/m*3 6.11 C 3.06667 km/h
2278 01-11-2015 08:00:00 6.15 C 7.11 g/m*3 6.15 C 0.93333 km/h
2279 01-11-2015 09:00:00 6.28333 C 7.17 g/m*3 6.28 C 1.86667 km/h
2280 01-11-2015 10:00:00 6.81667 C 7.43 g/m*3 6.82 C 1.33333 km/h
2281 01-11-2015 11:00:00 7.375 C 7.68 g/m*3 7.38 C 2.13333 km/h
2282 01-11-2015 12:00:00 8.175 C 7.98 g/m*3 8.18 C 3.46667 km/h
2283 01-11-2015 13:00:00 8.725 C 8.16 g/m*3 8.73 C 0.93333 km/h
2284 01-11-2015 14:00:00 8.95 C 8.27 g/m*3 8.95 C 0.66667 km/h
2285 01-11-2015 15:00:00 9.2 C 8.48 g/m*3 9.2 C 1.46667 km/h
2286 01-11-2015 16:00:00 9.05 C 8.4 g/m*3 9.05 C 0.53333 km/h
2287 01-11-2015 17:00:00 8.14167 C 7.91 g/m*3 8.14 C 0.66667 km/h
2288 01-11-2015 18:00:00 6.96667 C 7.36 g/m*3 6.97 C 0 km/h
2289 01-11-2015 19:00:00 6.05 C 6.98 g/m*3 6.05 C 0 km/h
2290 01-11-2015 20:00:00 6.5 C 7.26 g/m*3 6.5 C 0 km/h
2291 01-11-2015 21:00:00 5.94167 C 7 g/m*3 5.94 C 0.13333 km/h
2292 01-11-2015 22:00:00 5.425 C 6.78 g/m*3 5.43 C 0 km/h
2293 01-11-2015 23:00:00 5.29167 C 6.72 g/m*3 5.29 C 0.13333 km/h
2294 02-11-2015 00:00:00 4.83333 C 6.52 g/m*3 4.83 C 0 km/h
2295 02-11-2015 01:00:00 4.33333 C 6.31 g/m*3 4.33 C 0.13333 km/h
2296 02-11-2015 02:00:00 4.075 C 6.2 g/m*3 4.08 C 0.13333 km/h
2297 02-11-2015 03:00:00 3.725 C 6.05 g/m*3 3.73 C 0.13333 km/h
2298 02-11-2015 04:00:00 3.64167 C 6.02 g/m*3 3.64 C 0.53333 km/h
2299 02-11-2015 05:00:00 3.125 C 5.82 g/m*3 3.13 C 1.73333 km/h
2300 02-11-2015 06:00:00 2.7 C 5.65 g/m*3 2.7 C 1.06667 km/h
Sensor: Nr:Datum:Temp:Abs-Feuchte:Windchill:Wind:
Aussen-T/F 2301 02-11-2015 07:00:00 2.44167 C 5.57 g/m*3 2.44 C 0.93333 km/h
2302 02-11-2015 08:00:00 2.60833 C 5.67 g/m*3 2.61 C 0.13333 km/h
2303 02-11-2015 09:00:00 2.825 C 5.76 g/m*3 2.83 C 2.26667 km/h
2304 02-11-2015 10:00:00 3.51667 C 6.03 g/m*3 3.52 C 2.53333 km/h
2305 02-11-2015 11:00:00 4.40833 C 6.4 g/m*3 4.41 C 0.8 km/h
2306 02-11-2015 12:00:00 5.39167 C 6.83 g/m*3 5.39 C 0.13333 km/h
2307 02-11-2015 13:00:00 6.23333 C 7.22 g/m*3 6.23 C 2.13333 km/h
2308 02-11-2015 14:00:00 7.69167 C 7.94 g/m*3 7.69 C 3.86667 km/h
2309 02-11-2015 15:00:00 8.10833 C 8.16 g/m*3 8.11 C 4.66667 km/h
2310 02-11-2015 16:00:00 8.13333 C 8.14 g/m*3 8.13 C 3.33333 km/h
2311 02-11-2015 17:00:00 7.28333 C 7.45 g/m*3 7.28 C 2.13333 km/h
2312 02-11-2015 18:00:00 6.51667 C 6.99 g/m*3 6.52 C 2.4 km/h
2313 02-11-2015 19:00:00 5.48333 C 6.55 g/m*3 5.48 C 1.73333 km/h
2314 02-11-2015 20:00:00 4.275 C 6.09 g/m*3 4.28 C 0.13333 km/h
2315 02-11-2015 21:00:00 3.225 C 5.73 g/m*3 3.23 C 0 km/h
2316 02-11-2015 22:00:00 3.43333 C 5.89 g/m*3 3.43 C 0.4 km/h
2317 02-11-2015 23:00:00 4.175 C 6.24 g/m*3 4.18 C 1.2 km/h
2318 03-11-2015 00:00:00 4.2 C 6.2 g/m*3 4.2 C 2.26667 km/h
2319 03-11-2015 01:00:00 4.10833 C 6.15 g/m*3 4.11 C 0.13333 km/h
2320 03-11-2015 02:00:00 4.21667 C 6.19 g/m*3 4.22 C 0.13333 km/h
2321 03-11-2015 03:00:00 4.19167 C 6.18 g/m*3 4.19 C 2.53333 km/h
2322 03-11-2015 04:00:00 3.68333 C 5.98 g/m*3 2.3 C 5.74167 km/h
2323 03-11-2015 05:00:00 3.23333 C 5.84 g/m*3 3.23 C 0.66667 km/h
2324 03-11-2015 06:00:00 3.3 C 5.87 g/m*3 3.3 C 4.28333 km/h
2325 03-11-2015 07:00:00 2.84167 C 5.7 g/m*3 2.84 C 1.06667 km/h
Sensor: Nr:Datum:Temp:Abs-Feuchte:Windchill:Wind:
Aussen-T/F 2326 03-11-2015 08:00:00 3.13333 C 5.82 g/m*3 3.13 C 2.66667 km/h
2327 03-11-2015 09:00:00 3.10833 C 5.79 g/m*3 3.11 C 4.54167 km/h
2328 03-11-2015 10:00:00 3.59167 C 6 g/m*3 3.59 C 2.53333 km/h
2329 03-11-2015 11:00:00 5.01667 C 6.5 g/m*3 5.02 C 2 km/h
2330 03-11-2015 12:00:00 6.00833 C 6.74 g/m*3 6.01 C 4 km/h
2331 03-11-2015 13:00:00 6.81667 C 7.04 g/m*3 6.82 C 0.8 km/h
2332 03-11-2015 14:00:00 7.425 C 7.37 g/m*3 7.43 C 0 km/h
2333 03-11-2015 15:00:00 7.95833 C 7.61 g/m*3 7.96 C 0.53333 km/h
2334 03-11-2015 16:00:00 7.34167 C 7.36 g/m*3 7.34 C 0.53333 km/h
2335 03-11-2015 17:00:00 6.55833 C 7.05 g/m*3 6.56 C 1.2 km/h
2336 03-11-2015 18:00:00 5.575 C 6.66 g/m*3 5.58 C 1.46667 km/h
2337 03-11-2015 19:00:00 5.26667 C 6.6 g/m*3 5.27 C 0 km/h
2338 03-11-2015 20:00:00 5.60833 C 6.79 g/m*3 5.61 C 0.26667 km/h
2339 03-11-2015 21:00:00 5.60833 C 6.79 g/m*3 5.61 C 0 km/h
2340 03-11-2015 22:00:00 5.41667 C 6.71 g/m*3 5.42 C 0.26667 km/h
2341 03-11-2015 23:00:00 5.76667 C 6.86 g/m*3 5.77 C 0 km/h
2342 04-11-2015 00:00:00 4.84167 C 6.43 g/m*3 4.84 C 0 km/h
2343 04-11-2015 01:00:00 4.19167 C 6.18 g/m*3 4.19 C 0 km/h
2344 04-11-2015 02:00:00 3.65 C 5.96 g/m*3 3.65 C 0 km/h
2345 04-11-2015 03:00:00 3.35833 C 5.86 g/m*3 3.36 C 0 km/h
2346 04-11-2015 04:00:00 2.925 C 5.71 g/m*3 2.93 C 0 km/h
2347 04-11-2015 05:00:00 3.01667 C 5.77 g/m*3 3.02 C 0 km/h
2348 04-11-2015 06:00:00 3.43333 C 5.94 g/m*3 3.43 C 0 km/h
2349 04-11-2015 07:00:00 3.44167 C 5.94 g/m*3 3.44 C 0 km/h
2350 04-11-2015 08:00:00 3.56667 C 5.99 g/m*3 3.57 C 0 km/h
Sensor: Nr:Datum:Temp:Abs-Feuchte:Windchill:Wind:
Aussen-T/F 2351 04-11-2015 09:00:00 4.875 C 6.59 g/m*3 4.88 C 0 km/h
2352 04-11-2015 10:00:00 6.675 C 7.43 g/m*3 6.68 C 0 km/h
2353 04-11-2015 11:00:00 8.06667 C 8.14 g/m*3 8.07 C 0 km/h
2354 04-11-2015 12:00:00 9.6 C 8.98 g/m*3 9.6 C 1.06667 km/h
2355 04-11-2015 13:00:00 11.88333 C 10.15 g/m*3 11.88 C 0 km/h
2356 04-11-2015 14:00:00 13.9 C 10.77 g/m*3 13.9 C 0.4 km/h
2357 04-11-2015 15:00:00 14.61667 C 10.55 g/m*3 14.62 C 3.33333 km/h
2358 04-11-2015 16:00:00 14.10833 C 9.78 g/m*3 14.11 C 4.80833 km/h
2359 04-11-2015 17:00:00 12.675 C 9.51 g/m*3 12.68 C 2.80833 km/h
2360 04-11-2015 18:00:00 11 C 9.08 g/m*3 11 C 0.93333 km/h
2361 04-11-2015 19:00:00 9.91667 C 8.68 g/m*3 9.92 C 1.46667 km/h
2362 04-11-2015 20:00:00 9.45833 C 8.58 g/m*3 9.46 C 0.53333 km/h
2363 04-11-2015 21:00:00 9.84167 C 8.85 g/m*3 9.84 C 0.93333 km/h
2364 04-11-2015 22:00:00 9.35833 C 8.5 g/m*3 9.36 C 0 km/h
2365 04-11-2015 23:00:00 8.69167 C 8.21 g/m*3 8.69 C 0 km/h
2366 05-11-2015 00:00:00 8.49167 C 8.19 g/m*3 8.49 C 0 km/h
2367 05-11-2015 01:00:00 8.63333 C 8.27 g/m*3 8.63 C 0.26667 km/h
2368 05-11-2015 02:00:00 8.90833 C 8.43 g/m*3 8.91 C 0.26667 km/h
2369 05-11-2015 03:00:00 8.05833 C 7.97 g/m*3 8.06 C 0.66667 km/h
2370 05-11-2015 04:00:00 7.75 C 7.86 g/m*3 7.75 C 0.13333 km/h
2371 05-11-2015 05:00:00 7.58333 C 7.79 g/m*3 7.58 C 0 km/h
2372 05-11-2015 06:00:00 7.70833 C 7.87 g/m*3 7.71 C 0.13333 km/h
2373 05-11-2015 07:00:00 7.54167 C 7.79 g/m*3 7.54 C 0 km/h
2374 05-11-2015 08:00:00 7.725 C 7.88 g/m*3 7.73 C 0.4 km/h
2375 05-11-2015 09:00:00 8.29167 C 8.17 g/m*3 8.29 C 1.33333 km/h
Sensor: Nr:Datum:Temp:Abs-Feuchte:Windchill:Wind:
Aussen-T/F 2376 05-11-2015 10:00:00 8.5 C 8.32 g/m*3 8.5 C 0.4 km/h
2377 05-11-2015 11:00:00 9.425 C 8.88 g/m*3 9.43 C 1.6 km/h
2378 05-11-2015 12:00:00 10.75833 C 9.66 g/m*3 10.76 C 3.46667 km/h
2379 05-11-2015 13:00:00 12.06667 C 10.49 g/m*3 12.07 C 3.6 km/h
2380 05-11-2015 14:00:00 13.58333 C 11.45 g/m*3 13.58 C 3.06667 km/h
2381 05-11-2015 15:00:00 14.775 C 11.62 g/m*3 14.78 C 3.2 km/h
2382 05-11-2015 16:00:00 14.65 C 11.13 g/m*3 14.65 C 5.2 km/h
2383 05-11-2015 17:00:00 13.35 C 10.53 g/m*3 13.35 C 4.53333 km/h
2384 05-11-2015 18:00:00 12.90833 C 10.33 g/m*3 12.91 C 3.06667 km/h
2385 05-11-2015 19:00:00 12.50833 C 10.1 g/m*3 12.51 C 1.73333 km/h
2386 05-11-2015 20:00:00 11.9 C 9.87 g/m*3 11.9 C 1.33333 km/h
2387 05-11-2015 21:00:00 11.61667 C 9.78 g/m*3 11.62 C 1.06667 km/h
2388 05-11-2015 22:00:00 11.25833 C 9.63 g/m*3 11.26 C 0 km/h
2389 05-11-2015 23:00:00 11.2 C 9.63 g/m*3 11.2 C 0 km/h
2390 06-11-2015 00:00:00 11.06667 C 9.62 g/m*3 11.07 C 0 km/h
2391 06-11-2015 01:00:00 11 C 9.61 g/m*3 11 C 0 km/h
2392 06-11-2015 02:00:00 10.80833 C 9.52 g/m*3 10.81 C 0 km/h
2393 06-11-2015 03:00:00 10.93333 C 9.67 g/m*3 10.93 C 0.26667 km/h
2394 06-11-2015 04:00:00 10.85833 C 9.62 g/m*3 10.86 C 0 km/h
2395 06-11-2015 05:00:00 10.90833 C 9.65 g/m*3 10.91 C 0 km/h
2396 06-11-2015 06:00:00 11.09167 C 9.77 g/m*3 11.09 C 0 km/h
2397 06-11-2015 07:00:00 10.39167 C 9.34 g/m*3 10.39 C 0 km/h
2398 06-11-2015 08:00:00 10.11667 C 9.18 g/m*3 10.12 C 0.26667 km/h
2399 06-11-2015 09:00:00 11.03333 C 9.81 g/m*3 11.03 C 0.66667 km/h
2400 06-11-2015 10:00:00 12.01667 C 10.45 g/m*3 12.02 C 0 km/h
Sensor: Nr:Datum:Temp:Abs-Feuchte:Windchill:Wind:
Aussen-T/F 2401 06-11-2015 11:00:00 13.58333 C 11.46 g/m*3 13.58 C 4.14167 km/h
2402 06-11-2015 12:00:00 15.4 C 11.81 g/m*3 15.4 C 8.19167 km/h
2403 06-11-2015 13:00:00 15.73333 C 11.78 g/m*3 15.73 C 10.61667 km/h
2404 06-11-2015 14:00:00 15.8 C 11.71 g/m*3 15.8 C 4.69167 km/h
2405 06-11-2015 15:00:00 16.14167 C 11.55 g/m*3 16.14 C 5.09167 km/h
2406 06-11-2015 16:00:00 16.41667 C 11.51 g/m*3 16.42 C 5.35833 km/h
2407 06-11-2015 17:00:00 15.375 C 11.11 g/m*3 15.38 C 2.80833 km/h
2408 06-11-2015 18:00:00 14.90833 C 11.15 g/m*3 14.91 C 2.80833 km/h
2409 06-11-2015 19:00:00 15.50833 C 11.45 g/m*3 15.51 C 6.84167 km/h
2410 06-11-2015 20:00:00 15.61667 C 11.85 g/m*3 15.62 C 2 km/h
2411 06-11-2015 21:00:00 14.88333 C 11.97 g/m*3 14.88 C 0.13333 km/h
2412 06-11-2015 22:00:00 14.74167 C 12.14 g/m*3 14.74 C 1.73333 km/h
2413 06-11-2015 23:00:00 15.225 C 12.6 g/m*3 15.23 C 3.2 km/h
2414 07-11-2015 00:00:00 15.53333 C 12.85 g/m*3 15.53 C 4.41667 km/h
2415 07-11-2015 01:00:00 15.66667 C 12.95 g/m*3 15.67 C 5.08333 km/h
2416 07-11-2015 02:00:00 15.80833 C 13.06 g/m*3 15.81 C 6.85 km/h
2417 07-11-2015 03:00:00 16.00833 C 13.13 g/m*3 16.01 C 6.96667 km/h
2418 07-11-2015 04:00:00 16.08333 C 13.15 g/m*3 16.08 C 3.89167 km/h
2419 07-11-2015 05:00:00 15.95 C 13.04 g/m*3 15.95 C 0.26667 km/h
2420 07-11-2015 06:00:00 15.875 C 13.09 g/m*3 15.88 C 0.93333 km/h
2421 07-11-2015 07:00:00 15.89167 C 13.13 g/m*3 15.89 C 0.93333 km/h
2422 07-11-2015 08:00:00 15.99167 C 13.21 g/m*3 15.99 C 0 km/h
2423 07-11-2015 09:00:00 16.6 C 13.7 g/m*3 16.6 C 0.13333 km/h
2424 07-11-2015 10:00:00 17.15833 C 14.01 g/m*3 17.16 C 5.5 km/h
2425 07-11-2015 11:00:00 18.05 C 13.86 g/m*3 18.05 C 10.625 km/h
Sensor: Nr:Datum:Temp:Abs-Feuchte:Windchill:Wind:
Aussen-T/F 2426 07-11-2015 12:00:00 18.4 C 13.7 g/m*3 18.4 C 7.91667 km/h
2427 07-11-2015 13:00:00 18.375 C 13.7 g/m*3 18.38 C 7.25 km/h
2428 07-11-2015 14:00:00 18.15833 C 13.64 g/m*3 18.16 C 4.01667 km/h
2429 07-11-2015 15:00:00 17.98333 C 13.55 g/m*3 17.98 C 1.86667 km/h
2430 07-11-2015 16:00:00 17.05 C 13.24 g/m*3 17.05 C 2.66667 km/h
2431 07-11-2015 17:00:00 16.2 C 12.81 g/m*3 16.2 C 2.26667 km/h
2432 07-11-2015 18:00:00 15.80833 C 12.66 g/m*3 15.81 C 2.13333 km/h
2433 07-11-2015 19:00:00 15.60833 C 12.62 g/m*3 15.61 C 0.53333 km/h
2434 07-11-2015 20:00:00 15.31667 C 12.43 g/m*3 15.32 C 0.66667 km/h
2435 07-11-2015 21:00:00 15.225 C 12.46 g/m*3 15.23 C 1.46667 km/h
2436 07-11-2015 22:00:00 15.34167 C 12.57 g/m*3 15.34 C 2.8 km/h
2437 07-11-2015 23:00:00 15.61667 C 12.77 g/m*3 15.62 C 3.075 km/h
2438 08-11-2015 00:00:00 15.075 C 12.3 g/m*3 15.08 C 2.275 km/h
2439 08-11-2015 01:00:00 14.48333 C 11.93 g/m*3 14.48 C 0.53333 km/h
2440 08-11-2015 02:00:00 13.96667 C 11.6 g/m*3 13.97 C 1.875 km/h
2441 08-11-2015 03:00:00 13.56667 C 11.32 g/m*3 13.57 C 2.8 km/h
2442 08-11-2015 04:00:00 12.36667 C 10.45 g/m*3 12.37 C 0 km/h
2443 08-11-2015 05:00:00 11.49167 C 9.89 g/m*3 11.49 C 0 km/h
2444 08-11-2015 06:00:00 10.86667 C 9.55 g/m*3 10.87 C 0 km/h
2445 08-11-2015 07:00:00 10.41667 C 9.33 g/m*3 10.42 C 0 km/h
2446 08-11-2015 08:00:00 10 C 9.09 g/m*3 10 C 0 km/h
2447 08-11-2015 09:00:00 10.51667 C 9.42 g/m*3 10.52 C 0 km/h
2448 08-11-2015 10:00:00 10.80833 C 9.59 g/m*3 10.81 C 0 km/h
2449 08-11-2015 11:00:00 11.45 C 10.05 g/m*3 11.45 C 0 km/h
2450 08-11-2015 12:00:00 13.375 C 11.37 g/m*3 13.38 C 0 km/h
Sensor: Nr:Datum:Temp:Abs-Feuchte:Windchill:Wind:
Aussen-T/F 2451 08-11-2015 13:00:00 14.60833 C 12.1 g/m*3 14.61 C 0 km/h
2452 08-11-2015 14:00:00 16.7 C 12.9 g/m*3 16.7 C 0 km/h
2453 08-11-2015 15:00:00 17.01667 C 12.72 g/m*3 17.02 C 0.13333 km/h
2454 08-11-2015 16:00:00 15.88333 C 12.02 g/m*3 15.88 C 0.93333 km/h
2455 08-11-2015 17:00:00 14.24167 C 11.29 g/m*3 14.24 C 2 km/h
2456 08-11-2015 18:00:00 13.51667 C 10.96 g/m*3 13.52 C 2.93333 km/h
2457 08-11-2015 19:00:00 12.9 C 10.69 g/m*3 12.9 C 2.53333 km/h
2458 08-11-2015 20:00:00 12.63333 C 10.62 g/m*3 12.63 C 1.73333 km/h
2459 08-11-2015 21:00:00 12.18333 C 10.35 g/m*3 12.18 C 0 km/h
2460 08-11-2015 22:00:00 11.60833 C 10.03 g/m*3 11.61 C 0 km/h
2461 08-11-2015 23:00:00 11.675 C 10.12 g/m*3 11.68 C 0.66667 km/h
2462 09-11-2015 00:00:00 11.44167 C 9.99 g/m*3 11.44 C 1.60833 km/h
2463 09-11-2015 01:00:00 13.01667 C 10.97 g/m*3 13.02 C 10.075 km/h
2464 09-11-2015 02:00:00 15.25 C 11.36 g/m*3 15.25 C 10.89167 km/h
2465 09-11-2015 03:00:00 15.44167 C 11.29 g/m*3 15.44 C 9 km/h
2466 09-11-2015 04:00:00 15.15833 C 11.25 g/m*3 15.16 C 6.98333 km/h
2467 09-11-2015 05:00:00 15.04167 C 11.34 g/m*3 15.04 C 6.3 km/h
2468 09-11-2015 06:00:00 15.04167 C 11.46 g/m*3 15.04 C 6.975 km/h
2469 09-11-2015 07:00:00 14.9 C 11.87 g/m*3 14.9 C 4.275 km/h
2470 09-11-2015 08:00:00 14.325 C 11.75 g/m*3 14.33 C 1.6 km/h
2471 09-11-2015 09:00:00 14.54167 C 11.99 g/m*3 14.54 C 1.46667 km/h
2472 09-11-2015 10:00:00 14.34167 C 11.89 g/m*3 14.34 C 4.28333 km/h
2473 09-11-2015 11:00:00 15.84167 C 11.53 g/m*3 15.84 C 15.83333 km/h
2474 09-11-2015 12:00:00 16.85833 C 10.7 g/m*3 16.86 C 16.36667 km/h
2475 09-11-2015 13:00:00 16.68333 C 9.57 g/m*3 16.68 C 22.39167 km/h
Sensor: Nr:Datum:Temp:Abs-Feuchte:Windchill:Wind:
Aussen-T/F 2476 09-11-2015 14:00:00 15.9 C 9.43 g/m*3 15.9 C 11.56667 km/h
2477 09-11-2015 15:00:00 15.44286 C 9.5 g/m*3 15.44 C 8.74286 km/h
2478 09-11-2015 16:00:00 15.1 C 9.55 g/m*3 15.1 C 1.6 km/h
2479 09-11-2015 17:00:00 14.43333 C 9.3 g/m*3 14.43 C 6.975 km/h
2480 09-11-2015 18:00:00 14.54167 C 9.22 g/m*3 14.54 C 11 km/h
2481 09-11-2015 19:00:00 14.725 C 9.11 g/m*3 14.73 C 16.5 km/h
2482 09-11-2015 20:00:00 14.75 C 9.47 g/m*3 14.75 C 14.5 km/h
2483 09-11-2015 21:00:00 14.55 C 9.68 g/m*3 14.55 C 13.575 km/h
2484 09-11-2015 22:00:00 14.35833 C 9.6 g/m*3 14.36 C 17.16667 km/h
2485 09-11-2015 23:00:00 14.25 C 9.46 g/m*3 14.25 C 18.36667 km/h
2486 10-11-2015 00:00:00 14.06667 C 9.36 g/m*3 14.07 C 13.96667 km/h
2487 10-11-2015 01:00:00 13.825 C 9.28 g/m*3 13.83 C 15.56667 km/h
2488 10-11-2015 02:00:00 13.76667 C 9.32 g/m*3 13.77 C 15.69167 km/h
2489 10-11-2015 03:00:00 13.48333 C 9.33 g/m*3 13.48 C 16.36667 km/h
2490 10-11-2015 04:00:00 12.96667 C 9.23 g/m*3 12.97 C 9.53333 km/h
2491 10-11-2015 05:00:00 12.79167 C 9.24 g/m*3 12.79 C 9.55 km/h
2492 10-11-2015 06:00:00 12.675 C 9.1 g/m*3 12.68 C 11.3 km/h
2493 10-11-2015 07:00:00 12.575 C 9.14 g/m*3 12.58 C 14.1 km/h
2494 10-11-2015 08:00:00 12.74167 C 9.26 g/m*3 12.74 C 15.03333 km/h
2495 10-11-2015 09:00:00 12.95 C 9.38 g/m*3 12.95 C 14.76667 km/h
2496 10-11-2015 10:00:00 13.14167 C 9.5 g/m*3 13.14 C 16.76667 km/h
2497 10-11-2015 11:00:00 13.55 C 9.65 g/m*3 13.55 C 16.5 km/h
2498 10-11-2015 12:00:00 13.45833 C 9.67 g/m*3 13.46 C 10.06667 km/h
2499 10-11-2015 13:00:00 13.43333 C 9.78 g/m*3 13.43 C 9.275 km/h
2500 10-11-2015 14:00:00 13.525 C 9.85 g/m*3 13.53 C 14.63333 km/h
Sensor: Nr:Datum:Temp:Abs-Feuchte:Windchill:Wind:
Aussen-T/F 2501 10-11-2015 15:00:00 13.35 C 9.8 g/m*3 13.35 C 16.5 km/h
2502 10-11-2015 16:00:00 13.26667 C 9.85 g/m*3 13.27 C 13.7 km/h
2503 10-11-2015 17:00:00 13.16667 C 9.88 g/m*3 13.17 C 12.9 km/h
2504 10-11-2015 18:00:00 12.75833 C 9.84 g/m*3 12.76 C 13.43333 km/h
2505 10-11-2015 19:00:00 12.54167 C 9.91 g/m*3 12.54 C 14.1 km/h
2506 10-11-2015 20:00:00 12.40833 C 9.84 g/m*3 12.41 C 13.83333 km/h
2507 10-11-2015 21:00:00 12.55 C 9.93 g/m*3 12.55 C 11.81667 km/h
2508 10-11-2015 22:00:00 12.56667 C 9.95 g/m*3 12.57 C 2.675 km/h
2509 10-11-2015 23:00:00 12.35 C 9.91 g/m*3 12.35 C 2.13333 km/h
2510 11-11-2015 00:00:00 12.35833 C 9.9 g/m*3 12.36 C 5.76667 km/h
2511 11-11-2015 01:00:00 12.40833 C 9.96 g/m*3 12.41 C 8.2 km/h
2512 11-11-2015 02:00:00 12.30833 C 9.89 g/m*3 12.31 C 7.10833 km/h
2513 11-11-2015 03:00:00 11.7 C 9.54 g/m*3 11.7 C 3.75833 km/h
2514 11-11-2015 04:00:00 11.775 C 9.67 g/m*3 11.78 C 9.40833 km/h
2515 11-11-2015 05:00:00 12.075 C 9.74 g/m*3 12.08 C 9.94167 km/h
2516 11-11-2015 06:00:00 12.04167 C 9.63 g/m*3 12.04 C 6.98333 km/h
2517 11-11-2015 07:00:00 11.80833 C 9.44 g/m*3 11.81 C 5.9 km/h
2518 11-11-2015 08:00:00 11.8 C 9.15 g/m*3 11.8 C 4.68333 km/h
2519 11-11-2015 09:00:00 12.01667 C 8.71 g/m*3 12.02 C 9.00833 km/h
2520 11-11-2015 10:00:00 12.36667 C 8.62 g/m*3 12.37 C 10.75833 km/h
2521 11-11-2015 11:00:00 12.49167 C 8.39 g/m*3 12.49 C 12.63333 km/h
2522 11-11-2015 12:00:00 12.775 C 8.41 g/m*3 12.78 C 11.43333 km/h
2523 11-11-2015 13:00:00 12.975 C 8.43 g/m*3 12.98 C 10.21667 km/h
2524 11-11-2015 14:00:00 13.25833 C 8.47 g/m*3 13.26 C 9.55 km/h
2525 11-11-2015 15:00:00 12.64167 C 8.46 g/m*3 12.64 C 5.24167 km/h
Sensor: Nr:Datum:Temp:Abs-Feuchte:Windchill:Wind:
Aussen-T/F 2526 11-11-2015 16:00:00 11.35 C 8.29 g/m*3 11.35 C 2.53333 km/h
2527 11-11-2015 17:00:00 9.78333 C 7.95 g/m*3 9.78 C 2.8 km/h
2528 11-11-2015 18:00:00 9.375 C 7.92 g/m*3 9.38 C 3.35833 km/h
2529 11-11-2015 19:00:00 10.51667 C 7.97 g/m*3 9.89 C 6.7 km/h
2530 11-11-2015 20:00:00 10.89167 C 8.14 g/m*3 10.89 C 1.33333 km/h
2531 11-11-2015 21:00:00 10.7 C 8.41 g/m*3 10.7 C 0 km/h
2532 11-11-2015 22:00:00 10.66667 C 8.58 g/m*3 10.67 C 0 km/h
2533 11-11-2015 23:00:00 10.875 C 8.71 g/m*3 10.88 C 0 km/h
2534 12-11-2015 00:00:00 11.075 C 8.82 g/m*3 11.08 C 0.4 km/h
2535 12-11-2015 01:00:00 11.275 C 8.99 g/m*3 11.28 C 0.53333 km/h
2536 12-11-2015 02:00:00 11.425 C 9.09 g/m*3 11.43 C 1.2 km/h
2537 12-11-2015 03:00:00 12.1 C 9.31 g/m*3 12.1 C 6.44167 km/h
2538 12-11-2015 04:00:00 12.05 C 9.39 g/m*3 12.05 C 6.29167 km/h
2539 12-11-2015 05:00:00 11.9 C 9.46 g/m*3 11.9 C 6.29167 km/h
2540 12-11-2015 06:00:00 11.825 C 9.57 g/m*3 11.83 C 7.93333 km/h
2541 12-11-2015 07:00:00 11.56667 C 9.45 g/m*3 11.57 C 2.53333 km/h
2542 12-11-2015 08:00:00 11.06667 C 9.26 g/m*3 11.07 C 1.06667 km/h
2543 12-11-2015 09:00:00 11.75833 C 9.66 g/m*3 11.76 C 9.28333 km/h
2544 12-11-2015 10:00:00 12.60833 C 9.78 g/m*3 12.61 C 7.925 km/h
2545 12-11-2015 11:00:00 13.41667 C 9.88 g/m*3 13.42 C 10.63333 km/h
2546 12-11-2015 12:00:00 13.53333 C 9.86 g/m*3 13.53 C 5.375 km/h
2547 12-11-2015 13:00:00 13.70833 C 9.51 g/m*3 13.71 C 4.95 km/h
2548 12-11-2015 14:00:00 13.61667 C 9.36 g/m*3 13.62 C 3.075 km/h
2549 12-11-2015 15:00:00 12.975 C 9.4 g/m*3 12.98 C 3.2 km/h
2550 12-11-2015 16:00:00 13.16667 C 9.62 g/m*3 13.17 C 2.4 km/h
Sensor: Nr:Datum:Temp:Abs-Feuchte:Windchill:Wind:
Aussen-T/F 2551 12-11-2015 17:00:00 12.74167 C 9.39 g/m*3 12.74 C 0.26667 km/h
2552 12-11-2015 18:00:00 12.50833 C 9.27 g/m*3 12.51 C 0 km/h
2553 12-11-2015 19:00:00 11.125 C 8.74 g/m*3 11.13 C 4.53333 km/h
2554 12-11-2015 20:00:00 10.15 C 8.54 g/m*3 10.15 C 2 km/h
2555 12-11-2015 21:00:00 9.15833 C 8.23 g/m*3 9.16 C 0 km/h
2556 12-11-2015 22:00:00 8.61667 C 8.01 g/m*3 8.62 C 0 km/h
2557 12-11-2015 23:00:00 7.80833 C 7.7 g/m*3 7.81 C 0 km/h
2558 13-11-2015 00:00:00 7.05833 C 7.39 g/m*3 7.06 C 0 km/h
2559 13-11-2015 01:00:00 7.56667 C 7.72 g/m*3 7.57 C 0 km/h
2560 13-11-2015 02:00:00 8.15 C 8.01 g/m*3 8.15 C 0 km/h
2561 13-11-2015 03:00:00 8.45 C 8.17 g/m*3 8.45 C 1.73333 km/h
2562 13-11-2015 04:00:00 8.55833 C 8.22 g/m*3 8.56 C 4.41667 km/h
2563 13-11-2015 05:00:00 8.90833 C 8.35 g/m*3 8.91 C 4.54167 km/h
2564 13-11-2015 06:00:00 9.73333 C 8.66 g/m*3 9.23 C 5.75 km/h
2565 13-11-2015 07:00:00 9.375 C 8.41 g/m*3 9.38 C 1.06667 km/h
2566 13-11-2015 08:00:00 9.68333 C 8.66 g/m*3 9.68 C 0.4 km/h
2567 13-11-2015 09:00:00 11 C 9.11 g/m*3 10.54 C 6.31667 km/h
2568 13-11-2015 10:00:00 11.95833 C 9.25 g/m*3 11.96 C 12.9 km/h
2569 13-11-2015 11:00:00 12.44167 C 9.44 g/m*3 12.44 C 14.9 km/h
2570 13-11-2015 12:00:00 13 C 9.59 g/m*3 13 C 15.96667 km/h
2571 13-11-2015 13:00:00 13.3 C 9.7 g/m*3 13.3 C 13.3 km/h
2572 13-11-2015 14:00:00 13.18333 C 9.73 g/m*3 13.18 C 10.75833 km/h
2573 13-11-2015 15:00:00 13.09167 C 9.87 g/m*3 13.09 C 9.00833 km/h
2574 13-11-2015 16:00:00 12.98333 C 10.07 g/m*3 12.98 C 8.33333 km/h
2575 13-11-2015 17:00:00 12.50833 C 9.85 g/m*3 12.51 C 9.95 km/h
Sensor: Nr:Datum:Temp:Abs-Feuchte:Windchill:Wind:
Aussen-T/F 2576 13-11-2015 18:00:00 12.30833 C 9.42 g/m*3 12.31 C 10.08333 km/h
2577 13-11-2015 19:00:00 11.51667 C 8.38 g/m*3 11.52 C 6.58333 km/h
2578 13-11-2015 20:00:00 10.84167 C 7.85 g/m*3 9.08 C 13.95833 km/h
2579 13-11-2015 21:00:00 10.05833 C 7.19 g/m*3 8.35 C 12.225 km/h
2580 13-11-2015 22:00:00 8.91667 C 6.88 g/m*3 7.87 C 7.39167 km/h
2581 13-11-2015 23:00:00 7.85833 C 6.75 g/m*3 7.12 C 5.625 km/h
2582 14-11-2015 00:00:00 7.71667 C 6.6 g/m*3 7.72 C 4.825 km/h
2583 14-11-2015 01:00:00 7.375 C 6.45 g/m*3 6.41 C 6.15833 km/h
2584 14-11-2015 02:00:00 7.56667 C 6.61 g/m*3 5.76 C 9.80833 km/h
2585 14-11-2015 03:00:00 7.75833 C 6.87 g/m*3 6.21 C 8.73333 km/h
2586 14-11-2015 04:00:00 7.725 C 6.95 g/m*3 5.8 C 10.625 km/h
2587 14-11-2015 05:00:00 7.975 C 6.96 g/m*3 5.22 C 16.5 km/h
2588 14-11-2015 06:00:00 8.225 C 6.97 g/m*3 5.55 C 16.36667 km/h
2589 14-11-2015 07:00:00 8.31667 C 7 g/m*3 5.65 C 16.5 km/h
2590 14-11-2015 08:00:00 8.59167 C 7.07 g/m*3 6.02 C 16.23333 km/h
2591 14-11-2015 09:00:00 8.94167 C 7.09 g/m*3 6.5 C 15.83333 km/h
2592 14-11-2015 10:00:00 9.25 C 7.15 g/m*3 6.94 C 15.43333 km/h
2593 14-11-2015 11:00:00 10 C 7.31 g/m*3 7.61 C 17.70833 km/h
2594 14-11-2015 12:00:00 10.425 C 7.41 g/m*3 8.47 C 14.76667 km/h
2595 14-11-2015 13:00:00 10.50833 C 7.58 g/m*3 8.63 C 14.225 km/h
2596 14-11-2015 14:00:00 10.075 C 7.84 g/m*3 8.1 C 14.23333 km/h
2597 14-11-2015 15:00:00 9.325 C 7.95 g/m*3 7.79 C 10.2 km/h
2598 14-11-2015 16:00:00 8.875 C 7.95 g/m*3 8.17 C 6.025 km/h
2599 14-11-2015 17:00:00 8.7 C 7.86 g/m*3 8.21 C 5.20833 km/h
2600 14-11-2015 18:00:00 8.79167 C 7.89 g/m*3 8.79 C 2.26667 km/h
Sensor: Nr:Datum:Temp:Abs-Feuchte:Windchill:Wind:
Aussen-T/F 2601 14-11-2015 19:00:00 9.2 C 7.86 g/m*3 7.1 C 13.69167 km/h
2602 14-11-2015 20:00:00 9.74167 C 7.7 g/m*3 7.68 C 14.36667 km/h
2603 14-11-2015 21:00:00 9.68333 C 7.56 g/m*3 7.75 C 13.3 km/h
2604 14-11-2015 22:00:00 9.71667 C 7.52 g/m*3 7.45 C 15.96667 km/h
2605 14-11-2015 23:00:00 9.55 C 7.67 g/m*3 6.8 C 20.11667 km/h
2606 15-11-2015 00:00:00 9.39167 C 7.78 g/m*3 6.15 C 25.06667 km/h
2607 15-11-2015 01:00:00 9.66667 C 7.98 g/m*3 6.68 C 23.05 km/h
2608 15-11-2015 02:00:00 9.925 C 8.19 g/m*3 7.12 C 21.71667 km/h
2609 15-11-2015 03:00:00 10.25833 C 8.42 g/m*3 7.57 C 21.44167 km/h
2610 15-11-2015 04:00:00 10.60833 C 8.64 g/m*3 7.7 C 25.35 km/h
2611 15-11-2015 05:00:00 11.15 C 8.88 g/m*3 11.15 C 17.16667 km/h
2612 15-11-2015 06:00:00 11.3 C 9.01 g/m*3 11.3 C 15.7 km/h
2613 15-11-2015 07:00:00 11.79167 C 9.14 g/m*3 11.79 C 19.175 km/h
2614 15-11-2015 08:00:00 12.19167 C 9.28 g/m*3 12.19 C 19.30833 km/h
2615 15-11-2015 09:00:00 12.69167 C 9.45 g/m*3 12.69 C 19.575 km/h
2616 15-11-2015 10:00:00 13.49167 C 9.74 g/m*3 13.49 C 19.56667 km/h
2617 15-11-2015 11:00:00 14.43333 C 10 g/m*3 14.43 C 22.24167 km/h
2618 15-11-2015 12:00:00 14.825 C 10.12 g/m*3 14.83 C 22.91667 km/h
2619 15-11-2015 13:00:00 15.09167 C 10.2 g/m*3 15.09 C 22.25 km/h
2620 15-11-2015 14:00:00 14.91667 C 10.08 g/m*3 14.92 C 21.85833 km/h
2621 15-11-2015 15:00:00 14.71667 C 10 g/m*3 14.72 C 19.30833 km/h
2622 15-11-2015 16:00:00 14.28333 C 9.87 g/m*3 14.28 C 16.9 km/h
2623 15-11-2015 17:00:00 13.475 C 9.74 g/m*3 13.48 C 15.16667 km/h
2624 15-11-2015 18:00:00 13.23333 C 9.66 g/m*3 13.23 C 15.56667 km/h
2625 15-11-2015 19:00:00 13.14167 C 9.52 g/m*3 13.14 C 14.76667 km/h
Sensor: Nr:Datum:Temp:Abs-Feuchte:Windchill:Wind:
Aussen-T/F 2626 15-11-2015 20:00:00 12.9 C 9.34 g/m*3 12.9 C 15.56667 km/h
2627 15-11-2015 21:00:00 12.68333 C 9.29 g/m*3 12.68 C 9.78333 km/h
2628 15-11-2015 22:00:00 12.46667 C 9.34 g/m*3 12.47 C 2.93333 km/h
2629 15-11-2015 23:00:00 12.29167 C 9.3 g/m*3 12.29 C 6.28333 km/h
2630 16-11-2015 00:00:00 12.14167 C 9.22 g/m*3 12.14 C 7.50833 km/h
2631 16-11-2015 01:00:00 12.39167 C 9.19 g/m*3 12.39 C 4.00833 km/h
2632 16-11-2015 02:00:00 12.28333 C 9.1 g/m*3 12.28 C 6.70833 km/h
2633 16-11-2015 03:00:00 11.96667 C 8.96 g/m*3 11.97 C 11.025 km/h
2634 16-11-2015 04:00:00 11.6 C 8.86 g/m*3 11.6 C 6.98333 km/h
2635 16-11-2015 05:00:00 10.96667 C 8.53 g/m*3 10.97 C 4.675 km/h
2636 16-11-2015 06:00:00 10.45833 C 8.38 g/m*3 10.46 C 2.8 km/h
2637 16-11-2015 07:00:00 10.78333 C 8.2 g/m*3 9.43 C 10.875 km/h
2638 16-11-2015 08:00:00 10.78333 C 7.89 g/m*3 10.09 C 7.23333 km/h
2639 16-11-2015 09:00:00 10.91667 C 7.92 g/m*3 9.95 C 8.725 km/h
2640 16-11-2015 10:00:00 11.29167 C 7.95 g/m*3 11.29 C 13.43333 km/h
2641 16-11-2015 11:00:00 11.725 C 8.15 g/m*3 11.73 C 17.03333 km/h
2642 16-11-2015 12:00:00 11.88333 C 8.28 g/m*3 11.88 C 15.16667 km/h
2643 16-11-2015 13:00:00 11.825 C 8.4 g/m*3 11.83 C 8.325 km/h
2644 16-11-2015 14:00:00 12.03333 C 8.55 g/m*3 12.03 C 11.15833 km/h
2645 16-11-2015 15:00:00 12 C 8.6 g/m*3 12 C 12.09167 km/h
2646 16-11-2015 16:00:00 11.81667 C 8.67 g/m*3 11.82 C 11.96667 km/h
2647 16-11-2015 17:00:00 11.50833 C 8.83 g/m*3 11.51 C 15.7 km/h
2648 16-11-2015 18:00:00 11.3 C 8.98 g/m*3 11.3 C 14.63333 km/h
2649 16-11-2015 19:00:00 11.59167 C 9.22 g/m*3 11.59 C 16.76667 km/h
2650 16-11-2015 20:00:00 11.79167 C 9.34 g/m*3 11.79 C 11.7 km/h
Sensor: Nr:Datum:Temp:Abs-Feuchte:Windchill:Wind:
Aussen-T/F 2651 16-11-2015 21:00:00 11.90833 C 9.4 g/m*3 11.91 C 15.7 km/h
2652 16-11-2015 22:00:00 12.04167 C 9.43 g/m*3 12.04 C 14.23333 km/h
2653 16-11-2015 23:00:00 12.21667 C 9.51 g/m*3 12.22 C 15.025 km/h
2654 17-11-2015 00:00:00 12.3 C 9.64 g/m*3 12.3 C 10.35 km/h
2655 17-11-2015 01:00:00 12.55833 C 9.78 g/m*3 12.56 C 11.025 km/h
2656 17-11-2015 02:00:00 12.875 C 9.92 g/m*3 12.88 C 11.29167 km/h
2657 17-11-2015 03:00:00 13.21667 C 10.06 g/m*3 13.22 C 13.025 km/h
2658 17-11-2015 04:00:00 12.84167 C 10.17 g/m*3 12.84 C 9.81667 km/h
2659 17-11-2015 05:00:00 12.675 C 10.21 g/m*3 12.68 C 12.20833 km/h
2660 17-11-2015 06:00:00 12.99167 C 10.18 g/m*3 12.99 C 16.76667 km/h
2661 17-11-2015 07:00:00 13.41667 C 10.26 g/m*3 13.42 C 20.36667 km/h
2662 17-11-2015 08:00:00 13.19167 C 10.51 g/m*3 13.19 C 17.43333 km/h
2663 17-11-2015 09:00:00 13.35 C 10.57 g/m*3 13.35 C 13.55833 km/h
2664 17-11-2015 10:00:00 13.39167 C 10.78 g/m*3 13.39 C 8.725 km/h
2665 17-11-2015 11:00:00 14.05 C 11.13 g/m*3 14.05 C 11.025 km/h
2666 17-11-2015 12:00:00 13.99167 C 11.31 g/m*3 13.99 C 5.75833 km/h
2667 17-11-2015 13:00:00 14.59167 C 11.53 g/m*3 14.59 C 7.36667 km/h
2668 17-11-2015 14:00:00 14.9 C 11.35 g/m*3 14.9 C 12.1 km/h
2669 17-11-2015 15:00:00 15.06667 C 11.1 g/m*3 15.07 C 12.36667 km/h
2670 17-11-2015 16:00:00 14.85833 C 11.03 g/m*3 14.86 C 8.46667 km/h
2671 17-11-2015 17:00:00 14.89167 C 11.1 g/m*3 14.89 C 13.95833 km/h
2672 17-11-2015 18:00:00 14.68333 C 11.28 g/m*3 14.68 C 13.56667 km/h
2673 17-11-2015 19:00:00 15.075 C 11.37 g/m*3 15.08 C 16.5 km/h
2674 17-11-2015 20:00:00 15.025 C 11.41 g/m*3 15.03 C 13.96667 km/h
2675 17-11-2015 21:00:00 15.26667 C 11.45 g/m*3 15.27 C 17.04167 km/h
Sensor: Nr:Datum:Temp:Abs-Feuchte:Windchill:Wind:
Aussen-T/F 2676 17-11-2015 22:00:00 15.725 C 11.74 g/m*3 15.73 C 20.64167 km/h
2677 17-11-2015 23:00:00 16 C 11.68 g/m*3 16 C 26.675 km/h
2678 18-11-2015 00:00:00 15.81667 C 10.82 g/m*3 15.82 C 19.975 km/h
2679 18-11-2015 01:00:00 15.70833 C 10.53 g/m*3 15.71 C 17.44167 km/h
2680 18-11-2015 02:00:00 15.46667 C 10.17 g/m*3 15.47 C 16.1 km/h
2681 18-11-2015 03:00:00 15.11667 C 9 g/m*3 15.12 C 21.59167 km/h
2682 18-11-2015 04:00:00 14.19167 C 8.7 g/m*3 14.19 C 16.23333 km/h
2683 18-11-2015 05:00:00 13.90833 C 8.64 g/m*3 13.91 C 15.83333 km/h
2684 18-11-2015 06:00:00 13.8 C 8.69 g/m*3 13.8 C 17.16667 km/h
2685 18-11-2015 07:00:00 13.5 C 8.61 g/m*3 13.5 C 12.76667 km/h
2686 18-11-2015 08:00:00 13.4 C 8.62 g/m*3 13.4 C 13.96667 km/h
2687 18-11-2015 09:00:00 13.575 C 8.72 g/m*3 13.58 C 13.425 km/h
2688 18-11-2015 10:00:00 13.90833 C 8.73 g/m*3 13.91 C 15.03333 km/h
2689 18-11-2015 11:00:00 14.09167 C 8.84 g/m*3 14.09 C 13.7 km/h
2690 18-11-2015 12:00:00 14.175 C 8.67 g/m*3 14.18 C 13.28333 km/h
2691 18-11-2015 13:00:00 14.11667 C 8.46 g/m*3 14.12 C 14.36667 km/h
2692 18-11-2015 14:00:00 13.86667 C 8.35 g/m*3 13.87 C 15.96667 km/h
2693 18-11-2015 15:00:00 13.58333 C 8.15 g/m*3 13.58 C 17.84167 km/h
2694 18-11-2015 16:00:00 13.075 C 7.98 g/m*3 13.08 C 14.49167 km/h
2695 18-11-2015 17:00:00 12.76667 C 8.05 g/m*3 12.77 C 17.70833 km/h
2696 18-11-2015 18:00:00 12.64167 C 8.06 g/m*3 12.64 C 17.44167 km/h
2697 18-11-2015 19:00:00 12.825 C 8.31 g/m*3 12.83 C 20.11667 km/h
2698 18-11-2015 20:00:00 13.03333 C 8.47 g/m*3 13.03 C 25.60833 km/h
2699 18-11-2015 21:00:00 13.14167 C 8.65 g/m*3 13.14 C 23.71667 km/h
2700 18-11-2015 22:00:00 13.475 C 8.9 g/m*3 13.48 C 20.64167 km/h
Sensor: Nr:Datum:Temp:Abs-Feuchte:Windchill:Wind:
Aussen-T/F 2701 18-11-2015 23:00:00 13.84167 C 9.23 g/m*3 13.84 C 15.83333 km/h
2702 19-11-2015 00:00:00 14.24167 C 9.59 g/m*3 14.24 C 15.96667 km/h
2703 19-11-2015 01:00:00 14.26667 C 9.84 g/m*3 14.27 C 15.03333 km/h
2704 19-11-2015 02:00:00 14.55 C 9.83 g/m*3 14.55 C 14.36667 km/h
2705 19-11-2015 03:00:00 14.325 C 10.15 g/m*3 14.33 C 8.45833 km/h
2706 19-11-2015 04:00:00 13.65833 C 9.97 g/m*3 13.66 C 10.88333 km/h
2707 19-11-2015 05:00:00 14 C 9.47 g/m*3 14 C 10.48333 km/h
2708 19-11-2015 06:00:00 13.56667 C 9.37 g/m*3 13.57 C 15.84167 km/h
2709 19-11-2015 07:00:00 13.325 C 9.07 g/m*3 13.33 C 11.40833 km/h
2710 19-11-2015 08:00:00 13.09167 C 9.11 g/m*3 13.09 C 13.55833 km/h
2711 19-11-2015 09:00:00 13.13333 C 8.47 g/m*3 13.13 C 15.83333 km/h
2712 19-11-2015 10:00:00 13.18333 C 8.29 g/m*3 13.18 C 17.56667 km/h
2713 19-11-2015 11:00:00 12.99167 C 9.08 g/m*3 12.99 C 16.1 km/h
2714 19-11-2015 12:00:00 12.89167 C 9.63 g/m*3 12.89 C 14.63333 km/h
2715 19-11-2015 13:00:00 12.775 C 9.65 g/m*3 12.78 C 14.1 km/h
2716 19-11-2015 14:00:00 11.83333 C 9.74 g/m*3 11.83 C 6.575 km/h
2717 19-11-2015 15:00:00 11.41667 C 9.44 g/m*3 11.42 C 13.025 km/h
2718 19-11-2015 16:00:00 11.13333 C 9.3 g/m*3 11.13 C 4.95 km/h
2719 19-11-2015 17:00:00 10.38333 C 9.02 g/m*3 10.38 C 3.88333 km/h
2720 19-11-2015 18:00:00 10.05833 C 8.94 g/m*3 10.06 C 0.13333 km/h
2721 19-11-2015 19:00:00 9.925 C 8.93 g/m*3 9.93 C 0 km/h
2722 19-11-2015 20:00:00 10.1 C 9.09 g/m*3 10.1 C 1.74167 km/h
2723 19-11-2015 21:00:00 10.55833 C 9.31 g/m*3 8.66 C 14.50833 km/h
2724 19-11-2015 22:00:00 9.33333 C 8.51 g/m*3 8.39 C 7.24167 km/h
2725 19-11-2015 23:00:00 8.925 C 8.36 g/m*3 8.93 C 1.06667 km/h
Sensor: Nr:Datum:Temp:Abs-Feuchte:Windchill:Wind:
Aussen-T/F 2726 20-11-2015 00:00:00 8.99167 C 8.46 g/m*3 8.99 C 0 km/h
2727 20-11-2015 01:00:00 8.94167 C 8.43 g/m*3 8.94 C 0 km/h
2728 20-11-2015 02:00:00 9.41667 C 8.76 g/m*3 9.42 C 1.46667 km/h
2729 20-11-2015 03:00:00 9.725 C 8.96 g/m*3 9.73 C 2.4 km/h
2730 20-11-2015 04:00:00 9.80833 C 9 g/m*3 9.81 C 2.13333 km/h
2731 20-11-2015 05:00:00 9.5 C 8.8 g/m*3 9.5 C 2.53333 km/h
2732 20-11-2015 06:00:00 8.75 C 8.3 g/m*3 8.75 C 3.875 km/h
2733 20-11-2015 07:00:00 8.54167 C 8.08 g/m*3 7.75 C 6.16667 km/h
2734 20-11-2015 08:00:00 8.7 C 7.96 g/m*3 8.7 C 4.8 km/h
2735 20-11-2015 09:00:00 8.66667 C 7.9 g/m*3 7.37 C 8.325 km/h
2736 20-11-2015 10:00:00 8.675 C 7.87 g/m*3 7.83 C 6.43333 km/h
2737 20-11-2015 11:00:00 8.40833 C 7.9 g/m*3 7.67 C 5.89167 km/h
2738 20-11-2015 12:00:00 8.4 C 7.9 g/m*3 8.4 C 3.35 km/h
2739 20-11-2015 13:00:00 8.23333 C 7.89 g/m*3 8.23 C 3.33333 km/h
2740 20-11-2015 14:00:00 7.70833 C 7.62 g/m*3 7.71 C 4.14167 km/h
2741 20-11-2015 15:00:00 6.95 C 7.26 g/m*3 6.95 C 3.74167 km/h
2742 20-11-2015 16:00:00 6.40833 C 7.04 g/m*3 6.41 C 2 km/h
2743 20-11-2015 17:00:00 5.94167 C 6.87 g/m*3 5.94 C 3.86667 km/h
2744 20-11-2015 18:00:00 5.68333 C 6.8 g/m*3 5.68 C 2.26667 km/h
2745 20-11-2015 19:00:00 5.5 C 6.73 g/m*3 5.5 C 4.55 km/h
2746 20-11-2015 20:00:00 5.65 C 6.74 g/m*3 4.59 C 5.63333 km/h
2747 20-11-2015 21:00:00 5.275 C 6.57 g/m*3 5.28 C 1.33333 km/h
2748 20-11-2015 22:00:00 5.00833 C 6.44 g/m*3 5.01 C 3.20833 km/h
2749 20-11-2015 23:00:00 4.58333 C 6.21 g/m*3 4.58 C 4.68333 km/h
2750 21-11-2015 00:00:00 4.21667 C 6.05 g/m*3 3.01 C 5.48333 km/h
Sensor: Nr:Datum:Temp:Abs-Feuchte:Windchill:Wind:
Aussen-T/F 2751 21-11-2015 01:00:00 4.36667 C 6 g/m*3 2.3 C 8.33333 km/h
2752 21-11-2015 02:00:00 5.10833 C 6.11 g/m*3 2.89 C 9.55833 km/h
2753 21-11-2015 03:00:00 4.86667 C 6.02 g/m*3 2.86 C 8.45833 km/h
2754 21-11-2015 04:00:00 4.55833 C 5.87 g/m*3 2.17 C 9.80833 km/h
2755 21-11-2015 05:00:00 4.375 C 5.86 g/m*3 2.5 C 7.63333 km/h
2756 21-11-2015 06:00:00 4.63333 C 5.87 g/m*3 3.34 C 5.89167 km/h
2757 21-11-2015 07:00:00 4.28333 C 5.86 g/m*3 4.28 C 4.00833 km/h
2758 21-11-2015 08:00:00 4.48333 C 5.92 g/m*3 4.48 C 4.13333 km/h
2759 21-11-2015 09:00:00 4.725 C 6.07 g/m*3 4.72 C 0.53333 km/h
2760 21-11-2015 10:00:00 5.34167 C 6.2 g/m*3 5.34 C 0 km/h
2761 21-11-2015 11:00:00 6.025 C 6.3 g/m*3 6.03 C 3.46667 km/h
2762 21-11-2015 12:00:00 6.25833 C 6.27 g/m*3 6.26 C 3.48333 km/h
2763 21-11-2015 13:00:00 6.725 C 6.24 g/m*3 5.42 C 6.975 km/h
2764 21-11-2015 14:00:00 4.99167 C 5.87 g/m*3 3.49 C 6.71667 km/h
2765 21-11-2015 15:00:00 3.63333 C 5.77 g/m*3 3.63 C 2.4 km/h
2766 21-11-2015 16:00:00 2.025 C 5.19 g/m*3 2.03 C 1.6 km/h
2767 21-11-2015 17:00:00 1.975 C 5.27 g/m*3 1.98 C 0.93333 km/h
2768 21-11-2015 18:00:00 2.33333 C 5.45 g/m*3 2.33 C 0.53333 km/h
2769 21-11-2015 19:00:00 2.56667 C 5.54 g/m*3 2.57 C 2.66667 km/h
2770 21-11-2015 20:00:00 1.65833 C 5.19 g/m*3 1.66 C 3.6 km/h
2771 21-11-2015 21:00:00 1.10833 C 5.02 g/m*3 1.11 C 1.6 km/h
2772 21-11-2015 22:00:00 1.20833 C 5.06 g/m*3 1.21 C 0.4 km/h
2773 21-11-2015 23:00:00 1.65833 C 5.22 g/m*3 1.66 C 2 km/h
2774 22-11-2015 00:00:00 1.28333 C 5.08 g/m*3 1.28 C 1.86667 km/h
2775 22-11-2015 01:00:00 1.43333 C 5.17 g/m*3 1.43 C 2.4 km/h
Sensor: Nr:Datum:Temp:Abs-Feuchte:Windchill:Wind:
Aussen-T/F 2776 22-11-2015 02:00:00 1.9 C 5.35 g/m*3 1.9 C 2.26667 km/h
2777 22-11-2015 03:00:00 2.08333 C 5.41 g/m*3 2.08 C 2.13333 km/h
2778 22-11-2015 04:00:00 1.81667 C 5.31 g/m*3 1.82 C 1.73333 km/h
2779 22-11-2015 05:00:00 2.425 C 5.53 g/m*3 0.52 C 6.7 km/h
2780 22-11-2015 06:00:00 2.73333 C 5.45 g/m*3 0.2 C 8.99167 km/h
2781 22-11-2015 07:00:00 2.75833 C 5.37 g/m*3 0.69 C 7.36667 km/h
2782 22-11-2015 08:00:00 2.83333 C 5.37 g/m*3 1.53 C 5.225 km/h
2783 22-11-2015 09:00:00 3.08333 C 5.52 g/m*3 3.08 C 2.28333 km/h
2784 22-11-2015 10:00:00 3.58333 C 5.71 g/m*3 3.58 C 0.8 km/h
2785 22-11-2015 11:00:00 3.74167 C 5.71 g/m*3 3.74 C 2.675 km/h
2786 22-11-2015 12:00:00 4.54167 C 5.93 g/m*3 4.54 C 4.825 km/h
2787 22-11-2015 13:00:00 4.875 C 5.71 g/m*3 4.88 C 4.94167 km/h
2788 22-11-2015 14:00:00 5.45 C 5.44 g/m*3 2.96 C 11.15 km/h
2789 22-11-2015 15:00:00 5.35 C 5.29 g/m*3 3 C 10.35 km/h
2790 22-11-2015 16:00:00 4.64167 C 5.16 g/m*3 2.49 C 8.875 km/h
2791 22-11-2015 17:00:00 3.56667 C 5.12 g/m*3 0.2 C 13.69167 km/h
2792 22-11-2015 18:00:00 1.58333 C 5.04 g/m*3 -1.87 C 11.95 km/h
2793 22-11-2015 19:00:00 1.50833 C 5.1 g/m*3 1.51 C 4.825 km/h
2794 22-11-2015 20:00:00 1.60833 C 5.14 g/m*3 1.61 C 3.2 km/h
2795 22-11-2015 21:00:00 1.675 C 5.22 g/m*3 1.68 C 4.14167 km/h
2796 22-11-2015 22:00:00 2 C 5.32 g/m*3 2 C 4.96667 km/h
2797 22-11-2015 23:00:00 1.95833 C 5.18 g/m*3 -0.16 C 7.10833 km/h
2798 23-11-2015 00:00:00 1.68333 C 5.06 g/m*3 1.68 C 4.41667 km/h
2799 23-11-2015 01:00:00 1.84167 C 5.09 g/m*3 1.84 C 4.68333 km/h
2800 23-11-2015 02:00:00 2.24167 C 5.2 g/m*3 0.25 C 6.85833 km/h
Sensor: Nr:Datum:Temp:Abs-Feuchte:Windchill:Wind:
Aussen-T/F 2801 23-11-2015 03:00:00 2.68333 C 5.3 g/m*3 0.36 C 8.19167 km/h
2802 23-11-2015 04:00:00 2.70833 C 5.36 g/m*3 1.13 C 5.89167 km/h
2803 23-11-2015 05:00:00 2.7 C 5.36 g/m*3 2.7 C 4.81667 km/h
2804 23-11-2015 06:00:00 2.78333 C 5.39 g/m*3 1.12 C 6.15833 km/h
2805 23-11-2015 07:00:00 2.8 C 5.4 g/m*3 2.8 C 3.33333 km/h
2806 23-11-2015 08:00:00 2.9 C 5.43 g/m*3 2.9 C 4.675 km/h
2807 23-11-2015 09:00:00 3.05833 C 5.48 g/m*3 3.06 C 1.86667 km/h
2808 23-11-2015 10:00:00 3.38333 C 5.53 g/m*3 3.38 C 2.93333 km/h
2809 23-11-2015 11:00:00 3.825 C 5.58 g/m*3 3.83 C 2.93333 km/h
2810 23-11-2015 12:00:00 4.50833 C 5.75 g/m*3 4.51 C 4.26667 km/h
2811 23-11-2015 13:00:00 4.83333 C 5.69 g/m*3 3.76 C 5.34167 km/h
2812 23-11-2015 14:00:00 4.15 C 5.59 g/m*3 4.15 C 1.06667 km/h
2813 23-11-2015 15:00:00 3.45833 C 5.49 g/m*3 3.46 C 2.13333 km/h
2814 23-11-2015 16:00:00 2.68333 C 5.3 g/m*3 2.68 C 4.4 km/h
2815 23-11-2015 17:00:00 1.70833 C 5.08 g/m*3 1.71 C 1.60833 km/h
2816 23-11-2015 18:00:00 1.3 C 4.99 g/m*3 1.3 C 0 km/h
2817 23-11-2015 19:00:00 1.09167 C 4.96 g/m*3 1.09 C 0 km/h
2818 23-11-2015 20:00:00 0.85 C 4.88 g/m*3 0.85 C 0.4 km/h
2819 23-11-2015 21:00:00 0.875 C 4.89 g/m*3 0.88 C 0.26667 km/h
2820 23-11-2015 22:00:00 0.81667 C 4.88 g/m*3 0.82 C 0.13333 km/h
2821 23-11-2015 23:00:00 0.66667 C 4.86 g/m*3 0.67 C 0.26667 km/h
2822 24-11-2015 00:00:00 0.75833 C 4.9 g/m*3 0.76 C 0.53333 km/h
2823 24-11-2015 01:00:00 0.8 C 4.91 g/m*3 0.8 C 0 km/h
2824 24-11-2015 02:00:00 0.65833 C 4.87 g/m*3 0.66 C 0.13333 km/h
2825 24-11-2015 03:00:00 0.24167 C 4.73 g/m*3 0.24 C 0.4 km/h
Sensor: Nr:Datum:Temp:Abs-Feuchte:Windchill:Wind:
Aussen-T/F 2826 24-11-2015 04:00:00 -0.18333 C 4.59 g/m*3 -0.18 C 0 km/h
2827 24-11-2015 05:00:00 -0.05833 C 4.63 g/m*3 -0.06 C 0.4 km/h
2828 24-11-2015 06:00:00 -0.09167 C 4.62 g/m*3 -0.09 C 0.53333 km/h
2829 24-11-2015 07:00:00 -0.31667 C 4.55 g/m*3 -0.32 C 1.73333 km/h
2830 24-11-2015 08:00:00 0.16667 C 4.71 g/m*3 0.17 C 4.14167 km/h
2831 24-11-2015 09:00:00 0.99167 C 4.91 g/m*3 0.99 C 3.475 km/h
2832 24-11-2015 10:00:00 1.95 C 5.06 g/m*3 1.95 C 1.2 km/h
2833 24-11-2015 11:00:00 2.975 C 5.13 g/m*3 2.98 C 4.15 km/h
2834 24-11-2015 12:00:00 3.625 C 5.16 g/m*3 1.36 C 8.59167 km/h
2835 24-11-2015 13:00:00 3.71667 C 5.09 g/m*3 1.3 C 9.275 km/h
2836 24-11-2015 14:00:00 3.90833 C 5.1 g/m*3 2.32 C 6.43333 km/h
2837 24-11-2015 15:00:00 3.7 C 4.96 g/m*3 2.22 C 6.01667 km/h
2838 24-11-2015 16:00:00 3.36667 C 4.91 g/m*3 1.83 C 6.03333 km/h
2839 24-11-2015 17:00:00 3.15 C 4.9 g/m*3 3.15 C 4.825 km/h
2840 24-11-2015 18:00:00 3.21667 C 4.94 g/m*3 1.47 C 6.575 km/h
2841 24-11-2015 19:00:00 3.025 C 5.08 g/m*3 1.34 C 6.30833 km/h
2842 24-11-2015 20:00:00 2.21667 C 5.19 g/m*3 2.22 C 2.13333 km/h
2843 24-11-2015 21:00:00 2.3 C 5.26 g/m*3 0.46 C 6.43333 km/h
2844 24-11-2015 22:00:00 2.45833 C 5.3 g/m*3 0.55 C 6.70833 km/h
2845 24-11-2015 23:00:00 2.73333 C 5.34 g/m*3 -0.13 C 10.34167 km/h
2846 25-11-2015 00:00:00 2.76667 C 5.37 g/m*3 -0.47 C 12.09167 km/h
2847 25-11-2015 01:00:00 2.74167 C 5.43 g/m*3 -0.33 C 11.29167 km/h
2848 25-11-2015 02:00:00 2.83333 C 5.46 g/m*3 -0.39 C 12.1 km/h
2849 25-11-2015 03:00:00 2.85 C 5.51 g/m*3 0.63 C 7.925 km/h
2850 25-11-2015 04:00:00 3.00833 C 5.59 g/m*3 1.23 C 6.575 km/h
Sensor: Nr:Datum:Temp:Abs-Feuchte:Windchill:Wind:
Aussen-T/F 2851 25-11-2015 05:00:00 3.275 C 5.69 g/m*3 0.77 C 9.28333 km/h
2852 25-11-2015 06:00:00 3.53333 C 5.76 g/m*3 0.63 C 11.28333 km/h
2853 25-11-2015 07:00:00 3.79167 C 5.83 g/m*3 1.1 C 10.5 km/h
2854 25-11-2015 08:00:00 4.03333 C 5.93 g/m*3 1.67 C 9.275 km/h
2855 25-11-2015 09:00:00 4.35833 C 5.99 g/m*3 1.93 C 9.81667 km/h
2856 25-11-2015 10:00:00 4.825 C 6.17 g/m*3 3.06 C 7.50833 km/h
2857 25-11-2015 11:00:00 5.45833 C 6.34 g/m*3 3.63 C 8.18333 km/h
2858 25-11-2015 12:00:00 6.31667 C 6.53 g/m*3 3.79 C 12.36667 km/h
2859 25-11-2015 13:00:00 6.55 C 6.56 g/m*3 4.21 C 11.56667 km/h
2860 25-11-2015 14:00:00 6.23333 C 6.53 g/m*3 4.6 C 7.925 km/h
2861 25-11-2015 15:00:00 5.90833 C 6.4 g/m*3 4.76 C 6.01667 km/h
2862 25-11-2015 16:00:00 5.5 C 6.36 g/m*3 5.5 C 2.8 km/h
2863 25-11-2015 17:00:00 5.3 C 6.31 g/m*3 5.3 C 2.66667 km/h
2864 25-11-2015 18:00:00 5.3 C 6.31 g/m*3 5.3 C 1.33333 km/h
2865 25-11-2015 19:00:00 5.3 C 6.34 g/m*3 5.3 C 0.4 km/h
2866 25-11-2015 20:00:00 5.2 C 6.35 g/m*3 5.2 C 1.6 km/h
2867 25-11-2015 21:00:00 5.25 C 6.42 g/m*3 5.25 C 1.33333 km/h
2868 25-11-2015 22:00:00 5.36667 C 6.47 g/m*3 5.37 C 0.66667 km/h
2869 25-11-2015 23:00:00 5.575 C 6.48 g/m*3 5.58 C 4.14167 km/h
2870 26-11-2015 00:00:00 5.6 C 6.46 g/m*3 5.6 C 3.46667 km/h
2871 26-11-2015 01:00:00 5.325 C 6.41 g/m*3 5.33 C 2.54167 km/h
2872 26-11-2015 02:00:00 5.31667 C 6.45 g/m*3 5.32 C 2.4 km/h
2873 26-11-2015 03:00:00 5.4 C 6.45 g/m*3 5.4 C 2.675 km/h
2874 26-11-2015 04:00:00 5.475 C 6.48 g/m*3 5.48 C 3.86667 km/h
2875 26-11-2015 05:00:00 5.325 C 6.5 g/m*3 5.33 C 2.8 km/h
Sensor: Nr:Datum:Temp:Abs-Feuchte:Windchill:Wind:
Aussen-T/F 2876 26-11-2015 06:00:00 5.3 C 6.52 g/m*3 5.3 C 3.06667 km/h
2877 26-11-2015 07:00:00 5.18333 C 6.47 g/m*3 5.18 C 3.6 km/h
2878 26-11-2015 08:00:00 5.075 C 6.42 g/m*3 5.08 C 2.4 km/h
2879 26-11-2015 09:00:00 5.15 C 6.41 g/m*3 5.15 C 4.54167 km/h
2880 26-11-2015 10:00:00 5.24167 C 6.41 g/m*3 4.23 C 5.35 km/h
2881 26-11-2015 11:00:00 5.38333 C 6.41 g/m*3 3.71 C 7.525 km/h
2882 26-11-2015 12:00:00 5.55 C 6.42 g/m*3 5.55 C 4.54167 km/h
2883 26-11-2015 13:00:00 5.81667 C 6.42 g/m*3 5.82 C 3.86667 km/h
2884 26-11-2015 14:00:00 6.25 C 6.39 g/m*3 6.25 C 1.2 km/h
2885 26-11-2015 15:00:00 6.4 C 6.54 g/m*3 6.4 C 1.33333 km/h
2886 26-11-2015 16:00:00 6 C 6.53 g/m*3 6 C 0.13333 km/h
2887 26-11-2015 17:00:00 5.46667 C 6.48 g/m*3 5.47 C 0.26667 km/h
2888 26-11-2015 18:00:00 4.70833 C 6.19 g/m*3 4.71 C 3.46667 km/h
2889 26-11-2015 19:00:00 3.85 C 5.92 g/m*3 3.85 C 1.46667 km/h
2890 26-11-2015 20:00:00 3.50833 C 5.83 g/m*3 3.51 C 0.26667 km/h
2891 26-11-2015 21:00:00 2.60833 C 5.5 g/m*3 2.61 C 0.4 km/h
2892 26-11-2015 22:00:00 1.85 C 5.24 g/m*3 1.85 C 0 km/h
2893 26-11-2015 23:00:00 2.35833 C 5.47 g/m*3 2.36 C 1.2 km/h
2894 27-11-2015 00:00:00 2.6 C 5.56 g/m*3 2.6 C 1.2 km/h
2895 27-11-2015 01:00:00 2.41667 C 5.49 g/m*3 2.42 C 2.66667 km/h
2896 27-11-2015 02:00:00 2.09167 C 5.37 g/m*3 2.09 C 0.93333 km/h
2897 27-11-2015 03:00:00 1.56667 C 5.18 g/m*3 1.57 C 4.26667 km/h
2898 27-11-2015 04:00:00 1.2 C 5.09 g/m*3 1.2 C 1.06667 km/h
2899 27-11-2015 05:00:00 1.09167 C 5.07 g/m*3 1.09 C 0.8 km/h
2900 27-11-2015 06:00:00 1.21667 C 5.11 g/m*3 1.22 C 0.13333 km/h
Sensor: Nr:Datum:Temp:Abs-Feuchte:Windchill:Wind:
Aussen-T/F 2901 27-11-2015 07:00:00 1.525 C 5.22 g/m*3 1.53 C 1.73333 km/h
2902 27-11-2015 08:00:00 1.675 C 5.27 g/m*3 1.68 C 1.6 km/h
2903 27-11-2015 09:00:00 1.70833 C 5.28 g/m*3 1.71 C 4.26667 km/h
2904 27-11-2015 10:00:00 1.66667 C 5.27 g/m*3 -0.12 C 6.01667 km/h
2905 27-11-2015 11:00:00 1.875 C 5.34 g/m*3 1.88 C 3.2 km/h
2906 27-11-2015 12:00:00 2.48333 C 5.55 g/m*3 2.48 C 1.2 km/h
2907 27-11-2015 13:00:00 3.11667 C 5.74 g/m*3 3.12 C 1.46667 km/h
2908 27-11-2015 14:00:00 3.825 C 5.91 g/m*3 3.83 C 2.53333 km/h
2909 27-11-2015 15:00:00 4.025 C 5.91 g/m*3 2.95 C 5.075 km/h
2910 27-11-2015 16:00:00 3.63333 C 5.77 g/m*3 3.63 C 2.66667 km/h
2911 27-11-2015 17:00:00 3.23333 C 5.65 g/m*3 3.23 C 0.66667 km/h
2912 27-11-2015 18:00:00 2.98333 C 5.49 g/m*3 2.98 C 2.8 km/h
2913 27-11-2015 19:00:00 2.71667 C 5.32 g/m*3 2.72 C 0.93333 km/h
2914 27-11-2015 20:00:00 2.325 C 5.22 g/m*3 2.33 C 0.53333 km/h
2915 27-11-2015 21:00:00 2.06667 C 5.06 g/m*3 2.07 C 2.26667 km/h
2916 27-11-2015 22:00:00 1.71667 C 4.96 g/m*3 1.72 C 0.53333 km/h
2917 27-11-2015 23:00:00 0.83333 C 4.74 g/m*3 0.83 C 1.6 km/h
2918 28-11-2015 00:00:00 0.81667 C 4.84 g/m*3 0.82 C 0.13333 km/h
2919 28-11-2015 01:00:00 1.68333 C 5.04 g/m*3 1.68 C 3.625 km/h
2920 28-11-2015 02:00:00 2.15 C 5.2 g/m*3 2.15 C 1.46667 km/h
2921 28-11-2015 03:00:00 2.49167 C 5.27 g/m*3 2.49 C 3.74167 km/h
2922 28-11-2015 04:00:00 3.10833 C 5.39 g/m*3 3.11 C 1.86667 km/h
2923 28-11-2015 05:00:00 3.275 C 5.46 g/m*3 -0.25 C 14.225 km/h
2924 28-11-2015 06:00:00 3.16667 C 5.54 g/m*3 -0.87 C 17.3 km/h
2925 28-11-2015 07:00:00 3.275 C 5.63 g/m*3 -0.15 C 13.7 km/h
Sensor: Nr:Datum:Temp:Abs-Feuchte:Windchill:Wind:
Aussen-T/F 2926 28-11-2015 08:00:00 3.68333 C 5.84 g/m*3 1.13 C 9.81667 km/h
2927 28-11-2015 09:00:00 4.46364 C 6.23 g/m*3 3.01 C 6.28182 km/h
2928 28-11-2015 10:00:00 5 C 6.43 g/m*3 3.39 C 7.08 km/h
2929 28-11-2015 11:00:00 5.35833 C 6.38 g/m*3 3.44 C 8.45 km/h
2930 28-11-2015 12:00:00 5.975 C 5.92 g/m*3 3.11 C 13.96667 km/h
2931 28-11-2015 13:00:00 6.4 C 5.59 g/m*3 3.8 C 12.9 km/h
2932 28-11-2015 14:00:00 6.36667 C 5.45 g/m*3 3.87 C 12.23333 km/h
2933 28-11-2015 15:00:00 5.91667 C 5.46 g/m*3 3.6 C 10.74167 km/h
2934 28-11-2015 16:00:00 5.03333 C 5.34 g/m*3 3.27 C 7.65 km/h
2935 28-11-2015 17:00:00 4.28333 C 5.32 g/m*3 2.63 C 6.825 km/h
2936 28-11-2015 18:00:00 4.50833 C 5.38 g/m*3 2.08 C 9.95833 km/h
2937 28-11-2015 19:00:00 4.85 C 5.44 g/m*3 3.09 C 7.51667 km/h
2938 28-11-2015 20:00:00 5.625 C 5.68 g/m*3 2.5 C 15.15833 km/h
2939 28-11-2015 21:00:00 6.15833 C 5.91 g/m*3 2.86 C 17.3 km/h
2940 28-11-2015 22:00:00 6.35 C 6 g/m*3 2.77 C 19.98333 km/h
2941 28-11-2015 23:00:00 6.675 C 6 g/m*3 2.87 C 22.925 km/h
2942 29-11-2015 00:00:00 6.88333 C 6.07 g/m*3 3.11 C 23.2 km/h
2943 29-11-2015 01:00:00 6.93333 C 6.14 g/m*3 3.15 C 23.45833 km/h
2944 29-11-2015 02:00:00 6.675 C 6.38 g/m*3 2.46 C 27.35833 km/h
2945 29-11-2015 03:00:00 6.3 C 6.47 g/m*3 2.17 C 25.2 km/h
2946 29-11-2015 04:00:00 6.375 C 6.58 g/m*3 2.24 C 25.46667 km/h
2947 29-11-2015 05:00:00 6.66667 C 6.7 g/m*3 2.86 C 22.91667 km/h
2948 29-11-2015 06:00:00 7.275 C 6.94 g/m*3 3.68 C 22.50833 km/h
2949 29-11-2015 07:00:00 7.58333 C 7.08 g/m*3 4.4 C 19.3 km/h
2950 29-11-2015 08:00:00 7.91667 C 7.26 g/m*3 4.88 C 18.76667 km/h
Sensor: Nr:Datum:Temp:Abs-Feuchte:Windchill:Wind:
Aussen-T/F 2951 29-11-2015 09:00:00 8.375 C 7.54 g/m*3 5.43 C 19.04167 km/h
2952 29-11-2015 10:00:00 9.05 C 7.81 g/m*3 6.47 C 17.3 km/h
2953 29-11-2015 11:00:00 9.64167 C 8.04 g/m*3 7.26 C 16.76667 km/h
2954 29-11-2015 12:00:00 10.425 C 8.24 g/m*3 8.39 C 15.43333 km/h
2955 29-11-2015 13:00:00 10.55833 C 8.4 g/m*3 8.25 C 18.23333 km/h
2956 29-11-2015 14:00:00 10.29167 C 8.53 g/m*3 7.72 C 20.24167 km/h
2957 29-11-2015 15:00:00 10.45 C 8.64 g/m*3 7.81 C 21.44167 km/h
2958 29-11-2015 16:00:00 10.63333 C 8.6 g/m*3 8.34 C 18.23333 km/h
2959 29-11-2015 17:00:00 10.65 C 8.48 g/m*3 7.94 C 22.91667 km/h
2960 29-11-2015 18:00:00 10.81667 C 8.35 g/m*3 8.4 C 20.10833 km/h
2961 29-11-2015 19:00:00 10.73333 C 8.4 g/m*3 8.17 C 21.45 km/h
2962 29-11-2015 20:00:00 10.73333 C 8.43 g/m*3 7.87 C 25.2 km/h
2963 29-11-2015 21:00:00 11.15 C 8.49 g/m*3 11.15 C 23.875 km/h
2964 29-11-2015 22:00:00 11.125 C 8.47 g/m*3 11.13 C 25.325 km/h
2965 29-11-2015 23:00:00 11.26667 C 8.3 g/m*3 11.27 C 26.675 km/h
2966 30-11-2015 00:00:00 11.18333 C 8.35 g/m*3 11.18 C 23.99167 km/h
2967 30-11-2015 01:00:00 10.94167 C 8.39 g/m*3 8.3 C 23.075 km/h
2968 30-11-2015 02:00:00 10.80833 C 8.41 g/m*3 8.51 C 18.76667 km/h
2969 30-11-2015 03:00:00 10.55 C 8.46 g/m*3 8.62 C 14.76667 km/h
2970 30-11-2015 04:00:00 8.78333 C 7.96 g/m*3 7.34 C 9.14167 km/h
2971 30-11-2015 05:00:00 7.84167 C 7.67 g/m*3 6.76 C 6.84167 km/h
2972 30-11-2015 06:00:00 7.75 C 7.65 g/m*3 7.04 C 5.48333 km/h
2973 30-11-2015 07:00:00 7.66667 C 7.67 g/m*3 7.67 C 2 km/h
2974 30-11-2015 08:00:00 7.775 C 7.79 g/m*3 7.78 C 1.46667 km/h
2975 30-11-2015 09:00:00 8.1 C 7.99 g/m*3 8.1 C 0.93333 km/h
Sensor: Nr:Datum:Temp:Abs-Feuchte:Windchill:Wind:
Aussen-T/F 2976 30-11-2015 10:00:00 8.68333 C 8.32 g/m*3 8.68 C 1.33333 km/h
2977 30-11-2015 11:00:00 9.20833 C 8.6 g/m*3 8.55 C 6.05 km/h
2978 30-11-2015 12:00:00 9.975 C 8.91 g/m*3 7.8 C 15.7 km/h
2979 30-11-2015 13:00:00 10.31667 C 8.91 g/m*3 8.09 C 16.9 km/h
2980 30-11-2015 14:00:00 10.40833 C 8.8 g/m*3 7.84 C 20.50833 km/h
2981 30-11-2015 15:00:00 10.6 C 8.74 g/m*3 8.2 C 19.3 km/h
2982 30-11-2015 16:00:00 10.54167 C 8.67 g/m*3 8.14 C 19.16667 km/h
2983 30-11-2015 17:00:00 10.425 C 8.66 g/m*3 8.04 C 18.64167 km/h
2984 30-11-2015 18:00:00 10.95833 C 8.65 g/m*3 8.51 C 20.9 km/h
2985 30-11-2015 19:00:00 11.14167 C 8.65 g/m*3 11.14 C 23.99167 km/h
2986 30-11-2015 20:00:00 11.00833 C 8.67 g/m*3 11.01 C 21.84167 km/h
2987 30-11-2015 21:00:00 10.80833 C 8.79 g/m*3 7.92 C 25.86667 km/h
2988 30-11-2015 22:00:00 10.925 C 8.77 g/m*3 8.08 C 25.725 km/h
2989 30-11-2015 23:00:00 11.08333 C 8.77 g/m*3 11.08 C 27.21667 km/h
2990 01-12-2015 00:00:00 11.15 C 8.85 g/m*3 11.15 C 22.90833 km/h
2991 01-12-2015 01:00:00 11.125 C 8.98 g/m*3 11.13 C 20.775 km/h
2992 01-12-2015 02:00:00 11.01667 C 9.04 g/m*3 11.02 C 23.30833 km/h
2993 01-12-2015 03:00:00 11.15833 C 9.12 g/m*3 11.16 C 18.50833 km/h
2994 01-12-2015 04:00:00 11.24167 C 9.16 g/m*3 11.24 C 18.23333 km/h
2995 01-12-2015 05:00:00 10.9 C 9.11 g/m*3 9.08 C 14.5 km/h
2996 01-12-2015 06:00:00 10.76667 C 9.12 g/m*3 9.1 C 13.03333 km/h
2997 01-12-2015 07:00:00 10.51667 C 9.13 g/m*3 9.95 C 6.45 km/h
2998 01-12-2015 08:00:00 10.33333 C 9.14 g/m*3 10.33 C 2.8 km/h
2999 01-12-2015 09:00:00 10.28333 C 9.18 g/m*3 10.28 C 0.26667 km/h
3000 01-12-2015 10:00:00 10.00833 C 9.03 g/m*3 10.01 C 0.4 km/h
Sensor: Nr:Datum:Temp:Abs-Feuchte:Windchill:Wind:
Aussen-T/F 3001 01-12-2015 11:00:00 9.725 C 8.86 g/m*3 9.73 C 0.4 km/h
3002 01-12-2015 12:00:00 9.93333 C 9.04 g/m*3 9.93 C 2.13333 km/h
3003 01-12-2015 13:00:00 11.225 C 9.85 g/m*3 11.23 C 7.93333 km/h
3004 01-12-2015 14:00:00 12.05 C 10.16 g/m*3 12.05 C 10.89167 km/h
3005 01-12-2015 15:00:00 12.24167 C 10.07 g/m*3 12.24 C 9.95833 km/h
3006 01-12-2015 16:00:00 12.125 C 9.99 g/m*3 12.13 C 10.75833 km/h
3007 01-12-2015 17:00:00 12.14167 C 9.92 g/m*3 12.14 C 12.63333 km/h
3008 01-12-2015 18:00:00 12.325 C 9.86 g/m*3 12.33 C 13.03333 km/h
3009 01-12-2015 19:00:00 12.28333 C 9.76 g/m*3 12.28 C 11.29167 km/h
3010 01-12-2015 20:00:00 12.11667 C 9.66 g/m*3 12.12 C 8.60833 km/h
3011 01-12-2015 21:00:00 11.975 C 9.6 g/m*3 11.98 C 8.45833 km/h
3012 01-12-2015 22:00:00 11.725 C 9.53 g/m*3 11.73 C 10.63333 km/h
3013 01-12-2015 23:00:00 11.54167 C 9.43 g/m*3 11.54 C 5.63333 km/h
3014 02-12-2015 00:00:00 11.16667 C 9.32 g/m*3 11.17 C 5.225 km/h
3015 02-12-2015 01:00:00 10.95833 C 9.12 g/m*3 10.96 C 2.4 km/h
3016 02-12-2015 02:00:00 10.625 C 8.91 g/m*3 10.63 C 2.13333 km/h
3017 02-12-2015 03:00:00 10.4 C 8.77 g/m*3 10.4 C 2.8 km/h
3018 02-12-2015 04:00:00 10.59167 C 8.69 g/m*3 10.59 C 1.46667 km/h
3019 02-12-2015 05:00:00 10.25 C 8.81 g/m*3 10.25 C 0.13333 km/h
3020 02-12-2015 06:00:00 9.96667 C 8.6 g/m*3 9.97 C 2.81667 km/h
3021 02-12-2015 07:00:00 9.8 C 8.4 g/m*3 9.8 C 1.6 km/h
3022 02-12-2015 08:00:00 9.60833 C 8.16 g/m*3 9.61 C 2.53333 km/h
3023 02-12-2015 09:00:00 9.69167 C 8.09 g/m*3 9.69 C 0.66667 km/h
3024 02-12-2015 10:00:00 9.98333 C 8.39 g/m*3 9.98 C 0.53333 km/h
3025 02-12-2015 11:00:00 10.44167 C 8.29 g/m*3 10.44 C 0.93333 km/h
Sensor: Nr:Datum:Temp:Abs-Feuchte:Windchill:Wind:
Aussen-T/F 3026 02-12-2015 12:00:00 10.61667 C 8.35 g/m*3 10.62 C 2.66667 km/h
3027 02-12-2015 13:00:00 10.68333 C 8.12 g/m*3 10.43 C 5.34167 km/h
3028 02-12-2015 14:00:00 10.475 C 8.03 g/m*3 10.48 C 2.4 km/h
3029 02-12-2015 15:00:00 10.075 C 8.02 g/m*3 10.07 C 0.26667 km/h
3030 02-12-2015 16:00:00 9.43333 C 7.9 g/m*3 9.43 C 0.4 km/h
3031 02-12-2015 17:00:00 9.09167 C 7.78 g/m*3 9.09 C 0.66667 km/h
3032 02-12-2015 18:00:00 9.01667 C 7.63 g/m*3 9.02 C 1.73333 km/h
3033 02-12-2015 19:00:00 8.90833 C 7.54 g/m*3 8.91 C 2 km/h
3034 02-12-2015 20:00:00 8.825 C 7.56 g/m*3 8.82 C 0.8 km/h
3035 02-12-2015 21:00:00 8.61667 C 7.56 g/m*3 8.62 C 0.66667 km/h
3036 02-12-2015 22:00:00 8.80833 C 7.26 g/m*3 8.81 C 3.06667 km/h
3037 02-12-2015 23:00:00 8.54167 C 7.5 g/m*3 8.54 C 0 km/h
3038 03-12-2015 00:00:00 8.21667 C 7.48 g/m*3 8.22 C 0 km/h
3039 03-12-2015 01:00:00 8.08333 C 7.47 g/m*3 8.08 C 0 km/h
3040 03-12-2015 02:00:00 7.9 C 7.37 g/m*3 7.9 C 0 km/h
3041 03-12-2015 03:00:00 7.80833 C 7.27 g/m*3 7.81 C 0.66667 km/h
3042 03-12-2015 04:00:00 7.75833 C 7.28 g/m*3 7.76 C 0 km/h
3043 03-12-2015 05:00:00 7.71667 C 7.19 g/m*3 7.72 C 1.6 km/h
3044 03-12-2015 06:00:00 7.89167 C 7.05 g/m*3 7.89 C 1.86667 km/h
3045 03-12-2015 07:00:00 7.69167 C 7.14 g/m*3 7.69 C 0 km/h
3046 03-12-2015 08:00:00 7.6 C 7.06 g/m*3 7.6 C 0.13333 km/h
3047 03-12-2015 09:00:00 8.05833 C 7.03 g/m*3 8.06 C 0.66667 km/h
3048 03-12-2015 10:00:00 8.65 C 7.17 g/m*3 8.65 C 0.4 km/h
3049 03-12-2015 11:00:00 9.475 C 7.16 g/m*3 9.48 C 3.875 km/h
3050 03-12-2015 12:00:00 10.075 C 7.15 g/m*3 10.07 C 4 km/h
Sensor: Nr:Datum:Temp:Abs-Feuchte:Windchill:Wind:
Aussen-T/F 3051 03-12-2015 13:00:00 10.38333 C 7.15 g/m*3 10.38 C 3.2 km/h
3052 03-12-2015 14:00:00 10.48333 C 7.03 g/m*3 10.48 C 2.66667 km/h
3053 03-12-2015 15:00:00 9.58333 C 6.95 g/m*3 9.58 C 3.20833 km/h
3054 03-12-2015 16:00:00 7.35833 C 6.75 g/m*3 7.36 C 3.6 km/h
3055 03-12-2015 17:00:00 6.06 C 6.47 g/m*3 6.06 C 4.16 km/h
3056 03-12-2015 18:00:00 5.79167 C 6.47 g/m*3 5.79 C 3.6 km/h
3057 03-12-2015 19:00:00 5.4 C 6.38 g/m*3 5.4 C 0.93333 km/h
3058 03-12-2015 20:00:00 5.11667 C 6.32 g/m*3 5.12 C 0.93333 km/h
3059 03-12-2015 21:00:00 4.73333 C 6.22 g/m*3 4.73 C 1.46667 km/h
3060 03-12-2015 22:00:00 4.75 C 6.28 g/m*3 4.75 C 1.73333 km/h
3061 03-12-2015 23:00:00 4.525 C 6.22 g/m*3 4.53 C 0.26667 km/h
3062 04-12-2015 00:00:00 4.56667 C 6.27 g/m*3 4.57 C 0.4 km/h
3063 04-12-2015 01:00:00 4.55 C 6.27 g/m*3 4.55 C 1.875 km/h
3064 04-12-2015 02:00:00 4.85833 C 6.35 g/m*3 4.86 C 1.33333 km/h
3065 04-12-2015 03:00:00 6.14167 C 6.48 g/m*3 6.14 C 4.55 km/h
3066 04-12-2015 04:00:00 6.75833 C 6.46 g/m*3 6.76 C 3.35 km/h
3067 04-12-2015 05:00:00 6.69167 C 6.46 g/m*3 6.69 C 3.74167 km/h
3068 04-12-2015 06:00:00 7.45 C 6.58 g/m*3 5.37 C 11.14167 km/h
3069 04-12-2015 07:00:00 7.85 C 6.89 g/m*3 4.72 C 19.45 km/h
3070 04-12-2015 08:00:00 7.43333 C 7.19 g/m*3 4.52 C 16.76667 km/h
3071 04-12-2015 09:00:00 7.6 C 7.47 g/m*3 5.35 C 12.36667 km/h
3072 04-12-2015 10:00:00 7.78333 C 7.66 g/m*3 5.39 C 13.55833 km/h
3073 04-12-2015 11:00:00 8.34167 C 7.87 g/m*3 6.15 C 13.03333 km/h
3074 04-12-2015 12:00:00 8.9 C 8.05 g/m*3 7.07 C 11.425 km/h
3075 04-12-2015 13:00:00 9.35 C 8.2 g/m*3 8.06 C 8.875 km/h
Sensor: Nr:Datum:Temp:Abs-Feuchte:Windchill:Wind:
Aussen-T/F 3076 04-12-2015 14:00:00 9.225 C 8.14 g/m*3 8.69 C 5.61667 km/h
3077 04-12-2015 15:00:00 8.8 C 8.06 g/m*3 8.8 C 2.53333 km/h
3078 04-12-2015 16:00:00 8.775 C 8.13 g/m*3 8.78 C 1.86667 km/h
3079 04-12-2015 17:00:00 7.325 C 7.41 g/m*3 7.33 C 3.2 km/h
3080 04-12-2015 18:00:00 6.275 C 7 g/m*3 6.28 C 3.06667 km/h
3081 04-12-2015 19:00:00 5.81667 C 6.81 g/m*3 5.82 C 4.13333 km/h
3082 04-12-2015 20:00:00 5.86667 C 6.74 g/m*3 5.87 C 4.275 km/h
3083 04-12-2015 21:00:00 5.40833 C 6.52 g/m*3 5.41 C 4.28333 km/h
3084 04-12-2015 22:00:00 5.25833 C 6.5 g/m*3 5.26 C 4.95 km/h
3085 04-12-2015 23:00:00 5.375 C 6.56 g/m*3 5.38 C 4.68333 km/h
3086 05-12-2015 00:00:00 5.93333 C 6.77 g/m*3 5.93 C 4.275 km/h
3087 05-12-2015 01:00:00 6.125 C 6.78 g/m*3 4.54 C 7.65833 km/h
3088 05-12-2015 02:00:00 5.81667 C 6.6 g/m*3 4.83 C 5.49167 km/h
3089 05-12-2015 03:00:00 5.95 C 6.69 g/m*3 4.89 C 5.775 km/h
3090 05-12-2015 04:00:00 5.51667 C 6.47 g/m*3 5.52 C 2.675 km/h
3091 05-12-2015 05:00:00 5.58333 C 6.55 g/m*3 4.14 C 6.84167 km/h
3092 05-12-2015 06:00:00 6 C 6.64 g/m*3 3.92 C 9.69167 km/h
3093 05-12-2015 07:00:00 6.04167 C 6.59 g/m*3 3.65 C 11.28333 km/h
3094 05-12-2015 08:00:00 6.18333 C 6.61 g/m*3 4.54 C 7.93333 km/h
3095 05-12-2015 09:00:00 6.28333 C 6.66 g/m*3 4.59 C 8.2 km/h
3096 05-12-2015 10:00:00 6.85833 C 6.72 g/m*3 3.96 C 15.56667 km/h
3097 05-12-2015 11:00:00 7.625 C 6.87 g/m*3 4.58 C 18.23333 km/h
3098 05-12-2015 12:00:00 8.20833 C 7.02 g/m*3 5.53 C 16.36667 km/h
3099 05-12-2015 13:00:00 8.63333 C 7.1 g/m*3 6.28 C 14.63333 km/h
3100 05-12-2015 14:00:00 8.70833 C 6.94 g/m*3 6.57 C 13.16667 km/h
Sensor: Nr:Datum:Temp:Abs-Feuchte:Windchill:Wind:
Aussen-T/F 3101 05-12-2015 15:00:00 8.20833 C 6.79 g/m*3 6.53 C 9.81667 km/h
3102 05-12-2015 16:00:00 6.83333 C 6.51 g/m*3 6.83 C 4.15833 km/h
3103 05-12-2015 17:00:00 5.225 C 6.21 g/m*3 5.23 C 1.86667 km/h
3104 05-12-2015 18:00:00 4.8 C 6.23 g/m*3 4.8 C 2 km/h
3105 05-12-2015 19:00:00 4.925 C 6.22 g/m*3 4.93 C 3.06667 km/h
3106 05-12-2015 20:00:00 4.175 C 5.98 g/m*3 4.18 C 3.6 km/h
3107 05-12-2015 21:00:00 3.975 C 5.97 g/m*3 3.98 C 4.13333 km/h
3108 05-12-2015 22:00:00 3.76667 C 5.88 g/m*3 3.77 C 1.6 km/h
3109 05-12-2015 23:00:00 4.04167 C 6.07 g/m*3 4.04 C 3.2 km/h
3110 06-12-2015 00:00:00 5.75833 C 6.59 g/m*3 3.98 C 8.19167 km/h
3111 06-12-2015 01:00:00 5.84167 C 6.51 g/m*3 4.78 C 5.74167 km/h
3112 06-12-2015 02:00:00 6.04167 C 6.54 g/m*3 6.04 C 4.00833 km/h
3113 06-12-2015 03:00:00 5.38333 C 6.35 g/m*3 5.38 C 4 km/h
3114 06-12-2015 04:00:00 4.85 C 6.22 g/m*3 4.85 C 3.73333 km/h
3115 06-12-2015 05:00:00 5.09167 C 6.31 g/m*3 4.05 C 5.35833 km/h
3116 06-12-2015 06:00:00 7.175 C 6.87 g/m*3 5.06 C 11.03333 km/h
3117 06-12-2015 07:00:00 8.01667 C 7.07 g/m*3 6.96 C 6.85833 km/h
3118 06-12-2015 08:00:00 8.69167 C 7.44 g/m*3 7.61 C 7.38333 km/h
3119 06-12-2015 09:00:00 9.35 C 7.71 g/m*3 7.99 C 9.275 km/h
3120 06-12-2015 10:00:00 9.675 C 7.73 g/m*3 8.07 C 11.01667 km/h
3121 06-12-2015 11:00:00 9.90833 C 7.77 g/m*3 8.58 C 9.69167 km/h
3122 06-12-2015 12:00:00 10.19167 C 7.91 g/m*3 8.87 C 9.94167 km/h
3123 06-12-2015 13:00:00 10.30833 C 7.83 g/m*3 8.42 C 13.96667 km/h
3124 06-12-2015 14:00:00 10.26667 C 7.65 g/m*3 8.37 C 13.96667 km/h
3125 06-12-2015 15:00:00 10.25833 C 7.63 g/m*3 8.41 C 13.55 km/h
Sensor: Nr:Datum:Temp:Abs-Feuchte:Windchill:Wind:
Aussen-T/F 3126 06-12-2015 16:00:00 9.94167 C 7.78 g/m*3 9.94 C 3.33333 km/h
3127 06-12-2015 17:00:00 9.925 C 7.77 g/m*3 9.93 C 4.55833 km/h
3128 06-12-2015 18:00:00 10.24167 C 7.97 g/m*3 8.7 C 11.40833 km/h
3129 06-12-2015 19:00:00 10.06667 C 8.11 g/m*3 8.48 C 11.425 km/h
3130 06-12-2015 20:00:00 9.43333 C 7.98 g/m*3 9.43 C 4.94167 km/h
3131 06-12-2015 21:00:00 8.65833 C 7.8 g/m*3 8.66 C 4 km/h
3132 06-12-2015 22:00:00 8.55 C 7.94 g/m*3 8.55 C 2 km/h
3133 06-12-2015 23:00:00 9.14167 C 8.16 g/m*3 9.14 C 2.8 km/h
3134 07-12-2015 00:00:00 9.15 C 8.06 g/m*3 9.15 C 4.275 km/h
3135 07-12-2015 01:00:00 9.04167 C 7.93 g/m*3 9.04 C 2.675 km/h
3136 07-12-2015 02:00:00 8.80833 C 7.91 g/m*3 8.81 C 0.66667 km/h
3137 07-12-2015 03:00:00 8.65 C 7.93 g/m*3 8.65 C 0.26667 km/h
3138 07-12-2015 04:00:00 8.3 C 7.8 g/m*3 8.3 C 0.8 km/h
3139 07-12-2015 05:00:00 8.40833 C 7.91 g/m*3 8.41 C 0.26667 km/h
3140 07-12-2015 06:00:00 8.5 C 7.92 g/m*3 8.5 C 0.8 km/h
3141 07-12-2015 07:00:00 8.04167 C 7.71 g/m*3 8.04 C 0 km/h
3142 07-12-2015 08:00:00 7.63333 C 7.58 g/m*3 7.63 C 0 km/h